GFSWCAN_con_lsi_000.txt.gz
Lid_Strength_Index
2 2 2 2 2 2 2 2 2 2 2 2 2 2 1 1 1 2 5 5 6 9 9 10 9 11 11 13 17 16 15 16 16 22 24 17 22 17 19 17 18 19 25 28 30 30 27 14 14 18 16 14 14 13
2 2 2 2 2 2 2 2 2 2 2 2 2 2 2 1 1 0 4 3 3 6 8 8 7 6 7 8 11 15 13 18 13 17 20 20 23 23 21 25 15 20 17 22 20 21 13 11 12 10 11 13 12 11
2 2 2 2 2 2 2 2 2 2 1 1 1 1 1 0 -0 0 2 2 3 6 7 7 8 6 5 5 5 10 14 9 11 9 13 13 17 15 22 22 18 15 13 15 15 13 12 11 10 10 10 10 10 10
2 2 2 2 2 1 1 1 1 1 1 1 1 0 0 -0 -1 -1 2 2 3 5 10 11 8 8 5 5 6 6 7 8 8 9 10 13 15 11 14 14 15 14 14 16 15 13 11 11 10 9 9 9 10 10
1 1 1 1 1 1 0 0 0 -0 -0 -0 -0 -0 -0 -0 -1 -0 1 1 2 5 10 13 13 9 7 6 6 6 7 8 8 10 11 13 12 11 12 12 14 12 13 15 15 11 10 10 9 9 10 10 11 12
1 1 1 1 0 0 0 -0 -0 -1 -1 -1 -1 -1 -1 -0 -0 2 6 2 1 2 7 11 9 12 9 8 8 8 8 8 8 10 11 10 9 10 13 15 12 10 10 9 10 8 8 7 9 11 12 12 12 13
1 1 1 1 1 0 -0 -0 -1 -1 -1 -1 -1 -1 -1 -0 2 5 6 6 1 2 7 10 12 14 10 10 12 10 8 9 9 10 11 10 10 9 11 15 11 10 9 8 10 11 9 10 12 13 12 13 14 14
2 1 1 1 1 1 0 -0 -0 -1 -1 -1 -1 -1 -0 -0 1 4 2 1 1 4 6 11 15 18 12 15 14 10 10 9 9 10 11 11 10 9 13 11 9 8 11 13 15 14 14 14 14 14 15 15 17 17
2 2 2 2 1 1 1 0 -0 -0 -0 -1 -0 -0 2 3 6 5 0 -0 1 4 10 11 19 21 11 12 11 13 9 13 9 12 11 11 14 15 13 9 9 16 15 18 17 16 17 18 17 17 18 18 19 18
3 3 2 2 1 1 1 1 0 -0 -0 -0 1 5 8 6 2 1 4 5 6 6 7 11 21 21 11 13 15 14 11 12 15 14 10 12 14 10 15 17 17 18 19 19 20 20 21 22 20 20 20 19 19 19
3 3 2 2 1 1 1 0 0 0 -0 3 5 7 6 2 6 7 9 10 9 11 10 14 15 17 11 14 13 10 12 14 17 18 16 20 23 13 18 18 18 18 19 21 21 21 21 21 21 21 21 20 21 22
3 3 3 2 2 1 1 0 0 2 4 4 4 3 3 6 9 11 12 12 13 16 18 16 13 10 11 9 12 11 13 14 18 20 15 18 15 20 21 21 21 21 24 24 23 23 22 21 21 22 23 23 23 23
3 3 3 2 2 1 1 1 0 -0 1 3 5 7 7 8 12 14 18 19 21 22 21 17 14 11 11 9 11 12 15 17 21 18 18 19 21 24 25 24 24 24 25 25 25 24 23 24 23 24 25 24 24 25
3 3 2 2 2 1 1 0 0 0 3 7 9 12 12 13 15 18 20 21 17 18 19 17 15 12 13 12 11 15 15 15 17 18 22 23 27 29 27 25 29 28 29 27 27 26 26 26 25 25 26 26 26 27
3 3 3 3 2 1 1 1 0 2 4 8 10 14 13 22 25 29 30 21 18 16 14 15 17 10 16 13 11 14 17 17 17 19 22 28 27 26 26 29 32 31 29 29 29 30 28 27 28 28 27 28 28 26
3 3 6 2 2 1 0 0 2 3 5 7 11 15 23 21 27 27 29 25 20 14 17 15 16 13 14 12 13 15 17 21 19 28 29 26 26 27 31 33 32 31 32 32 31 31 29 29 29 28 27 28 27 25
2 5 2 1 1 0 -0 5 5 9 11 13 18 22 20 17 18 25 25 21 16 17 20 15 15 16 13 16 19 20 20 23 29 28 27 28 30 33 34 35 34 34 33 33 35 33 32 31 31 32 30 29 26 24
10 5 1 0 1 2 7 8 10 13 17 20 19 28 28 30 29 27 25 18 16 15 15 15 14 17 19 21 22 23 29 35 35 33 31 33 35 37 38 35 33 34 34 33 33 33 36 33 31 28 26 24 24 24
3 2 0 -0 1 6 10 14 13 18 26 29 25 23 26 28 23 22 23 19 19 19 17 17 16 20 22 29 32 37 39 36 33 30 31 33 32 35 35 35 34 35 34 35 34 30 27 26 25 24 24 23 24 24
2 1 0 -0 2 8 13 15 13 18 26 24 24 26 25 23 24 25 22 19 19 19 17 19 23 31 29 32 33 33 32 30 34 36 34 29 29 35 32 34 32 33 32 31 27 24 25 26 25 25 24 24 24 24
5 5 4 7 10 12 14 15 19 18 20 22 21 21 24 23 26 25 24 24 20 21 26 36 38 39 41 41 39 37 31 30 34 34 33 33 31 32 32 32 32 32 28 27 27 27 26 27 26 25 25 25 24 24
9 6 9 9 12 15 17 17 19 19 22 25 23 23 24 23 25 27 27 26 29 33 35 36 39 40 39 37 37 40 39 40 41 35 31 31 31 30 31 31 29 28 27 28 28 28 28 27 26 26 26 26 24 25
11 11 14 14 15 17 21 17 21 22 22 24 25 24 26 28 31 25 27 35 36 36 42 42 42 45 39 42 42 41 42 38 37 35 32 30 27 27 26 27 27 28 28 27 27 28 28 27 27 27 27 27 27 28
15 22 23 22 20 23 23 24 22 24 26 29 31 33 34 36 30 31 32 39 37 39 40 40 41 37 37 37 37 36 35 36 35 34 32 28 27 28 27 26 26 27 27 27 28 28 28 28 28 28 29 30 31 31
20 30 28 30 29 25 27 31 32 29 31 35 33 33 33 37 33 34 33 36 40 41 39 43 41 37 37 40 37 37 36 34 31 32 29 27 27 27 26 26 26 26 27 28 29 30 30 30 30 30 30 33 33 33
34 36 33 40 34 32 35 34 36 35 37 35 37 39 42 37 34 31 34 37 41 38 37 34 33 36 35 34 32 31 29 27 28 28 27 26 26 27 29 28 29 28 28 30 31 32 31 30 32 31 30 30 31 34
35 37 36 37 36 37 36 37 38 36 36 34 38 37 36 33 34 31 35 35 35 36 33 29 28 29 31 32 29 28 27 26 26 26 27 27 26 26 27 28 28 27 28 29 30 31 32 32 31 31 31 32 37 38
39 41 36 38 39 43 40 41 39 37 37 38 37 33 32 31 31 31 30 31 34 33 32 31 30 30 29 26 26 24 25 26 28 27 27 27 27 27 27 26 26 22 25 27 28 29 31 32 32 32 32 31 31 37
38 42 41 37 38 35 38 37 38 40 39 41 35 35 34 34 35 37 33 30 33 30 30 29 28 28 26 25 26 25 26 27 28 28 30 29 28 26 27 27 27 28 29 30 26 24 27 30 30 30 29 31 33 40
38 42 35 37 35 35 39 43 43 47 47 44 44 37 37 37 37 38 35 33 31 30 31 30 29 26 26 27 28 28 31 29 27 27 30 30 29 31 35 34 32 32 36 39 32 32 29 32 34 36 36 35 36 36
47 47 41 42 38 43 47 52 53 52 50 50 53 45 41 42 38 39 36 35 33 33 31 32 34 38 34 36 36 35 31 33 34 32 32 33 34 34 33 32 31 34 37 36 35 36 35 36 38 36 35 34 33 32
47 47 42 37 39 46 51 51 52 47 50 47 44 53 43 40 36 34 36 39 39 37 34 36 37 31 33 31 36 35 30 34 36 32 32 30 29 29 28 29 31 35 35 33 33 34 35 35 33 32 31 32 32 32
48 52 53 46 42 41 46 46 45 43 46 45 45 50 50 44 36 33 35 40 36 36 35 34 34 37 36 34 32 30 28 30 30 24 23 23 24 25 27 28 30 31 32 31 31 31 32 32 31 31 31 31 30 30

GFSWCAN_con_lsi_003.txt.gz
Lid_Strength_Index
2 1 1 1 1 2 1 1 2 1 1 1 1 1 1 1 1 3 6 6 7 10 11 11 10 13 13 15 18 18 17 17 17 23 25 18 22 17 19 17 17 18 24 28 29 27 24 14 14 17 15 13 13 13
2 2 2 1 1 1 1 1 1 1 1 1 2 1 2 2 1 1 6 5 4 8 11 9 8 8 8 9 12 17 14 19 13 18 21 19 23 21 20 23 15 19 16 21 19 20 13 12 12 10 9 11 11 12
2 2 2 2 2 2 1 1 1 1 1 2 2 1 1 2 1 2 5 5 5 8 8 9 10 8 7 6 6 11 15 10 10 9 13 13 17 15 23 21 18 15 13 15 15 13 12 11 9 9 10 10 10 10
2 2 2 2 2 2 2 2 1 1 1 1 1 1 1 1 1 1 4 2 4 6 10 11 9 9 6 5 6 6 7 8 8 8 10 13 18 11 15 14 15 13 14 15 15 12 11 11 10 9 9 9 10 11
1 1 1 1 1 1 1 1 1 1 1 1 0 0 0 -0 -0 1 2 2 1 5 9 9 10 9 6 6 7 6 7 8 8 10 11 13 13 11 14 12 14 11 13 14 15 11 11 11 9 10 10 10 12 12
1 1 1 1 1 1 1 1 0 0 0 -0 -0 -0 -1 -1 -1 2 5 2 1 1 6 10 9 12 9 8 7 7 7 7 7 9 10 11 10 10 14 17 12 10 9 9 11 9 9 8 12 12 12 13 13 13
1 1 1 1 1 1 1 0 0 0 -0 -0 -1 -1 -1 -1 1 4 7 4 0 1 6 10 12 12 10 10 12 10 8 8 8 9 11 11 11 9 12 15 11 9 9 9 9 12 11 11 13 14 13 14 14 15
2 2 2 2 1 1 1 0 0 0 -0 -0 -1 -1 -1 -1 -1 3 2 0 1 4 6 11 13 18 12 15 14 9 10 9 9 10 12 12 11 10 14 12 9 9 9 13 15 15 15 15 14 15 15 16 17 17
2 2 2 2 2 2 1 1 1 0 -0 -0 -1 -1 0 2 5 5 -0 -1 1 4 9 11 15 19 11 13 11 13 9 13 9 12 12 12 17 16 13 10 10 11 14 16 17 17 17 17 17 18 19 19 20 19
3 3 3 2 2 2 2 1 1 1 0 -0 1 4 6 5 0 0 3 5 5 6 7 11 21 19 12 14 16 14 12 14 16 13 10 13 15 11 11 17 17 18 19 18 19 20 21 22 20 20 20 19 19 19
3 3 3 3 3 2 2 1 1 1 0 3 5 6 5 0 5 6 8 10 10 11 8 13 16 19 13 15 14 10 12 12 15 17 16 26 24 13 18 19 18 19 19 21 21 21 21 21 22 21 21 21 21 21
3 3 3 3 3 3 2 1 1 2 4 4 4 3 4 6 8 10 11 11 15 17 19 18 16 12 11 10 12 11 13 12 16 23 20 25 17 18 20 21 21 22 23 23 23 23 22 21 22 23 23 23 23 23
3 3 3 3 3 3 2 1 1 1 1 4 5 8 8 9 13 14 16 20 22 24 21 18 15 12 10 9 10 11 14 15 21 19 20 19 19 24 25 24 24 24 24 25 24 24 24 24 24 25 25 24 25 25
3 3 3 3 3 2 2 1 1 1 4 7 9 12 12 14 12 16 17 17 16 17 17 16 18 13 11 11 10 14 14 16 19 22 23 19 26 28 26 26 28 27 28 27 29 28 27 26 26 26 26 26 27 28
3 3 3 3 2 2 2 1 0 1 4 8 8 13 12 20 26 29 31 21 22 17 14 15 16 9 12 12 10 13 17 19 20 20 20 27 27 27 27 28 30 28 30 31 31 32 29 28 29 29 29 29 30 29
3 3 6 3 3 2 1 1 2 3 5 7 11 14 19 19 24 25 29 20 20 15 17 14 15 13 14 13 14 16 19 22 17 25 30 26 28 28 29 29 29 33 34 33 33 34 30 30 30 30 31 30 30 30
3 10 3 2 2 1 1 4 4 11 10 13 17 20 18 16 15 18 19 18 15 16 17 16 17 16 13 15 17 21 19 20 30 33 28 28 27 28 29 36 35 35 34 35 37 36 35 33 37 37 33 29 30 27
7 6 2 1 2 4 9 10 10 12 17 19 15 20 22 24 23 22 22 17 15 16 17 17 14 17 19 21 23 23 31 34 31 28 27 30 33 37 38 36 36 37 35 35 37 36 38 35 33 30 31 29 25 23
4 3 1 0 2 8 10 15 13 18 24 26 23 22 22 24 22 23 23 18 19 19 17 17 16 17 20 26 29 34 36 30 30 28 30 34 32 36 36 37 36 36 36 36 36 34 32 32 29 27 24 23 24 23
3 2 2 2 3 9 14 16 14 18 21 22 26 27 25 25 24 25 24 19 18 18 17 20 20 28 27 30 30 33 31 30 32 35 33 30 30 36 34 35 32 35 35 35 34 28 30 27 25 24 24 24 24 24
6 6 4 7 10 13 15 17 21 20 21 24 24 23 26 26 29 29 26 22 19 18 21 31 34 32 35 40 39 38 31 30 34 33 32 33 31 33 34 34 35 35 34 34 33 28 26 26 26 25 25 25 24 24
10 6 10 7 12 16 18 19 20 18 22 27 24 25 29 29 29 27 25 23 23 30 28 30 33 39 39 37 38 42 40 40 41 35 32 32 30 29 29 29 28 31 31 29 27 27 27 26 26 26 26 26 25 25
10 10 13 13 16 19 22 19 25 25 23 27 26 23 27 27 28 23 22 28 31 35 41 41 43 46 41 44 45 44 44 38 39 38 36 33 30 29 27 27 27 28 27 26 26 27 27 26 26 27 27 27 27 28
15 21 22 23 20 23 23 24 22 26 26 25 24 25 28 30 29 26 25 34 36 40 42 42 43 38 38 38 39 39 40 41 39 39 38 35 33 29 27 26 27 27 26 26 26 27 27 27 27 27 27 29 29 30
20 29 26 28 27 27 27 27 26 24 25 29 28 29 33 39 33 34 32 35 40 41 40 45 43 38 37 42 40 39 40 34 32 34 33 31 29 28 27 26 26 26 26 27 27 28 28 28 29 29 29 30 31 31
32 35 33 40 32 29 30 28 30 31 35 35 36 38 41 34 31 29 34 36 40 39 39 35 34 38 37 35 31 31 30 30 29 29 28 26 26 27 27 28 27 26 26 27 29 30 29 29 30 30 29 29 29 30
35 37 36 36 35 35 34 35 36 36 36 34 37 36 36 32 32 30 35 35 35 37 36 33 31 30 29 32 32 30 29 25 26 26 27 27 26 26 26 27 27 26 26 27 29 30 30 31 30 30 30 29 30 31
39 41 36 38 39 43 38 39 37 36 37 39 38 33 31 30 30 29 30 29 37 37 33 32 30 30 30 28 26 24 25 25 26 26 26 26 26 26 26 25 25 21 27 27 27 28 29 30 30 31 31 31 29 32
35 41 41 37 38 38 40 39 39 41 39 41 34 31 30 30 33 35 29 32 35 31 30 29 29 30 28 26 24 25 25 26 27 27 29 28 28 26 27 27 27 27 27 28 25 23 27 28 28 29 29 29 30 37
35 40 32 31 31 32 37 40 42 47 47 44 44 36 34 35 35 36 39 37 33 32 32 30 28 26 26 26 26 28 31 30 29 28 31 31 30 32 36 34 33 32 34 37 31 30 27 29 32 35 34 34 35 34
46 47 41 41 37 41 45 50 53 52 51 51 55 46 42 42 37 39 36 36 36 35 32 31 31 30 28 29 33 34 31 34 35 33 33 33 33 33 32 32 31 33 34 34 33 34 32 34 35 35 35 34 33 31
46 48 42 38 40 47 52 52 53 48 50 46 44 52 42 38 32 30 31 34 33 31 29 32 33 30 33 34 37 37 31 34 32 29 29 29 29 29 28 28 31 34 35 33 33 33 34 34 33 32 31 32 32 32
40 43 43 41 40 40 46 47 45 43 46 46 44 51 51 43 32 31 33 37 34 36 36 36 35 37 35 34 33 31 27 27 27 23 22 23 24 24 26 28 29 31 31 31 31 31 32 32 31 31 31 30 30 30

GFSWCAN_con_lsi_006.txt.gz
Lid_Strength_Index
2 2 1 1 1 1 1 1 1 1 1 0 1 1 1 1 1 3 4 3 6 9 9 9 9 11 11 11 13 14 13 14 14 16 17 16 17 16 16 15 15 15 16 17 18 18 19 10 11 13 10 8 8 9
2 2 2 2 1 1 1 1 1 1 1 1 1 1 0 0 1 1 5 4 4 8 9 7 7 7 7 8 9 13 11 14 11 13 15 14 16 16 15 17 13 16 13 14 15 14 10 9 9 8 7 8 8 8
2 2 2 2 2 1 1 1 1 1 1 1 1 1 1 1 1 1 4 5 6 9 9 9 10 7 7 6 5 10 11 8 10 7 11 11 14 12 16 15 13 12 10 13 12 11 10 9 7 7 7 7 7 7
1 1 2 2 2 2 2 1 1 1 1 1 1 1 1 1 1 1 4 4 5 7 11 9 8 8 5 4 5 5 5 7 6 7 9 11 13 10 12 12 13 11 11 12 12 11 9 9 8 7 7 7 7 8
2 2 1 1 1 1 1 1 1 1 1 1 1 1 1 1 1 1 2 3 3 6 9 9 9 8 6 5 5 4 5 6 7 9 10 11 9 10 9 10 13 10 11 13 13 9 9 10 7 6 8 8 9 10
1 1 1 1 1 1 1 1 1 0 0 0 0 0 0 -0 -0 2 6 3 2 3 6 9 6 8 7 5 5 5 6 6 7 8 9 8 8 9 12 14 10 9 8 8 10 8 7 7 6 8 10 11 12 13
1 1 1 1 1 1 1 1 1 1 0 -0 -0 -0 -1 -1 0 5 5 3 0 1 6 9 9 9 9 7 6 6 6 6 7 8 9 9 9 8 11 14 10 8 8 8 7 8 9 8 9 12 12 14 14 15
2 2 1 1 1 1 1 1 1 1 1 0 -0 -1 -1 -1 -1 3 1 -0 -0 3 5 9 10 12 9 10 10 7 8 7 8 8 9 10 9 9 12 10 8 8 8 8 8 11 11 13 13 14 15 16 16 16
2 2 2 2 1 1 2 1 1 1 1 0 -0 -1 0 2 4 4 -0 -1 0 3 8 9 12 14 10 10 9 10 8 11 8 11 10 9 11 14 11 10 9 9 9 9 15 15 15 15 15 16 17 17 17 17
3 3 2 2 2 2 2 2 2 1 1 0 1 4 6 5 -0 0 3 5 6 6 6 10 12 12 10 11 12 11 10 11 13 12 9 11 12 9 9 8 11 14 15 15 16 17 18 18 17 17 18 18 18 18
3 3 3 3 3 3 2 2 2 1 1 4 6 7 4 1 4 6 8 9 8 9 8 10 11 13 10 13 12 10 11 11 14 12 12 14 16 11 8 14 16 17 18 19 19 19 19 19 19 19 19 19 19 20
3 3 3 3 3 3 3 2 2 3 4 4 4 3 4 6 7 10 11 10 10 12 13 12 13 9 10 8 10 10 12 12 15 14 14 16 14 13 17 19 20 20 20 22 22 21 21 20 20 21 22 22 21 21
3 3 3 2 2 2 2 2 2 2 1 4 5 7 7 8 12 14 15 15 15 17 15 14 12 10 9 8 10 10 13 14 15 15 16 15 14 20 22 22 24 24 23 23 23 23 23 23 23 23 23 23 23 23
3 2 2 2 2 2 2 2 2 1 4 7 9 12 11 12 12 13 14 14 12 13 14 13 13 11 10 11 10 13 13 15 17 18 18 13 17 23 24 24 25 26 26 25 25 25 25 25 24 24 25 24 25 26
3 3 2 2 2 2 2 1 1 2 4 8 9 13 12 16 19 20 21 14 14 11 11 13 13 10 12 12 11 13 17 17 16 17 14 17 23 25 25 26 26 27 26 26 26 27 26 26 26 26 26 27 26 27
3 3 5 2 2 2 2 2 3 3 5 7 11 15 19 17 19 21 21 18 18 11 11 11 12 13 14 13 14 15 17 19 15 15 20 24 26 26 27 27 27 28 28 27 27 28 27 27 27 26 28 27 27 26
4 7 3 2 2 3 3 4 5 11 12 13 15 20 18 15 15 18 17 16 14 12 13 12 14 14 12 14 16 15 16 13 19 25 25 25 25 26 28 28 27 27 28 29 28 29 29 28 31 30 27 23 25 24
10 6 2 2 3 6 13 12 11 12 17 19 16 20 21 23 21 21 19 16 12 12 12 12 12 14 15 18 18 16 23 28 27 25 25 27 28 30 29 27 30 30 29 30 31 30 30 30 27 24 26 23 24 23
5 4 1 1 5 8 11 14 13 17 21 23 21 21 22 22 21 20 20 17 16 16 14 13 14 16 16 16 17 25 27 25 26 26 26 28 27 28 29 31 30 29 30 28 27 25 26 27 26 24 23 22 22 21
4 3 3 4 5 9 14 17 15 17 20 21 22 22 23 23 23 22 20 17 15 15 15 15 15 19 20 24 26 26 26 26 26 27 27 26 27 30 28 27 26 28 27 28 27 26 25 24 23 23 22 22 23 23
8 7 5 8 12 13 15 18 21 20 21 23 22 22 24 24 27 25 22 20 17 16 18 25 27 31 32 33 32 28 25 25 25 23 25 27 27 27 28 28 29 28 26 27 27 26 26 25 24 23 24 24 23 23
12 7 11 7 14 16 17 17 19 19 22 24 24 24 26 27 28 27 24 22 20 26 28 27 28 28 28 27 29 32 32 33 33 29 29 27 28 27 27 26 26 26 26 26 25 25 24 24 24 24 25 25 24 24
11 10 13 15 17 18 22 19 23 24 24 24 24 23 26 26 26 23 22 25 28 31 33 32 33 36 31 36 39 39 40 34 31 30 30 28 28 28 26 27 26 26 26 25 24 24 25 24 25 25 25 25 26 26
15 21 21 22 21 24 23 23 22 25 26 28 24 28 28 27 27 25 24 29 31 33 33 34 36 33 35 36 33 33 34 36 33 33 33 29 28 28 28 27 26 25 25 25 25 25 25 25 25 25 26 26 26 27
19 28 26 27 25 25 27 25 25 24 30 33 28 27 28 34 27 27 29 31 35 36 36 41 39 34 32 35 34 35 41 33 29 30 31 31 29 27 27 26 25 24 24 25 25 25 26 26 26 26 27 27 27 27
30 34 33 39 31 28 28 27 29 30 31 28 30 35 40 34 30 29 32 33 36 35 36 34 33 35 34 33 31 31 30 32 32 29 28 27 26 27 26 26 26 24 24 24 25 26 26 26 27 27 27 27 27 28
34 35 35 35 33 33 32 33 33 30 32 33 37 35 34 31 31 30 32 32 33 35 35 33 31 31 30 30 30 31 32 28 27 26 25 25 24 24 25 26 25 24 24 25 26 27 27 27 28 28 28 27 27 27
39 41 37 37 38 42 33 32 30 30 31 35 36 31 29 31 31 31 31 29 35 36 37 36 32 30 30 27 27 26 26 25 25 26 25 25 25 25 25 24 24 20 24 24 25 26 27 27 27 28 28 28 28 27
34 37 40 36 39 38 40 38 38 39 37 40 35 33 32 33 34 34 30 30 32 31 32 31 30 29 27 25 25 25 25 24 24 25 26 25 25 24 27 27 27 27 26 26 23 22 26 27 27 28 27 27 27 29
38 40 33 32 33 34 37 39 40 45 45 42 41 35 31 31 32 32 33 31 30 31 30 29 28 25 25 25 25 26 26 28 27 26 27 28 27 29 33 32 30 30 29 30 28 27 25 26 28 32 30 30 30 30
45 46 40 40 36 39 42 45 46 46 45 47 52 44 40 40 35 32 32 33 33 32 28 27 28 27 25 26 28 29 28 31 34 30 30 30 30 30 29 28 28 29 31 31 30 31 30 30 31 32 32 32 31 30
43 46 42 37 39 47 53 53 53 49 51 45 42 49 39 35 29 28 29 30 29 29 27 28 27 26 27 27 30 32 30 33 34 31 29 27 27 27 26 27 29 31 31 30 31 31 31 32 31 30 30 30 30 30
38 38 37 35 35 35 41 43 41 41 43 44 44 51 50 41 31 29 30 34 32 31 30 30 30 31 31 33 33 32 30 29 26 22 21 21 21 22 25 27 28 29 30 29 29 29 30 31 30 30 30 30 30 30

GFSWCAN_con_lsi_009.txt.gz
Lid_Strength_Index
2 2 2 1 1 1 1 1 1 1 1 0 1 1 1 1 1 2 3 2 5 8 7 8 8 9 9 9 11 13 12 12 12 14 15 15 16 15 16 14 15 15 16 16 15 17 19 9 10 12 9 7 7 8
2 2 1 1 1 1 1 1 1 0 0 1 1 1 0 0 0 1 5 3 2 6 7 5 5 5 6 7 8 11 10 12 11 13 12 12 15 14 15 18 12 16 13 13 13 13 9 8 8 7 6 7 7 7
1 1 1 1 2 2 1 1 1 1 1 1 1 0 0 0 0 1 3 4 5 8 8 8 8 6 5 5 5 10 9 8 9 8 9 11 14 12 15 15 12 10 9 12 11 10 9 8 6 6 6 7 6 6
1 1 1 1 1 1 1 1 1 1 1 1 1 1 0 -0 0 0 3 3 4 6 10 9 7 6 4 5 5 5 6 7 7 8 9 11 13 10 11 10 10 10 9 11 11 9 9 8 7 7 6 6 7 6
1 1 1 1 1 1 1 1 1 1 1 1 1 1 1 1 1 1 2 3 2 7 10 9 8 6 5 5 5 5 6 6 7 9 9 11 8 9 9 9 11 9 10 11 12 8 9 9 7 6 7 7 7 8
1 1 1 1 1 1 1 1 1 0 1 0 0 0 1 0 -0 2 6 2 3 3 7 10 5 8 7 5 5 6 5 5 6 7 8 7 6 8 11 12 9 8 7 6 8 7 7 7 6 6 7 8 9 10
2 2 2 1 1 1 1 1 1 1 0 0 -0 -1 -1 -1 0 4 6 3 1 1 6 9 8 8 7 6 6 5 4 5 6 7 8 7 8 7 10 13 9 7 7 6 6 7 8 7 8 8 10 11 13 14
2 2 2 2 1 1 1 1 1 1 1 0 0 -0 -1 -1 -0 3 1 0 -0 4 5 9 9 9 7 10 9 6 7 7 6 7 7 8 7 8 12 9 8 7 6 6 6 6 7 9 10 12 13 14 15 14
3 3 2 2 2 2 2 1 1 1 1 1 0 0 0 2 5 4 -1 -1 -0 4 8 8 10 12 8 8 7 9 7 10 6 9 9 8 10 12 10 9 8 7 7 7 7 13 13 13 12 13 14 15 16 15
2 3 3 2 2 2 2 2 1 1 1 1 2 5 6 5 -0 -0 3 5 5 5 6 9 6 10 8 9 10 9 9 10 12 10 8 10 11 8 7 7 7 7 10 11 13 14 16 16 15 14 16 16 17 17
3 3 3 2 3 2 2 2 2 2 1 3 6 6 3 1 3 5 8 9 8 9 7 7 7 11 8 10 10 8 10 10 14 11 11 12 13 9 7 7 8 12 13 15 15 16 17 17 15 16 17 18 18 18
3 3 3 3 3 3 2 2 2 3 3 3 3 3 4 5 7 9 10 9 9 11 9 10 9 7 9 7 10 10 11 11 14 10 12 14 10 9 10 14 16 16 17 19 19 19 19 19 19 19 20 20 20 20
3 3 3 3 3 2 2 2 2 2 2 3 5 6 7 7 11 12 13 12 12 12 11 10 11 8 9 8 9 10 13 14 12 13 14 11 10 14 17 19 22 21 21 21 22 21 21 22 22 22 22 21 21 22
3 3 3 2 2 2 2 2 2 2 4 7 8 11 10 11 11 11 10 9 8 8 10 8 10 10 9 11 10 13 12 14 15 16 15 10 10 17 20 20 23 23 23 22 23 23 23 23 23 22 23 23 24 24
3 3 2 2 2 2 2 2 1 2 5 8 8 12 11 11 14 15 16 12 11 8 10 11 10 9 10 11 10 13 16 16 15 14 10 9 18 22 23 23 23 24 24 24 24 25 24 24 24 24 23 25 24 25
3 3 3 2 2 1 1 2 2 3 4 7 9 13 15 11 13 16 15 13 14 9 9 8 11 12 13 11 13 14 16 17 12 11 15 20 23 23 24 24 24 25 25 25 25 25 24 25 25 24 26 26 25 25
4 5 3 3 2 3 2 3 4 8 10 11 14 15 16 11 9 11 12 12 11 9 11 11 13 14 11 13 14 12 13 10 13 18 20 21 22 24 26 26 27 27 26 26 26 26 26 26 29 28 26 22 24 22
7 5 3 2 4 6 10 10 10 11 16 17 15 18 18 19 17 16 16 13 11 10 10 11 11 14 14 15 14 11 15 23 22 21 22 24 25 25 25 24 27 27 26 28 28 28 28 29 25 22 24 22 23 22
6 4 3 2 4 8 10 13 12 14 19 19 19 19 19 20 19 19 17 14 14 14 11 11 12 13 12 11 13 18 20 20 22 23 24 25 25 27 27 27 27 27 27 26 25 23 23 25 24 23 22 21 21 20
5 4 4 5 5 10 13 15 13 14 17 18 18 19 20 20 20 19 18 16 14 12 12 13 12 15 16 21 23 22 21 22 23 24 24 24 24 26 25 25 23 24 25 26 25 25 23 22 22 22 22 22 22 21
8 7 6 8 11 13 15 16 18 18 18 19 19 19 20 20 21 19 18 18 15 14 14 21 23 26 28 28 27 24 24 21 22 20 21 23 24 23 25 25 25 24 23 23 23 23 24 23 23 22 22 22 22 22
10 7 9 9 13 15 16 16 17 18 19 21 19 20 20 20 21 22 22 18 17 24 26 25 25 26 26 26 28 29 28 26 25 24 24 23 25 25 25 24 24 24 24 23 24 24 24 23 22 22 23 23 23 23
11 10 13 14 16 16 20 16 19 20 19 21 20 20 22 22 23 21 20 21 24 29 30 29 30 31 28 30 30 30 30 25 25 25 25 24 23 23 23 24 23 24 24 24 24 24 24 23 23 23 23 23 23 24
15 20 21 21 19 22 19 20 19 20 20 21 20 21 23 24 24 21 19 22 27 28 28 29 28 26 27 27 26 26 28 28 27 27 26 24 24 24 23 23 24 24 24 24 24 23 23 23 24 24 24 24 24 25
18 28 25 25 23 21 21 21 21 20 23 25 23 24 26 29 22 21 22 23 25 27 28 31 29 27 26 27 27 28 35 27 25 25 26 25 24 24 25 24 24 24 23 24 24 24 23 24 24 24 25 25 26 26
29 32 29 30 26 25 25 22 24 24 23 23 26 29 29 25 22 25 25 25 26 27 28 28 27 27 26 27 26 26 26 29 26 24 24 26 25 23 24 25 25 23 22 22 23 24 24 24 25 25 25 25 25 26
29 31 31 31 30 28 27 27 27 25 26 26 28 27 26 25 27 25 25 26 26 26 28 27 26 25 24 25 25 25 26 26 25 23 22 22 22 22 22 23 23 22 22 22 23 23 24 24 25 25 25 25 25 26
33 34 34 32 32 33 30 28 27 28 28 31 31 27 27 28 28 26 25 25 28 29 29 28 27 25 24 23 23 23 24 23 23 22 22 22 22 22 22 22 22 19 22 22 23 23 24 25 25 25 25 26 25 24
31 33 34 31 33 31 34 32 31 33 34 33 29 27 28 27 28 28 26 27 27 26 26 26 26 25 23 22 22 21 21 22 22 23 23 22 22 22 24 24 24 23 23 23 21 21 23 25 25 25 25 25 24 25
33 37 31 28 28 30 34 36 35 38 39 38 38 33 29 27 27 28 29 28 26 26 26 25 24 24 22 22 22 22 21 21 22 22 24 25 24 25 26 26 25 25 25 25 25 24 22 22 24 27 26 27 27 27
39 37 33 32 31 34 37 41 41 40 39 38 41 36 31 33 30 28 28 28 29 28 26 24 24 23 23 22 22 22 22 24 27 29 28 28 27 27 26 25 24 24 25 26 26 27 27 28 28 29 29 29 29 29
35 36 35 31 32 38 41 40 39 37 38 35 34 37 32 30 25 24 26 26 25 25 25 25 24 23 24 24 24 25 26 26 27 27 29 27 25 24 23 23 24 26 27 27 28 28 29 30 29 29 28 29 29 29
33 34 33 32 30 30 33 34 32 32 33 33 34 39 38 34 27 25 25 28 28 28 27 27 27 27 27 28 27 27 27 27 25 21 19 19 19 19 19 21 23 25 26 27 26 27 28 29 29 29 29 29 29 29

GFSWCAN_con_lsi_012.txt.gz
Lid_Strength_Index
1 1 1 2 2 1 1 1 1 1 1 1 1 1 2 2 2 3 5 4 7 11 10 9 9 11 11 11 14 15 15 15 15 18 19 16 20 17 19 17 18 19 23 24 24 26 24 13 13 15 13 10 10 9
2 1 1 1 1 1 1 1 1 1 1 1 1 1 1 1 1 1 5 3 3 7 9 7 6 6 7 7 10 14 13 15 12 15 16 16 21 18 20 25 15 20 17 20 18 18 12 10 10 8 8 10 9 9
2 1 1 2 1 1 1 1 1 1 1 1 1 1 1 1 0 1 4 4 5 9 9 9 9 6 5 6 5 12 11 10 11 10 14 16 21 15 23 20 18 15 14 16 16 13 11 9 8 8 8 9 8 9
1 1 1 1 1 1 1 1 1 1 1 1 1 1 1 1 1 0 4 4 5 7 11 11 6 7 5 5 6 6 7 8 9 10 14 15 18 13 16 14 15 14 13 15 14 10 9 9 8 8 7 7 8 8
1 1 1 1 1 2 2 2 1 1 1 1 1 1 1 1 0 1 2 2 3 6 10 11 10 7 5 5 6 7 8 9 10 11 14 15 13 12 11 11 14 11 12 13 13 9 9 9 8 8 8 9 9 9
1 1 1 1 1 1 2 1 1 1 1 1 0 -0 -0 -0 0 2 7 2 2 3 8 11 9 11 8 6 7 8 8 8 9 11 11 11 9 9 12 13 11 9 8 8 9 7 7 7 8 8 8 9 9 10
1 1 1 1 1 1 2 2 1 1 1 1 0 0 -0 -1 0 5 7 4 1 2 7 10 9 10 8 8 9 8 7 8 7 8 9 9 10 8 10 13 10 9 8 7 7 7 9 8 8 9 9 11 12 13
1 1 1 1 2 2 2 2 1 1 1 1 1 0 0 -0 -0 3 2 1 0 4 6 10 11 12 9 10 10 7 8 6 7 8 9 9 8 8 12 10 9 8 7 7 7 7 8 10 11 12 12 14 16 15
1 1 1 2 2 2 2 2 1 1 1 1 1 0 2 3 6 5 -0 -1 1 4 8 9 13 14 9 9 8 9 7 10 7 10 10 8 10 12 11 9 8 8 8 8 8 13 14 14 13 13 15 16 17 16
1 1 2 2 2 2 2 1 1 1 1 1 2 6 7 5 0 1 3 5 5 6 6 9 9 12 9 10 11 11 10 11 13 12 9 11 12 9 8 7 7 10 9 11 15 16 19 18 16 15 17 17 17 17
1 1 1 2 2 2 2 2 1 1 2 4 6 7 5 1 3 5 8 9 8 10 8 9 9 14 10 13 12 9 13 12 15 16 14 16 18 11 8 7 7 9 12 16 15 16 17 18 17 17 18 19 19 20
2 2 2 2 2 2 2 2 2 3 4 4 4 4 4 5 7 9 10 11 10 12 10 12 10 7 9 8 11 11 12 12 15 16 16 17 15 10 11 14 16 16 17 20 19 19 19 18 19 20 21 22 22 22
2 2 2 2 2 2 2 2 2 2 2 4 6 8 8 9 12 12 15 12 17 12 13 15 12 10 9 9 10 11 14 14 14 14 18 18 14 17 19 20 23 23 22 22 22 22 22 22 23 25 25 25 25 25
2 3 3 2 2 2 2 2 2 2 5 8 10 13 12 14 11 12 13 12 13 13 11 10 11 12 10 11 10 14 13 15 17 20 21 18 13 18 22 24 24 25 24 23 25 25 25 25 25 26 27 27 28 29
3 3 3 3 2 2 2 2 1 3 6 9 10 14 14 14 18 21 19 16 15 12 8 10 11 9 11 12 11 14 17 17 18 20 17 16 22 21 23 26 26 26 27 28 29 28 26 27 29 29 30 31 31 30
3 3 4 2 2 2 2 2 3 4 6 8 9 12 14 16 21 21 20 16 15 10 10 9 11 13 13 12 14 16 17 20 18 18 22 23 25 26 25 27 28 28 29 29 31 30 28 30 30 31 34 33 32 31
5 6 3 3 3 4 2 4 5 7 8 10 17 18 15 12 13 18 17 14 12 9 13 12 14 14 11 14 15 13 18 18 21 23 23 24 24 25 28 29 30 31 31 32 33 32 32 33 35 34 33 31 32 30
10 7 4 3 3 6 10 10 9 11 15 17 15 18 20 21 18 17 15 14 13 11 11 12 10 14 15 16 16 15 20 24 23 23 24 26 29 30 27 30 30 31 32 34 34 34 34 34 33 32 33 31 31 29
8 5 4 3 5 9 11 13 14 15 19 20 19 19 19 20 20 19 18 15 14 13 12 11 13 14 15 16 19 21 23 24 24 24 26 27 28 29 30 31 32 33 32 33 34 31 31 32 32 31 29 28 28 28
6 5 6 6 6 11 17 16 14 15 22 20 18 20 19 20 20 21 18 16 15 13 13 13 17 25 24 26 26 25 23 22 23 25 26 26 27 29 29 30 29 31 32 33 33 29 31 30 30 29 30 29 30 30
8 8 7 10 12 14 17 17 20 18 18 20 19 18 20 19 20 19 18 18 15 15 17 23 26 28 28 30 28 27 26 24 25 24 25 26 26 26 27 26 29 32 31 32 31 31 30 31 30 30 30 30 29 24
11 8 12 10 14 15 17 17 18 18 18 21 20 20 23 22 21 23 22 17 22 28 29 28 29 31 31 33 34 33 31 29 27 25 23 23 25 26 27 31 32 33 33 32 32 32 32 30 30 30 29 26 24 23
11 11 14 15 16 19 22 17 20 21 23 23 25 24 26 28 26 22 20 23 27 30 34 35 35 33 33 34 33 31 29 26 26 26 26 25 30 31 30 32 32 32 33 31 31 31 30 26 27 26 24 24 24 24
16 22 21 21 21 24 24 24 19 21 21 23 23 25 28 31 26 25 25 29 31 30 33 34 33 31 29 29 28 26 27 26 26 28 32 32 32 33 33 32 33 32 31 30 30 29 29 27 24 24 24 25 25 25
20 29 26 27 24 26 25 25 23 20 23 24 23 27 30 31 24 22 24 29 28 29 28 29 28 28 29 30 29 31 35 33 31 33 34 35 34 33 33 32 31 30 28 28 29 28 26 25 25 25 25 26 27 26
31 33 32 32 29 28 26 25 25 25 22 22 26 27 34 26 23 26 26 26 27 29 30 32 32 31 32 33 34 34 34 37 36 33 33 33 32 31 30 28 26 25 24 26 26 26 25 25 26 26 26 26 25 26
31 33 33 32 30 28 26 26 26 25 26 26 28 26 26 27 29 30 26 27 30 33 32 33 35 33 33 33 33 34 34 34 30 28 28 28 27 26 25 25 25 25 25 25 25 25 26 25 25 26 26 27 27 26
35 35 36 33 35 32 30 27 27 29 28 30 29 29 30 32 33 30 28 29 34 33 33 34 34 33 32 31 31 29 28 27 26 25 25 24 24 24 25 25 25 18 24 24 24 24 25 25 26 26 26 26 25 25
35 34 34 31 33 32 34 33 32 33 34 33 30 28 30 30 31 32 29 29 28 31 31 28 28 30 27 26 24 23 23 24 24 24 24 24 24 24 25 25 26 25 25 26 21 20 24 25 25 25 25 25 24 28
34 36 32 29 30 33 35 37 37 38 37 37 37 33 30 28 27 27 29 28 29 28 29 28 27 25 23 23 23 23 23 23 22 24 25 25 25 27 29 28 28 28 28 28 25 25 21 24 25 28 29 28 30 30
38 39 35 32 33 36 39 42 42 38 37 36 38 35 31 32 30 28 27 27 28 27 25 24 24 24 24 24 25 25 24 25 25 26 26 27 28 30 29 28 27 28 28 27 27 28 28 30 32 31 31 31 31 30
39 39 36 34 35 42 47 46 46 45 45 40 35 34 31 30 27 26 26 26 26 26 25 25 25 25 25 25 24 24 24 25 25 24 25 25 26 25 25 24 24 25 26 26 26 27 28 29 30 30 30 30 31 31
33 33 33 31 31 31 33 34 32 33 34 34 34 35 34 32 28 26 23 26 27 28 28 27 27 26 26 26 26 25 24 25 25 20 19 19 20 20 20 20 21 23 24 25 26 26 27 28 28 29 30 30 30 29

GFSWCAN_con_lsi_015.txt.gz
Lid_Strength_Index
1 1 1 1 1 1 2 1 1 1 1 1 2 2 2 2 2 4 7 7 10 15 12 11 11 12 12 13 16 16 16 16 17 22 21 17 22 17 20 18 19 19 22 26 28 30 25 14 15 17 15 12 13 13
1 1 1 1 1 1 1 1 1 1 1 1 1 1 1 1 1 2 6 5 6 10 12 8 8 8 9 9 13 17 15 18 14 18 20 19 24 22 22 25 16 20 17 21 19 20 14 13 13 11 10 12 11 11
1 1 1 1 1 1 1 1 1 1 1 1 1 1 1 1 1 1 4 4 5 9 9 9 12 7 6 7 8 14 15 11 11 11 16 18 22 17 24 23 19 16 15 17 18 15 14 12 10 10 9 9 9 9
1 1 1 1 1 1 1 1 1 1 1 1 1 1 1 1 1 1 4 4 5 8 12 13 8 9 6 6 7 8 9 9 10 11 16 19 22 13 19 16 17 15 15 18 17 13 12 11 10 9 9 8 9 9
1 1 1 1 1 1 1 1 1 1 1 1 1 1 1 0 0 1 2 3 3 7 12 15 13 9 6 6 7 7 9 10 11 14 18 18 15 15 17 14 17 13 14 15 15 11 11 10 9 9 9 9 9 9
-1 -0 0 1 1 1 1 1 2 2 2 1 1 1 1 -0 -0 2 7 3 3 3 8 12 10 13 9 7 8 8 8 9 9 11 12 13 11 12 16 21 12 11 10 9 11 8 8 8 8 8 9 9 9 9
-1 -1 -0 0 0 1 1 1 1 2 2 2 1 1 1 0 1 5 6 4 1 2 7 10 10 12 9 9 11 10 8 8 8 9 11 12 12 9 12 18 12 10 9 8 8 8 9 9 9 9 9 9 11 13
-1 -1 -0 0 0 0 1 1 1 2 2 2 1 1 1 0 1 4 2 1 0 5 7 10 12 13 9 9 10 8 8 8 8 8 10 11 9 9 13 12 9 8 8 9 9 8 8 8 11 11 12 13 15 14
-0 -1 -1 0 0 0 1 1 1 2 2 1 1 1 2 5 7 6 0 -0 1 4 9 10 13 17 8 9 8 9 7 10 7 9 10 9 13 14 12 10 9 8 8 8 7 12 12 11 10 13 14 16 15 15
-0 -1 -1 0 1 1 1 1 1 1 1 1 2 6 8 6 1 1 4 6 6 6 6 10 16 13 10 12 13 11 10 11 13 11 9 11 12 9 8 8 8 8 9 11 14 14 19 17 15 14 15 16 16 16
0 -0 0 1 1 1 1 2 1 1 1 4 6 7 6 1 5 6 9 9 14 15 9 12 11 14 12 15 16 10 13 11 14 14 13 15 18 11 8 8 7 7 9 12 13 15 15 15 15 16 17 18 18 19
1 0 0 1 1 1 1 1 1 2 4 4 4 3 4 6 7 10 12 14 15 16 15 12 15 12 11 10 11 11 13 13 16 14 15 17 14 10 11 9 9 13 15 19 19 18 18 17 18 18 20 21 23 22
1 1 1 1 1 1 1 1 1 1 2 4 6 9 9 9 13 14 21 14 21 15 14 18 15 11 9 9 11 12 14 15 13 14 16 17 15 14 11 18 21 22 22 22 22 22 22 23 24 25 25 25 25 26
1 1 1 1 1 1 1 1 1 1 5 9 10 13 13 14 17 18 20 16 13 15 15 15 13 13 12 11 10 14 13 14 16 17 19 18 15 13 18 21 22 24 24 23 25 24 25 25 26 27 27 28 29 29
1 2 2 2 2 2 1 1 1 2 6 10 10 15 14 18 22 23 24 18 16 15 10 13 15 10 12 12 11 14 17 18 18 20 19 19 19 20 22 23 24 26 26 27 29 28 27 27 28 30 33 33 32 31
3 3 4 2 2 2 2 2 3 4 6 9 12 13 20 19 23 23 25 20 14 9 9 9 11 12 13 12 13 16 17 18 18 20 24 24 25 22 24 25 26 27 29 30 30 30 29 29 29 31 36 35 34 33
4 11 3 3 2 3 3 8 8 7 9 10 16 28 22 15 14 16 20 18 14 10 13 12 14 14 11 14 15 13 17 19 23 22 22 22 22 24 26 28 28 28 29 32 35 33 34 35 36 35 31 32 34 34
13 9 4 4 4 5 10 13 13 11 14 19 21 26 27 25 23 21 17 14 12 10 10 12 10 13 14 16 17 18 23 24 24 24 26 26 28 28 28 29 31 31 33 33 31 34 36 35 34 32 34 33 33 32
10 6 5 4 5 10 16 17 17 17 20 23 19 19 23 23 20 19 19 16 14 13 12 11 12 14 16 21 22 21 21 21 22 25 27 27 27 29 29 29 29 30 30 32 32 30 34 32 31 32 32 32 30 32
6 5 6 6 6 12 20 17 14 17 19 19 19 22 21 22 22 21 19 17 15 13 13 14 19 24 23 25 26 24 23 23 24 26 27 27 28 30 30 30 29 31 31 32 30 28 28 30 32 33 33 32 32 31
9 8 7 13 13 15 19 22 22 20 21 22 22 19 20 21 24 23 21 18 15 24 22 25 26 27 27 28 28 28 27 25 27 27 28 30 30 29 32 32 31 30 28 29 29 30 33 33 32 33 33 33 33 33
13 8 16 12 15 17 20 21 22 21 22 25 21 21 24 22 24 23 22 19 24 27 28 28 29 30 28 29 32 35 33 34 32 29 26 26 28 27 26 26 26 28 27 28 32 33 34 34 34 33 33 32 30 30
12 12 16 16 18 21 23 20 21 20 20 22 21 21 23 28 28 21 22 25 27 27 29 30 30 30 30 29 30 29 30 31 29 31 31 30 28 27 26 27 27 27 30 31 35 34 33 29 29 30 30 29 30 30
16 22 22 22 22 24 25 24 20 21 21 24 24 23 26 31 26 22 27 32 30 28 28 29 30 28 29 29 28 31 31 33 34 33 34 30 29 33 32 33 35 36 33 34 33 32 32 32 27 29 29 30 30 29
21 29 26 28 25 24 25 24 23 23 26 25 23 24 26 29 23 26 28 29 26 26 27 28 27 27 29 30 31 34 37 37 34 34 35 37 37 35 34 35 34 33 34 32 32 30 27 29 30 29 28 29 29 27
31 33 31 31 28 29 28 28 27 28 26 25 27 26 28 23 24 29 30 27 27 27 28 29 31 30 31 35 36 35 34 41 38 33 33 36 35 33 34 31 30 26 25 24 26 26 26 26 28 27 28 27 25 26
31 33 31 29 29 28 27 27 27 26 28 28 29 26 23 26 29 31 31 26 27 30 30 31 34 33 34 34 36 37 38 38 33 31 32 33 30 29 26 26 25 24 25 25 24 24 24 25 25 25 26 27 27 26
35 34 36 31 32 30 29 28 30 31 29 31 28 28 28 30 31 30 29 26 29 30 30 33 34 35 35 33 32 30 30 30 27 25 25 25 25 25 25 25 24 18 24 25 24 24 25 26 26 27 28 27 25 25
36 34 33 31 32 32 34 33 32 33 34 33 29 28 29 26 27 28 26 26 26 27 27 27 27 27 26 25 23 23 24 23 23 24 24 24 24 24 25 25 26 25 26 27 22 20 25 27 27 27 26 25 25 27
34 35 31 29 31 33 36 37 36 37 35 35 35 31 28 27 25 25 27 27 28 28 27 27 26 24 24 23 23 23 24 24 24 24 26 25 25 25 26 27 29 30 32 33 28 26 22 25 25 28 30 30 30 31
36 38 34 32 34 36 38 40 38 37 35 34 35 32 30 30 27 25 24 26 26 24 24 24 24 25 25 25 26 25 24 24 24 24 25 25 25 27 28 27 27 29 29 28 26 27 26 28 31 31 31 31 31 30
38 40 39 37 37 41 46 44 46 43 37 35 33 31 29 28 27 25 24 24 25 26 25 25 25 25 25 25 24 24 23 23 24 23 24 24 24 25 25 25 24 24 25 26 26 25 25 26 27 29 29 30 30 30
34 33 33 32 32 32 33 34 33 32 31 31 31 32 31 29 28 25 22 24 26 28 27 27 27 27 26 26 25 24 24 26 26 21 21 20 21 20 22 27 25 25 25 25 25 27 27 28 28 29 29 30 30 29

GFSWCAN_con_lsi_018.txt.gz
Lid_Strength_Index
1 1 1 1 1 1 1 1 1 1 1 2 2 2 3 4 4 7 10 10 12 17 15 13 12 13 14 15 17 18 15 16 16 19 20 18 22 18 20 19 19 20 21 22 22 22 23 14 15 17 15 14 13 13
1 1 1 1 1 1 1 1 1 1 1 1 1 1 2 2 2 3 7 7 8 13 13 10 9 9 10 10 13 17 14 17 14 18 20 19 24 23 21 23 17 20 17 21 19 19 13 13 13 11 12 13 12 13
1 1 1 1 1 1 1 1 1 1 1 1 1 1 1 1 1 2 5 6 7 10 12 12 12 9 8 9 8 14 15 12 12 12 17 18 22 17 23 22 20 17 15 17 18 15 14 12 11 12 11 11 11 11
1 1 1 1 1 1 1 1 1 1 0 0 1 1 1 0 1 1 5 4 6 8 13 13 10 10 7 8 9 9 10 11 11 11 16 20 22 14 19 17 17 16 15 18 17 14 14 13 12 11 11 10 10 10
2 0 0 0 0 1 1 1 1 1 1 1 1 0 0 0 0 1 3 3 4 8 14 15 13 10 8 8 9 9 10 11 12 15 20 20 16 16 18 14 18 14 14 16 17 11 11 12 11 10 10 10 10 10
2 -1 -1 -0 0 0 0 0 1 1 1 1 1 1 1 1 -0 2 7 3 3 4 9 14 11 12 9 8 9 10 10 11 12 13 15 14 12 12 15 17 13 11 12 11 11 8 10 9 9 9 10 10 9 9
0 -0 -1 -1 -1 -0 -0 -0 0 0 1 1 1 1 1 1 2 6 7 5 1 2 8 11 13 13 10 10 13 11 10 11 10 10 14 12 13 10 13 17 12 11 10 9 8 9 10 9 9 9 9 9 10 12
-1 -0 -0 -1 -1 -1 -1 -0 -0 0 1 1 1 1 1 1 1 4 2 1 1 5 7 10 12 13 10 11 12 9 9 8 8 9 11 12 10 10 14 12 10 9 9 9 9 8 7 7 10 10 11 13 14 13
-0 -0 -1 -1 -1 -1 -1 -1 -0 -0 0 1 1 1 4 5 7 6 1 -0 1 4 9 10 13 19 10 10 9 9 7 11 8 10 11 9 12 14 13 11 9 9 9 8 9 11 11 11 9 11 13 16 14 13
-0 -0 -0 -0 -0 -1 -1 -1 -0 -0 0 1 3 6 8 6 2 1 3 5 6 6 7 10 17 16 11 12 15 11 10 11 13 11 9 11 12 10 10 10 9 8 8 9 12 13 19 17 14 13 14 14 14 16
-0 -0 -0 -0 -0 -1 -1 -0 -0 -0 0 4 6 7 6 2 5 6 9 10 12 13 10 14 13 16 11 16 16 10 13 12 15 14 13 14 16 11 8 9 8 8 8 10 9 9 13 13 13 14 17 17 17 18
0 0 0 0 0 0 0 0 -0 2 4 4 4 3 4 6 8 10 12 11 13 16 19 13 16 11 13 12 13 11 14 13 16 16 16 20 13 10 11 9 8 7 10 13 16 15 17 16 18 17 18 20 22 22
1 0 0 0 0 0 0 0 0 -0 1 4 7 8 8 10 12 13 17 19 19 23 15 15 15 12 10 9 12 12 14 15 14 15 16 17 13 14 11 12 20 21 19 19 21 21 21 23 24 24 24 25 25 26
1 1 1 1 1 1 0 0 0 0 4 8 10 13 12 14 14 18 19 18 14 15 15 15 12 13 12 12 11 14 13 14 16 17 19 12 16 16 17 22 21 23 22 22 24 24 24 25 26 27 27 28 28 29
2 2 2 2 1 1 1 0 -0 1 5 9 11 14 13 18 22 26 27 20 17 17 12 14 14 10 13 12 11 13 17 17 16 19 19 21 22 23 24 25 25 24 26 27 26 27 27 27 28 31 35 34 32 32
3 2 4 2 1 1 1 2 2 3 5 8 11 17 22 20 22 24 25 21 18 13 13 12 13 12 14 14 15 16 17 19 19 21 24 22 24 24 24 25 26 26 26 27 29 28 28 29 29 31 37 36 35 32
4 10 3 3 1 2 2 7 6 7 10 10 14 28 23 23 20 22 21 18 14 10 12 11 13 14 11 14 15 14 19 19 20 21 22 24 23 24 25 26 26 26 28 29 30 30 31 32 31 32 30 31 34 32
13 8 4 3 5 5 16 16 14 12 15 17 16 25 26 28 25 24 21 16 14 11 11 13 12 13 14 17 19 20 24 24 25 27 26 27 27 28 27 28 29 29 29 29 29 31 31 31 29 30 32 33 32 32
8 8 4 4 6 15 16 17 17 20 24 24 20 20 21 25 24 22 23 18 15 14 14 12 13 14 16 21 24 23 23 24 25 25 26 26 26 27 28 29 29 30 30 31 30 30 31 31 29 28 26 26 30 33
4 4 5 6 7 15 22 21 18 21 27 23 22 20 20 21 22 25 22 18 16 13 15 20 24 26 27 26 27 26 24 23 23 24 26 26 27 29 29 29 28 30 32 33 32 30 31 30 29 31 32 33 32 32
8 7 8 13 15 16 19 21 23 22 23 25 23 19 19 20 23 26 24 20 21 25 25 27 28 27 27 28 28 28 26 26 25 26 26 27 28 29 32 33 33 34 33 33 29 28 30 30 31 33 34 33 36 34
12 9 17 12 15 18 19 20 23 21 21 23 20 22 24 24 25 24 22 24 27 29 30 29 28 29 28 28 29 29 29 27 25 25 26 27 29 31 33 34 30 30 28 29 29 28 28 32 34 35 34 33 32 32
11 12 16 18 19 20 22 19 22 22 21 24 23 22 24 25 24 20 24 26 27 26 28 29 29 28 29 27 27 26 26 26 26 27 27 28 30 32 30 32 33 31 32 31 33 34 32 30 31 31 32 31 31 31
16 22 22 24 22 24 24 23 21 21 21 23 22 22 24 25 24 21 28 30 29 27 28 28 27 26 25 25 26 27 28 29 28 28 30 28 29 33 38 37 38 37 35 35 34 34 34 33 30 31 29 29 30 29
22 29 26 28 26 26 27 25 24 22 24 26 25 25 27 26 22 26 28 30 29 30 28 27 27 26 28 26 26 28 30 32 32 34 36 40 39 36 34 36 35 34 36 34 33 34 32 28 26 26 25 26 27 26
33 32 31 32 29 28 29 27 28 28 26 26 28 26 25 22 26 29 29 28 28 28 28 29 30 29 26 27 28 29 32 41 39 34 34 38 36 34 35 33 32 28 32 31 30 29 26 24 25 25 25 25 24 25
32 33 31 28 28 28 27 26 26 27 29 29 30 27 23 28 30 29 27 25 27 28 29 28 31 30 29 29 31 33 32 35 30 29 30 34 33 33 30 29 29 27 29 29 29 28 27 25 24 24 24 25 25 25
34 33 33 31 29 29 29 29 31 32 31 32 29 30 30 31 32 27 26 24 25 26 27 27 28 28 29 27 26 26 25 25 26 28 29 28 28 28 28 29 28 18 24 26 26 26 27 26 25 24 25 25 24 23
34 33 33 29 30 31 35 34 34 34 34 35 30 29 29 26 26 27 25 25 25 25 25 25 23 23 24 24 23 23 23 23 22 23 24 24 23 23 24 26 27 26 27 30 23 20 23 25 26 26 25 24 24 24
34 34 31 30 32 34 35 37 36 36 34 34 34 29 27 26 25 24 25 26 26 26 26 25 24 23 24 24 24 24 24 23 24 25 26 26 24 23 23 24 25 27 31 35 28 26 22 24 24 26 26 28 27 27
35 35 33 32 34 34 36 38 36 35 34 33 32 30 30 29 25 22 23 23 23 23 23 24 24 24 25 25 26 26 25 24 23 24 24 24 24 24 24 23 23 25 27 28 27 27 25 26 29 28 28 28 28 27
34 38 40 39 38 40 46 38 36 35 34 32 32 31 31 28 29 24 23 23 24 25 25 25 26 25 25 25 25 24 23 24 24 23 24 23 22 22 23 23 25 26 26 26 27 26 26 26 26 27 27 28 28 29
34 34 33 32 32 32 32 33 31 30 29 30 30 31 32 29 28 25 23 23 25 26 25 25 25 25 25 26 25 25 25 26 26 21 21 20 21 20 21 28 26 28 29 29 29 29 30 30 29 30 30 30 30 29

GFSWCAN_con_lsi_021.txt.gz
Lid_Strength_Index
2 2 2 1 1 1 1 1 1 1 1 2 2 3 2 2 4 8 10 10 12 15 14 13 13 15 15 15 17 18 16 16 17 18 18 19 21 20 23 21 21 21 22 22 22 26 24 15 15 17 14 14 14 14
2 1 2 1 1 1 1 1 1 1 1 1 1 1 2 2 4 6 10 9 10 14 14 12 12 12 12 13 16 18 16 18 15 18 20 19 22 22 23 25 18 19 17 20 18 19 14 13 13 11 12 13 12 12
2 2 1 1 1 1 1 1 1 1 0 1 1 1 1 1 2 4 7 8 9 13 13 14 14 11 11 12 11 15 16 14 14 13 18 19 22 18 23 22 20 17 16 18 18 16 15 13 11 12 11 11 11 11
2 2 2 1 1 1 1 1 1 1 1 1 1 1 1 1 1 2 6 5 7 10 16 14 12 12 9 9 9 10 11 12 11 12 16 19 21 15 19 17 18 16 16 19 18 15 14 12 11 11 11 11 11 11
2 1 2 1 1 1 1 1 1 1 1 1 1 1 0 0 0 1 3 4 4 9 15 16 13 10 9 9 10 10 10 11 12 15 18 19 16 16 18 16 19 15 16 17 18 13 12 11 11 10 11 11 11 11
2 2 2 2 1 1 0 -0 0 0 0 1 0 1 1 0 0 2 7 4 3 5 9 16 11 12 10 10 10 11 10 12 12 14 15 15 13 14 21 22 14 12 13 12 13 11 10 9 9 10 10 10 9 10
2 2 2 2 1 0 -0 -1 -0 -0 0 0 0 0 0 1 2 7 7 5 2 3 9 13 17 13 11 11 13 12 11 12 12 13 15 13 13 11 14 20 13 12 12 12 10 10 11 10 10 10 10 9 10 11
2 2 1 1 1 -1 -0 -0 -1 -1 -0 -0 -0 0 1 1 1 5 3 1 1 6 7 11 18 14 10 13 12 11 12 11 11 11 12 15 12 11 16 13 11 10 11 11 10 9 8 9 10 10 11 12 13 12
1 0 0 1 -0 -0 -0 -0 -0 -1 -1 -1 -1 -0 2 4 6 6 1 1 2 6 10 11 17 21 11 10 10 10 9 12 9 11 12 10 13 15 14 12 11 10 10 9 8 11 10 11 9 11 13 15 13 11
-0 0 -0 -0 0 -0 -0 -0 -0 -1 -1 -1 2 5 8 6 2 2 4 6 6 7 7 11 17 21 12 14 16 12 10 11 13 12 10 12 12 11 11 12 10 9 9 8 14 14 19 15 12 12 13 11 11 12
-0 -0 -0 -0 0 -0 -0 -0 -0 -1 -0 4 6 8 6 2 5 8 11 10 10 11 9 16 17 17 13 18 17 10 13 12 15 14 13 14 17 12 9 10 8 9 9 10 9 8 12 12 12 12 14 15 16 18
0 -0 0 0 -0 -0 -0 -1 -0 2 3 4 4 3 4 6 8 11 11 14 13 16 17 13 15 14 16 13 15 12 14 13 16 13 14 16 15 11 13 10 8 8 8 12 13 11 16 16 18 18 19 20 22 22
1 0 0 0 0 -0 -0 -1 -0 -0 1 4 6 8 8 9 12 14 16 16 19 23 18 15 17 13 13 10 12 13 17 17 17 15 16 17 12 14 16 16 16 21 20 18 21 20 20 22 23 24 24 25 25 27
1 0 0 0 1 1 0 0 -1 1 5 9 10 12 12 14 12 15 18 18 16 18 16 16 13 14 14 12 11 14 13 15 17 19 21 13 20 25 24 24 24 24 24 22 24 23 24 25 26 27 26 27 27 28
1 0 1 1 1 1 1 0 0 2 7 9 9 13 14 17 23 26 28 22 19 18 12 14 14 10 13 12 11 13 16 17 17 19 19 23 25 26 26 28 29 27 27 28 29 27 27 26 27 30 31 30 30 30
1 2 3 1 1 1 1 1 2 3 6 8 10 14 22 20 21 22 23 19 16 12 13 12 14 13 13 12 14 15 16 18 19 22 26 25 28 28 29 29 28 28 28 29 29 28 26 28 27 30 33 34 34 32
3 11 3 2 2 3 3 7 6 8 12 11 14 29 24 21 17 19 19 15 12 11 15 14 14 15 13 16 17 20 21 23 25 25 26 26 27 28 26 28 30 30 30 27 28 28 30 30 30 29 29 33 35 35
11 8 3 3 6 9 16 14 10 11 15 16 15 22 26 28 25 23 21 17 15 14 14 14 11 13 14 15 15 21 22 23 25 25 25 26 27 29 30 30 31 31 28 29 28 30 30 29 28 31 32 35 33 32
7 7 3 4 7 17 18 18 17 17 22 23 19 19 19 21 20 20 20 17 15 15 14 13 14 17 22 25 26 24 24 24 24 24 25 26 26 27 27 28 29 30 31 35 33 31 32 32 30 30 30 30 30 34
4 4 6 5 8 18 22 20 20 20 24 21 21 22 19 19 20 21 20 18 15 18 23 24 28 28 28 27 27 27 26 25 24 23 23 25 26 27 28 28 28 30 30 31 30 29 31 31 32 32 32 28 27 27
8 8 8 14 15 17 21 22 24 24 24 26 26 21 21 20 22 22 21 20 23 29 29 32 30 28 27 26 26 28 26 27 26 26 26 25 26 27 29 30 30 31 31 34 33 32 30 30 31 32 32 30 29 29
11 9 18 14 16 19 20 21 23 23 24 26 23 23 26 25 24 24 21 26 28 30 31 30 30 30 30 28 28 28 28 27 24 24 25 25 26 27 29 31 30 31 30 31 31 31 32 33 33 33 33 33 33 33
12 13 17 18 20 22 24 20 22 22 22 23 22 21 24 25 24 20 27 28 29 27 30 30 29 29 29 28 28 26 26 26 26 26 26 26 27 27 27 28 29 30 31 31 35 35 34 31 31 32 33 33 33 32
16 22 22 24 23 25 22 22 20 20 22 24 23 24 27 26 23 24 29 29 28 26 27 28 28 27 25 25 26 26 27 27 25 26 28 26 27 30 32 34 35 37 35 36 35 35 34 34 31 32 32 31 29 27
23 29 27 29 26 26 26 26 25 23 25 25 24 24 26 25 24 28 28 28 27 27 28 29 30 29 30 29 26 26 28 28 26 26 29 35 35 35 33 35 35 35 37 34 33 34 34 34 32 29 25 24 25 25
32 31 31 32 30 29 28 27 27 28 25 25 27 26 26 24 27 31 30 29 28 28 28 29 32 31 27 27 27 25 27 31 32 28 30 37 35 33 35 33 32 29 35 35 34 33 32 25 25 24 24 23 22 23
33 33 31 27 28 28 27 25 25 27 30 30 31 26 25 30 32 31 28 26 27 26 25 26 28 29 28 27 26 26 27 30 28 27 30 34 34 35 32 31 30 27 30 31 30 29 26 25 24 23 23 22 23 24
32 33 34 31 30 30 30 31 33 34 33 32 30 31 32 32 33 28 25 23 24 24 24 24 26 26 27 25 25 24 23 23 27 29 28 27 27 26 26 25 25 19 23 24 24 23 24 24 24 24 24 24 23 23
32 32 32 29 30 32 35 35 35 34 34 35 30 30 30 27 27 27 26 25 24 24 24 24 23 22 24 23 22 23 22 23 24 25 25 25 24 23 21 22 23 24 25 28 23 19 21 23 24 25 25 25 24 24
33 33 30 30 32 35 35 37 35 35 33 33 33 26 26 26 25 24 24 24 24 24 24 23 23 23 24 25 25 24 25 24 24 25 27 26 25 23 23 23 23 23 24 26 25 25 22 23 23 26 25 26 27 25
32 34 31 31 33 34 35 36 35 34 33 31 30 28 29 28 25 21 22 22 23 23 23 24 24 24 25 25 26 26 26 24 24 24 24 24 24 23 23 23 23 24 26 28 29 30 28 28 30 29 30 29 29 27
33 38 35 33 33 34 36 34 34 32 31 30 30 30 29 28 28 24 22 22 23 24 24 24 26 25 25 26 26 25 23 24 24 24 25 23 23 23 22 22 24 29 27 26 28 29 30 32 32 33 32 31 31 31
34 33 32 31 32 32 32 33 30 30 30 30 29 30 31 28 28 25 23 22 23 24 25 25 24 23 24 25 26 24 25 27 26 21 21 21 22 21 22 25 26 28 29 31 31 31 31 32 32 32 33 33 32 32

GFSWCAN_con_lsi_024.txt.gz
Lid_Strength_Index
3 3 3 2 2 1 2 1 1 1 1 1 1 1 2 3 4 7 9 8 11 14 14 14 13 15 15 14 16 17 16 17 17 17 17 19 19 20 21 21 22 21 21 24 22 21 21 17 16 17 15 15 14 15
2 3 3 2 2 2 1 1 1 1 1 1 1 1 1 2 3 6 10 9 9 13 14 12 12 12 12 12 14 16 15 17 15 17 18 19 22 22 23 23 20 21 19 21 19 19 16 15 14 13 13 14 14 14
2 3 3 2 2 2 2 1 1 1 1 1 1 1 1 1 1 4 8 10 11 15 14 14 14 11 11 11 11 16 17 15 15 15 18 19 21 20 25 23 22 20 18 20 19 18 16 14 13 12 12 12 12 12
2 2 2 2 2 2 2 1 1 1 1 1 1 1 1 0 1 3 7 7 10 13 18 15 13 13 11 11 12 13 14 15 15 15 18 20 22 17 21 19 19 18 18 20 19 16 15 13 12 11 11 11 12 12
2 2 2 2 2 2 2 2 1 1 1 1 1 1 0 0 0 2 4 5 5 9 15 16 14 13 12 11 12 12 13 14 15 17 19 20 17 18 18 16 20 16 17 18 18 13 13 12 11 11 11 11 11 12
2 2 2 2 2 2 2 1 1 1 1 1 0 1 0 0 0 3 8 4 4 5 11 16 12 14 11 11 12 12 12 12 13 14 16 15 14 14 20 21 15 15 14 13 13 12 12 11 11 11 11 11 11 12
2 3 2 2 1 1 2 1 1 1 1 0 0 -0 0 0 2 7 8 7 2 4 9 13 16 13 11 12 13 12 12 12 13 14 16 14 14 13 19 21 13 13 13 13 11 12 13 12 11 11 11 11 12 13
3 2 2 2 2 2 1 1 0 0 -0 0 -0 -0 0 -0 2 6 4 2 2 7 8 12 16 14 10 12 13 12 13 13 13 13 14 15 13 13 19 14 12 12 12 12 12 11 9 10 11 11 12 13 14 13
3 2 2 2 2 2 1 1 0 -0 -0 -0 -0 -0 2 5 7 6 2 2 4 6 10 11 16 19 10 10 11 12 10 14 11 13 14 12 14 16 14 13 12 12 11 11 12 12 12 12 10 12 13 16 13 13
3 2 2 2 2 1 1 1 -0 -0 -0 -0 2 6 8 5 1 1 4 7 8 8 8 12 18 20 11 14 14 15 13 14 14 14 11 12 14 11 11 13 11 10 11 11 15 15 19 17 12 12 14 12 12 12
2 1 1 1 0 0 1 -0 -0 -0 -0 5 7 8 5 1 7 9 9 11 9 12 9 12 15 15 13 17 16 11 13 12 15 16 15 18 20 12 9 11 9 10 10 11 10 9 13 13 13 13 14 14 15 18
1 -0 0 -0 0 0 1 -0 -0 3 5 4 5 3 4 7 11 12 13 12 15 16 17 14 14 16 16 14 15 12 13 13 17 17 16 20 16 13 14 11 9 10 13 14 14 12 15 15 18 18 20 21 22 22
0 -0 0 0 -0 -0 0 -0 -0 0 2 5 6 8 9 9 13 14 16 18 18 24 19 15 17 14 14 12 15 15 15 16 15 15 17 18 15 19 21 21 20 21 22 21 22 21 21 23 24 24 24 25 25 26
0 0 0 1 0 -0 -0 -0 0 1 5 9 10 13 13 13 15 14 16 20 17 19 14 17 13 14 16 15 13 18 17 18 21 23 22 19 24 26 25 25 27 24 26 24 25 24 24 25 27 27 27 26 26 27
1 1 1 2 1 2 1 1 1 4 8 12 12 16 16 19 24 28 28 23 20 20 14 16 16 11 15 13 12 15 18 20 20 21 23 26 27 27 27 28 29 28 28 29 30 28 27 27 28 30 31 29 28 28
2 2 3 2 1 1 1 2 3 5 9 11 15 19 23 21 23 24 25 19 15 13 14 13 16 15 15 14 14 15 16 18 20 28 29 27 29 29 30 30 31 31 32 32 30 30 28 28 28 31 32 30 29 29
3 10 3 3 3 4 4 7 6 11 12 12 21 31 28 24 21 22 20 15 12 11 13 12 13 13 13 16 17 18 19 25 27 26 25 26 28 30 29 31 30 30 31 33 33 31 32 31 30 29 28 29 29 29
9 8 3 3 8 9 16 15 12 12 16 18 17 24 27 26 26 24 21 16 12 12 12 12 11 14 14 16 21 24 23 23 22 24 25 26 27 27 27 28 29 30 30 30 29 30 28 27 28 29 30 32 30 33
7 5 4 4 9 18 18 19 18 19 23 23 19 18 19 20 21 20 20 16 15 16 15 16 14 20 25 26 29 28 28 27 26 25 25 26 26 26 26 27 27 28 29 34 35 35 36 34 33 34 34 33 32 34
4 4 5 6 10 19 22 23 23 21 25 23 22 20 19 19 19 18 19 18 18 20 26 26 29 30 29 28 27 28 27 26 27 26 24 25 26 27 28 27 28 29 29 32 32 32 34 33 33 35 35 33 32 32
8 9 8 14 18 21 23 24 25 25 27 25 25 22 21 19 21 21 22 21 25 29 29 30 29 29 28 28 27 28 27 27 27 27 27 25 25 26 27 28 27 28 28 29 30 29 30 32 32 35 34 35 36 35
11 9 18 15 17 20 22 22 24 24 25 27 26 25 26 25 25 24 21 27 29 29 30 30 30 30 30 29 29 29 29 28 27 25 24 24 25 25 25 26 25 26 26 28 29 32 33 33 34 36 35 35 34 35
12 13 17 19 21 23 25 20 24 23 25 25 24 23 26 27 24 21 28 28 29 27 28 29 29 29 30 30 31 29 29 28 28 28 26 26 26 25 25 26 26 26 27 30 33 33 32 30 32 33 34 34 34 33
16 23 24 25 25 27 24 24 21 23 23 23 23 26 28 26 23 26 31 30 28 26 28 28 29 27 28 28 28 28 28 27 26 27 27 24 24 26 27 27 28 30 31 33 32 34 34 34 31 32 32 33 34 32
24 29 27 30 26 26 27 26 26 23 26 26 26 27 27 27 28 30 30 30 28 27 27 28 27 27 28 27 26 27 28 28 25 25 26 27 26 25 25 28 30 32 33 32 32 35 35 36 34 33 31 32 31 30
33 31 31 32 30 29 29 28 28 29 27 29 30 27 26 27 30 33 32 30 29 28 28 29 29 28 26 27 28 26 26 27 27 25 26 28 28 28 30 29 31 29 36 36 35 35 34 33 32 31 30 28 25 26
34 34 31 26 28 28 27 27 27 29 31 32 32 27 26 31 33 33 29 26 27 26 25 25 27 27 27 27 25 24 24 26 26 25 26 27 27 28 27 29 29 27 31 34 35 35 34 33 31 29 28 26 25 24
32 33 34 31 31 31 31 32 34 35 34 33 31 32 32 33 34 30 26 24 25 24 24 23 24 25 26 24 23 22 22 21 24 24 24 24 25 25 26 26 26 19 26 28 27 27 30 30 31 30 28 26 25 25
32 31 32 30 31 33 36 35 35 34 34 35 31 30 31 28 28 28 25 24 24 23 24 24 23 22 22 21 21 22 22 23 25 27 27 28 27 27 23 25 26 26 28 30 23 20 20 22 23 23 24 24 24 26
32 32 30 32 34 35 35 36 34 34 33 32 31 26 26 26 24 22 23 23 24 24 24 24 24 24 25 25 25 24 24 26 25 26 29 30 28 25 25 25 26 26 28 32 27 28 24 26 26 27 26 26 27 27
32 33 32 32 34 34 34 34 34 33 31 29 28 28 30 28 25 23 23 23 23 24 24 25 25 25 26 26 27 27 27 27 25 26 28 27 26 27 25 25 24 24 29 29 30 32 32 32 34 34 34 34 32 30
32 36 33 32 34 33 33 33 32 30 30 29 30 29 30 29 29 26 24 24 25 26 26 26 27 27 25 25 29 31 26 28 28 28 28 26 25 25 24 23 24 28 29 27 29 31 32 34 33 33 33 33 33 33
33 31 32 32 33 32 33 32 30 31 30 31 30 30 30 29 30 26 24 23 26 28 28 28 26 26 27 30 29 32 31 32 30 24 24 23 23 23 24 24 28 30 30 31 31 32 33 33 33 33 34 34 34 34

GFSWCAN_con_lsi_027.txt.gz
Lid_Strength_Index
2 2 3 3 3 3 2 2 1 1 1 1 1 1 1 3 4 8 10 8 10 14 14 14 14 14 15 14 16 17 16 16 17 16 17 18 19 19 20 21 21 20 20 21 20 21 21 18 19 19 16 18 18 18
2 2 2 3 3 3 2 2 2 1 1 1 1 1 1 2 4 7 11 8 9 13 14 12 11 12 12 10 14 16 15 16 15 16 17 18 21 22 21 21 21 20 17 19 18 18 18 16 16 15 15 15 16 16
1 2 2 2 3 3 3 2 2 1 1 1 1 1 1 1 2 5 10 10 11 15 14 14 14 11 10 11 10 14 15 13 14 14 16 18 18 19 23 22 21 20 19 20 19 19 18 16 15 15 14 14 14 14
1 2 2 2 3 3 3 2 2 2 1 1 1 1 1 1 1 3 7 7 9 14 18 15 12 13 10 11 12 12 13 14 14 14 16 18 19 17 19 18 18 18 19 21 20 19 17 15 14 12 12 13 14 14
2 1 2 2 2 2 2 2 2 2 2 1 1 1 1 0 0 2 4 5 6 10 16 17 14 13 12 11 13 13 13 14 15 17 18 19 18 18 19 18 21 18 20 20 20 16 15 13 11 11 12 12 12 13
2 2 1 2 2 2 2 2 2 2 2 1 1 1 1 0 0 3 8 5 4 5 11 13 13 14 12 12 13 14 14 14 15 16 17 17 16 17 21 22 17 17 16 15 15 13 12 11 11 12 12 12 12 12
2 2 2 2 2 2 2 2 2 2 1 1 1 1 0 0 2 7 8 7 3 4 10 14 18 13 12 13 14 13 12 13 13 15 17 16 16 15 19 21 16 15 14 13 12 12 13 12 12 12 12 11 13 14
2 3 3 3 2 2 2 1 1 1 1 1 1 0 -0 0 1 5 3 2 2 7 8 13 18 14 11 13 13 12 13 14 14 15 15 15 14 14 20 15 13 13 13 13 12 12 11 12 13 13 13 14 15 14
2 2 3 3 2 2 2 1 1 1 1 0 -0 0 2 4 7 6 1 1 4 6 10 12 17 18 11 11 12 12 11 17 12 16 14 14 18 19 15 13 13 12 12 12 12 13 14 14 12 15 15 17 14 13
3 3 2 3 3 2 2 2 1 1 0 -0 3 6 9 7 1 3 5 7 8 8 8 14 20 18 11 12 14 16 15 16 18 16 12 13 16 12 11 12 12 11 11 12 15 16 19 17 14 13 15 13 13 12
2 3 3 3 3 3 2 2 1 1 0 3 7 8 5 2 6 8 10 10 10 12 9 16 18 15 13 17 18 12 16 14 17 19 17 19 21 13 10 11 10 10 11 12 12 12 14 13 13 14 15 14 14 16
2 2 2 2 2 2 2 1 1 2 4 5 5 4 6 8 11 12 13 12 13 13 14 14 15 17 16 13 13 11 14 14 18 19 16 19 17 20 21 19 18 18 20 17 18 15 17 16 18 18 20 21 23 23
1 -0 -0 0 0 -0 0 0 0 1 1 5 7 8 10 10 14 16 18 18 20 22 18 16 17 14 14 12 13 13 15 15 15 16 19 18 20 24 26 25 25 23 23 23 22 23 22 24 24 25 25 26 26 27
1 1 -0 -0 0 -0 -0 0 -0 2 6 9 11 14 13 15 13 18 19 19 18 18 16 16 14 15 15 14 13 15 15 15 17 20 22 25 27 28 27 28 30 28 28 27 27 26 26 26 27 28 28 29 27 27
1 2 2 1 1 1 1 0 1 5 8 11 11 15 16 23 25 29 31 23 20 16 13 15 16 12 18 14 12 15 17 18 21 22 26 28 28 29 29 30 31 31 30 30 31 30 28 28 30 31 32 31 29 29
3 4 4 2 2 2 3 4 5 7 11 14 18 17 20 17 21 25 27 19 17 14 16 15 16 15 14 13 14 16 18 21 21 28 27 27 29 30 32 32 33 33 35 33 32 32 29 30 31 34 34 32 31 30
4 7 4 4 4 5 5 7 9 13 14 18 25 30 28 23 22 25 25 16 14 17 19 17 17 16 13 15 16 20 17 22 23 24 24 26 28 29 31 32 33 34 32 32 32 32 33 34 33 30 30 33 32 32
10 8 4 5 8 10 15 16 13 15 20 22 22 26 28 28 26 24 21 16 13 14 13 13 10 13 15 16 19 24 25 25 23 24 25 27 28 29 31 31 31 30 31 32 32 32 31 29 28 29 30 31 30 31
6 7 5 5 10 17 18 19 19 20 24 23 21 20 23 25 22 20 20 17 15 17 17 15 17 22 26 27 28 27 28 28 28 27 25 29 29 31 30 30 29 28 29 30 30 30 31 31 31 30 29 29 29 34
5 5 6 7 11 19 22 24 23 22 24 24 24 24 22 21 21 21 22 21 21 23 29 30 32 33 30 29 28 28 27 26 28 28 26 28 28 30 30 29 28 29 28 28 28 27 27 28 28 29 28 28 28 30
9 10 9 15 21 23 25 25 26 26 26 25 25 22 22 21 23 24 25 24 27 30 30 30 30 29 29 30 27 28 27 28 28 30 29 28 27 28 29 29 28 27 28 28 26 26 25 26 27 28 29 32 34 32
14 9 18 15 20 24 24 23 25 25 26 28 26 29 30 28 27 27 24 29 30 30 29 29 29 29 30 29 29 29 29 30 28 27 26 27 29 27 26 26 25 26 26 26 25 25 26 27 28 29 31 32 32 34
13 14 19 21 23 24 27 21 25 25 27 27 28 29 30 32 28 25 30 29 29 26 28 29 29 28 29 27 27 27 28 29 31 31 30 29 28 27 27 27 25 24 24 25 26 26 25 27 27 27 29 32 34 33
15 23 25 27 26 29 24 25 22 24 24 25 26 30 31 30 25 28 33 32 29 26 27 28 28 27 26 26 27 28 29 30 29 28 28 27 27 27 27 26 26 26 27 26 26 26 27 28 28 30 31 33 35 34
26 30 28 31 27 28 28 28 27 26 28 27 26 27 28 27 30 32 32 31 30 29 28 28 28 27 28 27 26 26 29 29 28 27 27 26 26 25 24 24 25 27 28 27 28 30 31 31 33 34 33 35 33 33
35 32 32 33 31 31 30 31 30 30 27 29 30 28 27 29 32 35 33 32 31 30 29 29 30 29 26 26 27 26 25 26 27 26 26 27 26 27 28 26 26 25 28 29 30 31 30 30 35 35 33 31 29 29
35 35 31 26 29 29 29 28 28 31 33 33 33 29 28 33 35 33 30 27 28 27 25 26 28 27 27 26 24 23 22 25 27 26 26 25 24 24 24 25 25 23 23 25 30 34 34 33 33 32 31 31 32 30
32 33 35 32 32 32 33 33 35 37 35 34 31 33 33 34 35 30 26 24 24 24 23 24 24 25 25 24 22 22 22 21 23 23 23 23 24 24 25 24 26 19 24 26 27 25 27 28 28 28 29 28 28 31
32 31 31 32 32 33 36 36 36 34 33 35 31 31 31 28 28 27 25 23 23 23 25 25 24 23 23 23 23 23 23 23 25 27 28 27 26 26 24 25 27 27 29 32 24 21 21 21 23 25 28 28 27 31
32 31 30 32 34 35 34 35 34 32 32 31 28 26 27 26 25 23 23 24 25 26 25 26 25 26 27 27 27 26 26 26 26 29 31 30 30 27 27 28 28 28 28 32 28 29 25 29 30 33 33 33 33 33
31 32 31 31 33 32 33 32 33 32 28 28 27 28 29 28 26 24 25 25 26 26 27 28 28 28 29 29 30 30 30 31 30 33 35 31 30 29 29 27 26 25 29 32 33 33 31 33 36 36 35 35 34 33
32 35 32 31 32 31 31 32 31 30 30 29 30 29 29 29 30 28 25 26 29 30 30 32 31 30 31 35 37 38 29 34 33 31 31 28 28 27 26 26 25 30 32 30 32 33 33 36 35 35 34 35 35 35
32 31 32 31 32 32 32 32 30 30 29 29 30 29 29 28 30 27 24 27 30 32 33 34 34 31 33 34 34 34 33 36 34 26 25 24 24 23 24 26 29 34 34 34 33 33 34 34 34 35 35 36 36 36

GFSWCAN_con_lsi_033.txt.gz
Lid_Strength_Index
-0 -0 -0 -0 0 1 1 2 2 2 2 2 1 1 0 0 0 2 4 5 6 10 10 11 11 12 13 13 15 15 15 15 16 16 16 17 17 17 16 15 16 17 18 18 16 17 19 16 17 15 14 15 14 13
0 0 -0 -0 0 1 1 2 2 2 2 2 2 1 0 0 0 2 5 5 6 8 10 9 9 10 10 11 13 14 14 14 14 15 15 16 17 18 16 18 18 17 15 15 15 15 17 16 16 15 15 14 15 14
1 0 1 0 0 0 1 1 2 2 2 2 2 1 0 1 0 2 4 5 6 9 10 11 11 9 9 9 9 12 13 12 13 13 14 16 17 17 18 17 18 18 17 16 15 17 16 16 16 15 15 14 14 14
1 1 1 0 1 1 1 1 1 2 2 2 2 2 1 0 0 2 4 3 5 7 11 12 10 11 9 9 10 10 11 12 12 12 13 14 16 16 16 17 16 16 17 17 19 18 17 15 15 14 14 14 15 14
1 1 1 1 1 1 1 1 1 2 2 2 2 2 1 0 -0 2 3 3 3 6 10 12 11 10 10 10 10 9 10 11 12 13 13 14 15 16 17 18 17 16 17 17 17 16 14 14 13 13 14 14 14 14
2 1 1 1 1 1 0 1 1 1 1 2 2 2 1 0 -0 3 8 4 3 4 8 11 10 11 10 10 11 10 11 11 12 12 14 15 14 14 15 15 16 14 14 13 15 13 14 14 13 12 13 13 13 14
2 1 1 1 1 1 1 1 1 1 1 1 1 1 1 0 1 6 7 3 2 2 8 12 12 10 10 10 11 13 12 12 11 13 14 15 15 13 15 16 15 14 14 14 13 13 15 14 14 13 13 13 13 14
2 2 1 1 1 1 1 1 1 1 1 1 1 1 0 0 0 4 2 2 1 6 8 10 13 12 10 11 12 10 11 10 11 13 13 13 14 14 16 15 14 14 13 14 14 14 14 14 14 14 14 14 15 14
2 2 2 2 2 2 1 1 1 1 1 1 0 1 1 3 7 5 1 0 2 5 9 10 14 14 9 10 10 10 10 12 11 12 12 11 13 15 13 13 12 12 13 13 12 13 13 13 12 13 13 14 14 13
2 2 2 2 2 2 2 2 1 1 1 0 1 5 7 6 2 1 3 7 7 7 7 9 9 13 10 10 11 11 10 12 15 12 11 13 13 12 16 17 17 17 16 12 13 13 14 14 13 12 13 12 12 12
2 2 2 3 2 2 2 1 1 1 1 3 5 6 4 1 4 7 9 9 8 10 9 11 10 13 9 11 12 10 12 12 15 14 13 14 15 17 20 20 20 19 19 18 17 15 13 13 12 11 12 13 13 15
2 2 2 2 2 2 1 1 1 2 4 3 3 3 5 6 8 10 10 10 10 11 12 11 11 10 10 8 10 11 12 12 15 12 13 15 16 22 23 23 23 23 24 22 21 20 18 18 19 17 17 17 18 19
2 2 2 1 2 2 0 0 1 1 1 3 4 6 8 8 13 13 15 14 14 12 11 11 12 11 10 9 10 10 13 14 11 13 14 14 21 23 25 26 26 25 25 24 23 22 21 22 23 23 22 22 21 22
2 2 2 2 2 1 1 1 1 2 4 6 8 11 11 13 11 11 11 10 10 10 11 9 12 10 10 11 11 13 14 12 14 16 15 18 24 27 26 27 28 28 27 26 25 24 24 24 25 26 25 23 23 24
3 3 2 2 1 1 0 1 1 2 5 8 8 12 12 16 17 17 16 13 13 9 10 11 10 10 11 12 12 14 16 16 14 15 19 22 25 26 27 27 28 28 28 27 26 26 26 26 26 27 27 26 25 25
3 4 4 2 2 1 -0 1 3 6 12 13 15 14 16 14 16 15 13 13 12 9 9 9 12 12 14 13 15 15 15 16 17 22 23 23 26 27 28 28 28 28 28 27 27 26 27 28 28 27 27 26 26 25
5 7 4 4 3 4 3 5 9 13 15 15 19 19 19 17 18 18 16 15 13 10 12 11 14 15 12 15 18 21 20 23 23 24 25 26 27 27 27 27 28 28 27 27 27 27 27 26 25 25 26 26 25 26
7 6 5 5 7 7 13 12 12 15 19 18 19 21 20 21 19 20 19 18 14 12 11 14 12 16 19 18 23 26 25 24 24 24 25 25 25 26 25 25 26 26 26 27 26 25 25 25 24 25 25 24 24 24
6 6 5 6 8 11 14 17 15 19 21 19 18 18 19 22 22 22 22 20 21 22 21 23 28 29 30 30 28 28 27 27 26 25 24 25 26 27 26 26 25 26 26 25 25 25 25 25 24 23 23 22 23 23
6 6 7 9 9 13 17 19 16 17 20 21 19 20 21 22 22 23 25 24 25 27 32 32 33 32 31 30 28 28 27 26 26 24 24 24 24 25 26 25 25 25 24 24 24 23 23 23 23 23 23 22 22 23
8 9 10 13 16 18 20 20 21 20 19 22 22 20 22 22 26 26 27 26 29 32 32 31 31 29 29 28 27 27 26 27 27 27 26 25 24 24 24 23 23 23 23 23 23 23 23 24 23 23 22 23 23 23
12 10 16 15 17 18 19 20 21 21 21 22 23 23 25 26 28 29 26 30 32 31 31 31 30 30 29 28 28 27 28 27 26 25 25 24 25 25 25 25 24 24 25 24 23 23 23 23 23 22 22 23 23 22
13 14 18 21 21 22 23 18 21 22 22 24 23 26 27 27 27 25 31 30 30 28 29 29 28 28 28 26 27 27 27 26 26 26 25 25 25 24 24 25 24 24 24 24 23 23 23 23 22 23 22 22 22 21
17 24 26 27 27 28 23 25 22 23 23 24 26 28 29 28 26 30 34 32 30 28 29 29 27 26 26 26 28 28 28 25 25 25 25 23 24 25 24 25 25 25 25 23 23 23 23 23 23 23 22 23 22 22
27 32 29 34 28 29 30 29 30 27 29 28 28 28 29 27 32 34 34 32 31 30 30 29 28 28 29 28 27 26 26 26 25 26 25 23 23 23 24 24 25 25 25 25 25 25 25 24 24 24 24 24 24 24
36 32 33 33 32 32 31 32 33 33 31 32 31 28 29 32 36 37 34 32 31 30 30 30 29 28 28 27 27 27 26 25 23 25 25 24 24 24 25 26 26 24 23 23 25 26 26 25 25 26 25 24 24 26
35 34 30 28 31 31 32 31 31 34 37 37 35 30 32 37 38 34 29 28 28 27 26 26 26 27 28 27 26 25 24 24 25 24 24 24 24 24 25 27 28 26 23 24 25 25 27 27 26 26 25 24 25 25
31 31 35 31 33 32 34 35 36 38 36 35 32 36 37 36 35 30 28 26 25 25 25 26 26 26 27 27 27 26 26 26 23 24 23 23 24 24 26 25 25 21 25 25 24 23 23 25 25 24 25 26 26 25
30 30 30 34 32 33 35 35 34 33 33 34 32 34 34 30 28 27 26 25 24 26 28 28 28 28 28 27 28 28 27 28 30 33 33 30 29 27 27 27 27 27 26 27 24 22 23 23 23 24 25 27 27 27
32 30 32 33 35 34 32 32 31 30 31 30 28 28 29 28 27 25 26 26 27 29 29 29 30 31 33 32 32 31 31 32 32 32 34 33 31 29 30 29 29 28 27 27 27 27 25 26 26 29 29 29 29 29
29 28 31 31 32 31 30 29 26 26 27 28 27 29 30 29 27 25 26 28 29 31 32 32 33 34 34 33 35 35 33 32 35 34 34 33 32 31 31 29 28 27 27 30 30 30 30 31 31 31 32 33 33 32
31 35 33 32 31 29 28 28 28 27 28 29 29 29 29 29 32 30 27 31 33 33 33 36 37 32 32 33 34 34 33 32 33 30 33 30 30 29 28 27 26 27 30 29 30 30 31 32 33 33 33 34 33 33
32 32 33 34 33 32 32 32 31 31 30 32 31 31 33 32 34 30 27 30 31 32 32 32 31 32 32 33 33 32 31 32 34 26 26 25 25 24 24 25 26 29 31 31 31 32 33 34 34 34 34 34 35 34

GFSWCAN_con_lsi_036.txt.gz
Lid_Strength_Index
-0 -0 -0 -0 -0 -0 -0 -0 -0 0 1 2 2 2 1 1 0 2 3 2 5 10 9 9 9 11 12 12 14 14 14 15 15 15 15 16 16 16 16 17 18 16 16 16 15 18 19 17 18 15 16 18 16 16
0 0 0 -0 0 0 -0 -0 0 0 0 1 2 1 1 1 1 1 4 2 3 8 10 8 8 8 9 10 12 14 13 14 13 14 15 15 17 18 17 18 17 17 16 15 16 16 18 17 17 16 16 16 16 14
0 0 0 0 0 0 0 -0 -0 0 0 1 1 1 1 1 0 0 3 4 5 9 10 11 11 9 8 8 8 12 13 12 13 13 14 15 17 16 18 17 18 17 16 16 16 18 18 16 14 15 16 16 16 16
1 1 1 1 1 0 0 0 -0 0 0 1 1 1 1 1 1 0 4 3 4 8 12 14 10 10 9 8 9 9 10 11 12 12 13 14 16 15 16 16 16 16 16 18 20 18 17 16 15 14 14 15 16 16
1 1 1 1 1 0 0 0 0 0 1 1 1 1 1 1 1 0 3 3 3 7 12 13 13 11 10 9 9 9 10 12 12 13 14 15 15 16 17 17 18 17 16 17 17 16 14 14 13 13 14 15 16 16
1 1 1 1 1 1 0 0 0 0 0 1 1 1 1 1 1 2 8 3 3 4 9 16 10 12 12 11 10 10 10 11 12 12 15 15 15 15 16 17 16 16 15 13 15 13 13 13 12 13 14 15 15 15
1 1 2 1 1 1 1 1 0 0 0 0 1 1 1 1 2 5 7 5 2 3 8 13 13 11 12 12 13 13 12 12 12 13 14 16 16 14 16 19 15 15 15 15 13 14 16 16 16 15 14 14 14 15
1 2 2 2 1 1 1 1 0 0 0 1 1 1 1 0 1 3 3 1 2 7 8 11 14 12 10 12 15 13 14 13 14 14 15 15 15 15 19 15 15 15 15 15 15 15 15 15 15 16 16 17 17 17
2 2 2 1 1 1 1 1 1 1 1 0 0 0 1 2 6 6 1 0 2 5 9 12 16 16 10 11 13 14 12 16 13 17 15 15 18 20 18 16 17 19 17 17 16 16 16 16 16 17 18 19 17 16
2 2 2 1 1 2 2 1 1 1 1 0 2 4 7 5 1 1 3 6 7 7 7 12 14 15 10 11 14 15 14 17 21 16 13 18 19 18 19 20 20 20 20 18 16 16 17 17 16 15 16 16 16 16
2 2 2 2 2 2 2 1 1 1 1 3 5 6 4 1 3 6 8 9 9 11 9 14 14 13 10 16 16 12 16 17 21 19 19 23 23 20 21 21 21 21 21 21 20 18 18 18 17 16 17 18 19 19
2 2 2 2 2 2 2 1 1 3 4 3 3 3 4 6 7 10 11 10 11 13 13 14 15 13 14 11 15 15 17 15 21 18 20 22 20 24 25 24 24 25 25 24 23 22 21 22 23 21 22 22 23 23
2 2 2 2 2 2 1 1 1 1 1 3 5 7 8 9 12 13 15 14 15 12 13 13 14 13 13 11 14 13 17 18 14 20 22 23 23 26 27 27 27 27 27 26 25 24 24 25 25 26 25 25 25 25
2 2 3 3 3 2 1 1 0 1 4 8 8 11 11 13 12 13 17 13 13 12 11 11 12 12 12 14 13 16 14 16 18 23 22 26 29 31 29 29 31 30 30 28 28 27 27 26 27 28 27 26 26 27
3 4 3 4 2 1 1 -0 -0 2 5 8 9 15 12 17 17 20 19 18 14 10 10 12 12 11 14 13 13 15 17 18 19 22 27 28 29 28 29 30 32 32 31 30 30 30 29 29 29 29 30 29 28 28
3 4 6 3 2 1 0 0 4 9 14 14 19 17 19 17 19 18 15 13 10 8 10 10 12 13 14 14 16 16 18 22 25 29 26 26 28 29 30 31 31 33 33 32 32 32 31 31 31 33 31 29 29 28
4 9 4 4 3 4 3 7 10 14 15 16 19 22 21 21 21 21 18 18 15 9 13 11 14 15 13 17 22 28 30 28 26 27 27 27 29 30 30 30 31 32 33 33 34 33 32 32 29 28 28 29 29 28
9 7 4 4 5 7 12 12 14 15 19 18 20 21 23 24 21 22 22 21 19 12 13 17 16 23 26 24 28 28 27 26 26 27 28 28 29 29 29 29 30 32 32 32 32 31 29 27 26 28 30 30 29 29
7 7 5 5 6 11 14 16 15 21 20 20 17 18 20 23 23 24 24 23 23 24 24 26 32 32 33 32 31 31 30 29 29 27 28 28 29 29 29 30 28 29 30 30 29 28 29 28 27 27 28 27 28 29
6 6 6 8 8 13 17 19 15 18 22 21 19 21 22 24 24 24 27 26 26 30 35 35 36 35 33 32 30 30 29 28 28 27 27 26 26 28 29 29 28 28 28 29 26 24 26 26 25 25 27 27 29 30
10 10 10 13 15 17 19 19 21 20 19 22 21 20 23 23 28 28 29 28 32 33 34 33 34 32 31 31 30 30 29 29 29 29 30 28 26 27 27 26 27 26 25 25 25 25 26 27 27 27 30 32 31 30
13 10 18 15 16 17 19 19 20 19 21 22 22 23 26 28 30 30 28 32 34 33 32 32 32 32 31 32 31 30 30 29 29 27 26 26 28 28 28 27 26 27 27 27 26 26 27 27 29 30 31 31 29 29
14 15 20 23 22 22 23 18 21 21 22 23 23 26 27 29 28 26 32 32 32 30 30 30 30 29 30 29 28 29 28 28 29 28 27 27 26 26 27 28 27 28 28 27 25 27 27 24 26 28 29 29 29 29
18 25 28 30 29 31 23 25 23 23 23 25 27 29 30 29 27 31 35 33 31 29 30 30 28 29 29 28 29 29 29 27 27 28 27 26 28 28 27 27 27 27 27 27 27 28 27 29 27 29 29 31 31 30
30 34 32 38 32 32 30 30 29 26 29 28 29 30 30 28 33 34 35 34 32 31 30 29 28 29 30 29 28 28 27 28 28 30 28 27 27 26 26 27 27 26 25 27 28 28 30 32 33 32 31 33 32 32
38 33 36 36 35 36 34 35 34 33 31 31 31 29 30 33 36 38 35 33 32 31 30 31 30 30 31 30 31 31 29 28 28 29 28 27 28 29 29 29 28 27 26 27 29 31 31 31 33 32 32 31 28 29
38 35 30 29 32 33 34 34 34 36 37 37 35 32 34 38 39 35 30 29 30 30 28 29 30 32 33 34 34 33 33 31 33 32 31 32 31 33 32 34 35 33 30 33 34 34 33 33 31 31 30 30 32 33
31 31 35 32 34 34 39 39 39 40 39 36 36 38 39 38 38 33 30 27 28 28 31 34 35 37 38 38 38 36 37 33 34 32 32 30 32 35 36 35 34 23 30 32 32 29 32 31 30 28 28 29 29 32
30 30 30 34 34 33 36 36 37 35 34 37 39 38 37 33 33 32 29 28 32 34 38 38 37 37 37 38 39 40 40 37 37 39 41 40 38 35 34 35 35 33 34 36 27 24 25 25 25 27 31 31 30 31
32 30 33 33 36 35 32 33 33 30 32 33 31 31 32 32 31 28 30 33 35 38 40 41 43 43 42 43 41 38 41 41 39 38 41 40 38 36 35 35 34 34 34 37 31 32 28 28 30 34 34 34 33 33
30 31 34 33 34 32 31 30 29 29 31 33 34 35 38 34 33 33 35 38 41 43 42 42 42 44 42 42 44 44 39 40 41 40 39 39 37 37 36 34 33 34 34 34 35 36 32 32 33 35 35 35 36 34
36 39 36 35 35 32 33 36 36 35 36 38 37 39 39 40 40 38 34 39 41 40 39 42 44 39 40 41 41 40 34 35 37 35 37 34 34 34 32 31 30 29 32 33 34 33 33 35 34 35 35 36 36 36
40 40 41 41 39 40 40 38 38 39 40 42 40 41 42 39 37 35 33 37 36 37 38 38 38 38 38 38 36 37 34 36 36 28 26 26 27 26 26 29 29 31 33 34 34 33 35 36 36 36 36 36 36 36

GFSWCAN_con_lsi_039.txt.gz
Lid_Strength_Index
1 1 0 -0 -0 -1 -1 -0 0 0 -0 -0 -1 -1 -0 -0 0 1 3 1 4 7 7 8 8 10 11 11 12 12 12 13 13 13 14 14 15 14 15 16 16 15 16 16 15 17 19 17 16 14 15 18 17 17
1 1 0 -0 -0 -1 -1 -0 0 0 -0 -0 -1 -1 -0 -1 -0 0 4 1 2 6 9 6 6 7 7 7 10 12 12 13 12 13 13 13 16 16 16 17 15 16 15 15 14 15 17 17 17 16 16 17 17 16
1 1 0 0 -0 -1 -0 -0 0 0 0 -0 -0 -1 -1 -0 -0 0 3 3 5 8 8 9 10 7 6 7 7 10 11 10 11 11 12 14 16 15 17 17 17 16 15 16 16 17 17 16 15 15 15 16 16 15
2 1 1 0 0 -0 -0 0 0 0 0 0 -0 -0 -0 -0 0 -1 3 3 5 8 10 10 9 8 7 7 7 7 9 10 11 11 12 15 16 14 15 16 16 15 15 17 18 17 16 15 14 14 13 14 16 16
2 1 1 1 0 0 0 0 0 0 0 0 -0 -0 -0 -1 -0 0 2 2 2 7 13 14 13 10 8 8 8 8 9 11 11 12 12 14 14 15 17 16 18 16 15 16 16 15 14 14 13 12 13 14 16 16
2 1 1 1 0 0 1 1 0 0 0 -0 -0 -0 -0 -0 -0 2 6 3 2 3 11 15 10 12 12 9 9 10 10 11 11 12 14 14 14 14 16 17 15 15 14 11 13 12 13 14 13 13 13 15 15 15
2 2 1 1 1 1 1 0 0 0 0 -0 -0 -0 -0 -0 1 5 6 4 1 3 9 14 14 10 10 10 11 12 11 11 11 12 13 14 15 13 15 17 14 15 15 15 14 13 14 16 15 14 14 14 15 16
2 2 2 1 1 1 1 1 0 0 0 0 -0 -0 -0 -0 1 4 2 2 1 7 8 12 16 14 10 12 16 13 14 13 13 14 15 16 15 14 16 15 16 17 15 15 15 15 15 16 16 17 17 17 17 17
2 2 2 1 1 1 1 1 0 0 0 0 -0 -0 2 3 5 5 0 1 2 5 10 15 16 16 10 12 14 16 13 19 14 15 15 15 19 20 19 18 19 21 20 19 17 17 17 17 17 17 18 18 18 18
2 2 2 1 1 1 1 1 1 1 1 1 2 5 8 5 0 0 3 6 7 7 7 13 19 15 10 13 18 18 17 20 23 19 15 20 24 20 22 23 23 23 22 22 20 19 20 19 18 18 19 18 18 18
2 2 1 1 1 1 1 1 1 1 1 4 6 6 3 -0 3 5 8 10 9 10 8 16 17 14 11 19 20 13 17 22 22 20 20 27 25 20 22 23 23 23 23 23 22 20 20 21 20 19 20 22 21 22
2 1 1 1 1 1 1 1 1 3 7 5 3 4 5 6 7 10 11 9 10 12 13 17 17 14 14 13 17 18 20 17 23 23 22 26 22 26 27 26 26 26 26 26 25 24 24 24 24 23 25 25 25 25
2 1 1 1 2 1 1 1 1 1 1 4 7 7 8 9 13 13 18 15 14 13 13 15 15 13 14 12 17 13 21 17 18 24 23 26 25 28 30 29 29 29 28 28 27 27 27 28 28 28 28 28 28 28
1 1 1 2 2 2 1 1 1 1 3 8 10 12 14 13 12 14 19 19 12 13 16 12 14 14 16 16 14 18 17 18 25 24 24 29 30 33 31 32 34 32 31 30 30 29 29 29 30 30 30 30 30 30
1 2 3 3 3 2 2 1 1 2 5 10 13 13 18 20 16 16 16 18 12 10 10 12 14 13 16 14 14 17 17 20 22 24 31 30 30 31 32 33 35 33 32 32 32 31 30 30 30 31 33 33 31 29
1 3 5 3 3 2 1 0 4 9 14 18 22 15 18 23 19 18 16 14 17 10 10 11 13 14 15 15 16 18 19 23 28 34 31 30 32 33 35 35 34 33 33 31 32 31 29 30 31 34 33 31 31 30
4 10 4 3 3 4 4 8 11 14 16 21 27 22 23 26 24 23 22 21 19 15 13 12 15 16 14 19 25 28 34 33 31 31 29 30 32 32 32 34 34 33 32 32 33 31 31 31 31 29 30 33 33 33
11 8 4 3 5 7 12 12 14 17 22 21 24 24 25 25 27 26 25 23 22 20 19 22 21 27 29 30 32 32 30 29 29 29 30 30 32 31 30 31 32 32 32 32 32 32 31 30 29 31 34 34 32 32
7 6 5 4 7 12 15 16 15 21 21 22 20 19 22 24 24 25 26 24 24 26 26 29 34 35 36 33 34 31 31 29 29 29 30 30 29 30 29 28 28 29 29 30 28 29 29 30 31 30 30 28 28 29
5 6 6 7 8 14 18 19 16 20 22 21 22 22 23 25 25 26 28 27 27 31 35 36 37 37 34 32 31 31 30 29 29 29 30 28 27 28 29 28 28 28 27 28 27 27 30 30 28 28 29 30 30 30
11 12 11 13 15 17 20 19 21 19 22 24 22 21 24 24 28 28 30 29 32 34 36 34 34 32 31 31 31 31 31 29 30 30 30 29 28 27 27 27 27 28 28 29 30 29 29 31 30 30 31 32 32 31
16 11 20 18 17 19 21 20 19 19 21 23 23 24 27 28 29 30 28 33 34 33 32 32 32 32 32 32 32 33 31 29 28 27 27 27 29 29 30 29 29 30 30 33 33 33 32 32 32 32 31 32 32 32
16 16 22 24 24 23 25 19 22 21 23 24 25 27 28 29 28 26 33 32 33 30 30 31 31 30 30 30 30 29 29 29 29 29 28 28 28 28 29 29 29 30 30 29 30 31 32 30 31 31 32 32 33 31
19 27 30 32 31 33 25 27 24 24 24 26 28 30 30 29 27 31 35 34 32 30 31 30 29 30 30 30 31 31 30 29 29 29 28 29 30 30 29 30 29 29 29 29 30 30 30 32 30 31 33 36 36 35
31 35 34 40 35 34 31 31 32 29 30 28 30 31 31 28 33 35 36 35 32 33 32 30 30 31 32 31 31 30 29 29 30 31 30 31 32 31 30 30 30 30 30 31 31 31 30 31 30 32 32 34 31 32
39 35 38 38 37 37 35 35 35 36 33 32 31 29 30 32 36 38 35 33 33 32 32 32 32 32 33 32 34 34 33 31 33 32 34 34 34 34 34 35 34 32 30 34 34 34 34 33 36 34 34 33 32 36
39 37 32 30 33 34 35 34 34 35 38 38 37 33 33 38 39 35 31 30 31 31 31 32 34 37 38 37 36 36 37 36 35 35 35 35 36 39 39 40 39 36 37 39 40 40 39 38 36 34 33 35 36 36
31 32 36 33 35 36 39 37 38 39 38 36 34 38 38 38 37 32 30 28 29 31 33 37 39 40 40 38 40 38 38 38 34 32 32 34 39 40 41 40 39 26 34 35 34 32 36 36 34 32 34 33 31 32
30 30 31 35 37 36 36 38 37 34 33 36 36 37 37 34 33 32 30 30 33 34 37 39 37 41 39 41 41 45 45 42 39 42 42 42 41 37 40 38 38 36 37 40 30 25 26 26 26 28 32 33 32 32
32 31 34 35 38 37 34 34 35 32 32 34 32 32 34 34 32 31 34 36 37 39 41 42 44 43 44 44 44 41 46 47 42 39 42 42 39 39 40 38 37 36 37 41 33 33 29 32 32 38 37 36 35 34
32 32 34 34 35 34 33 32 34 36 37 38 40 39 40 37 36 37 37 42 45 46 43 43 45 50 45 44 46 45 40 43 45 43 43 41 39 40 38 36 35 37 39 37 36 37 34 34 35 37 36 37 36 35
36 40 36 36 35 35 37 40 42 42 44 42 42 45 42 42 42 40 38 43 43 41 40 45 45 40 42 43 44 43 36 37 38 36 38 36 37 35 34 33 34 36 35 32 33 35 35 36 36 35 35 36 36 36
44 44 45 43 40 40 41 42 40 42 42 44 43 46 46 41 37 35 35 40 37 38 40 40 41 41 41 40 39 39 36 38 38 29 26 26 26 26 26 28 31 32 32 32 32 33 35 35 35 35 35 36 36 36

GFSWCAN_con_lsi_042.txt.gz
Lid_Strength_Index
1 1 1 1 1 1 1 0 -0 -0 -0 -0 -0 -0 -1 -1 -1 1 3 1 4 7 6 6 6 8 9 10 11 14 12 12 12 13 14 14 15 13 14 13 14 15 16 16 15 17 19 16 15 13 14 17 17 16
1 1 1 1 1 1 0 -0 -1 -1 -0 -0 -0 -0 -0 -1 -1 -1 4 1 1 5 7 5 5 5 6 7 7 10 11 12 10 11 12 14 15 15 14 17 15 15 13 15 14 14 17 16 17 16 16 18 17 16
1 1 1 1 1 0 0 -0 -1 -1 -1 -0 -0 -0 -0 -1 -1 -0 3 2 3 7 7 8 7 6 6 5 5 9 10 10 11 11 11 13 15 15 16 16 18 15 14 14 14 15 16 16 14 14 16 16 16 16
1 1 1 1 1 1 0 -0 -1 -1 -1 -0 -0 0 0 -0 -1 -0 3 1 2 7 9 9 7 7 6 6 6 5 7 9 10 11 12 13 15 13 16 16 16 15 13 16 17 16 16 15 14 13 14 14 15 16
1 1 1 1 1 0 -0 -0 -1 -1 -1 -0 0 0 0 -0 -1 -0 2 1 1 5 10 11 10 8 7 6 6 6 7 9 10 12 12 13 14 15 17 15 16 14 14 16 16 14 13 13 13 12 13 14 15 16
1 2 2 1 1 0 0 -0 -0 -0 -0 -0 -0 0 -0 -0 -1 3 10 3 1 3 9 13 9 12 9 6 6 7 8 10 10 11 12 13 13 13 15 16 14 14 13 12 13 13 14 15 13 12 13 13 15 16
1 2 2 1 1 0 0 0 -0 -0 0 -0 -0 -0 -0 -1 2 4 9 3 -0 2 8 13 13 10 9 9 10 9 9 10 10 11 12 13 14 12 14 19 15 14 14 14 14 12 13 16 15 13 13 14 15 17
1 2 2 1 1 1 1 0 0 0 0 -0 -0 -0 -1 -1 0 3 2 0 1 6 7 12 14 12 9 12 12 10 11 11 12 13 13 14 13 13 15 17 17 17 15 17 17 15 15 16 16 17 17 16 17 17
2 2 1 1 1 1 1 1 1 0 -0 -0 -0 -0 2 5 6 5 -0 -0 2 5 9 12 15 16 10 11 12 13 11 14 13 14 14 13 16 16 18 18 20 22 21 20 18 18 17 17 18 18 18 18 18 18
1 1 2 2 1 1 1 1 0 -0 -0 -0 3 7 8 5 0 0 4 6 6 7 7 12 15 16 11 13 16 18 18 21 23 18 14 16 19 21 22 23 23 24 23 22 20 20 20 21 20 20 21 21 20 20
1 2 2 2 2 1 1 0 0 0 1 4 7 8 7 -0 6 8 9 9 8 10 8 11 13 13 11 18 19 14 17 23 21 20 20 25 23 21 23 25 25 25 24 25 23 23 23 22 21 21 22 24 23 23
2 2 2 1 1 1 0 0 -0 3 7 6 5 3 5 5 8 9 12 9 10 12 13 13 13 11 12 13 16 16 21 22 24 25 22 22 22 26 27 27 28 28 28 27 26 26 25 25 24 24 25 26 26 26
1 1 1 1 0 0 0 0 0 1 2 8 10 10 8 9 13 17 17 14 13 13 13 14 13 12 13 13 17 14 20 21 20 22 21 24 26 29 30 30 30 30 29 29 28 28 28 28 29 29 28 29 29 29
1 1 1 1 1 1 1 0 -0 1 6 11 10 16 12 14 17 14 21 16 13 14 16 10 14 13 13 15 14 17 18 18 21 22 23 30 30 32 32 33 35 33 32 30 31 30 30 30 31 31 32 32 32 31
1 1 1 2 2 2 1 1 1 2 6 9 12 19 19 21 17 17 16 16 15 15 10 11 12 11 13 14 14 17 18 22 22 23 31 30 31 32 33 34 34 33 32 33 34 33 32 32 32 33 34 33 32 31
-0 2 4 3 3 2 2 3 5 8 13 15 22 21 22 18 20 22 22 18 19 19 11 10 12 14 15 15 17 19 19 22 26 36 33 31 33 33 34 33 33 33 33 34 34 34 32 32 33 36 34 33 32 31
4 10 3 3 2 3 4 8 11 15 16 21 25 29 28 30 27 25 26 25 22 21 12 11 14 16 15 21 25 32 34 36 35 34 32 32 32 33 33 33 33 33 33 34 35 34 35 36 35 31 31 35 35 35
10 7 3 2 5 7 12 12 14 17 21 20 23 26 27 27 30 27 27 25 25 22 21 24 22 27 29 27 33 33 32 32 31 31 32 31 32 31 31 32 32 33 33 34 35 36 35 33 31 32 34 36 33 34
7 6 4 4 6 12 14 15 15 20 22 20 21 22 23 26 26 26 27 26 26 27 28 31 35 36 36 34 34 33 32 31 31 31 31 30 30 30 30 29 30 30 31 35 33 33 32 34 35 34 34 31 31 33
5 5 5 7 9 14 17 18 15 19 24 22 23 24 24 26 26 28 29 29 29 32 36 37 38 36 34 34 33 32 31 29 29 31 31 29 28 28 29 28 29 29 29 30 30 31 32 31 29 31 32 32 32 33
11 11 11 13 17 17 19 19 19 19 21 22 21 22 25 26 29 30 31 29 33 35 36 36 36 33 32 33 31 30 30 28 29 29 30 30 29 28 29 29 29 30 31 31 32 33 32 34 34 35 35 36 36 35
17 12 20 18 18 21 20 19 19 19 21 23 23 24 28 29 31 31 28 33 34 33 33 33 32 32 31 32 31 30 29 28 28 27 28 28 30 30 31 30 30 32 33 35 37 37 37 35 35 35 34 35 33 33
17 18 23 25 24 27 26 20 22 22 24 24 24 28 29 30 29 26 33 32 32 30 30 30 30 29 30 30 29 29 29 29 30 30 30 30 30 30 31 31 31 34 34 33 35 36 36 32 32 33 33 32 33 33
20 28 32 34 32 34 28 28 25 25 24 26 28 30 30 29 28 32 35 34 32 30 31 30 29 30 30 30 32 32 31 29 29 30 29 29 31 31 31 33 34 34 34 34 35 35 33 33 30 31 31 32 32 32
32 37 35 41 36 36 34 32 32 30 31 29 30 31 30 28 34 35 36 34 32 32 32 30 31 31 32 32 32 32 31 31 30 32 32 30 31 33 35 35 36 37 38 36 37 37 36 35 34 33 32 33 33 34
40 37 39 40 38 39 36 37 36 36 33 33 32 30 30 33 36 38 35 33 33 32 33 33 33 33 33 33 33 33 34 34 32 33 35 37 37 38 40 40 40 37 38 41 41 40 41 40 41 41 39 38 36 39
39 38 33 31 35 35 36 34 33 35 38 38 37 33 33 37 38 36 31 29 31 32 32 33 32 33 33 34 33 34 37 40 40 38 40 40 39 41 40 41 40 38 41 42 44 43 42 42 41 40 38 39 40 38
32 32 36 34 36 38 39 37 37 38 37 35 35 38 38 38 39 32 30 29 31 32 33 35 35 34 35 36 39 38 36 38 35 36 38 39 42 42 43 43 41 30 38 39 38 37 40 40 39 35 36 35 33 35
31 30 32 36 36 34 36 36 37 35 33 36 36 37 37 34 33 31 30 31 32 32 34 36 36 40 41 42 43 46 46 41 38 41 42 42 43 39 42 42 43 41 41 43 32 27 28 28 30 31 36 35 33 34
31 32 34 36 37 37 34 34 35 33 32 34 32 32 34 34 33 31 32 34 35 38 41 43 46 46 45 44 43 42 45 46 42 40 42 41 40 42 44 42 40 39 41 44 36 36 31 34 34 39 37 36 36 35
31 31 32 34 35 35 34 33 36 35 36 36 36 37 38 39 34 35 36 42 45 46 43 42 44 47 45 43 44 43 40 42 45 44 45 45 43 42 41 39 37 40 43 43 40 40 36 36 37 37 37 37 36 35
35 40 35 35 34 35 38 40 45 46 43 40 40 43 40 38 38 37 36 40 42 39 38 42 43 37 39 40 45 45 37 40 41 38 39 38 39 38 37 36 37 42 39 35 35 34 35 37 36 35 34 35 35 35
46 45 47 44 40 40 43 44 42 43 43 46 44 49 49 42 38 35 37 41 38 38 40 40 39 41 41 40 39 40 37 39 39 31 27 27 27 27 27 31 33 34 33 32 32 33 34 34 34 34 35 35 35 35

GFSWCAN_con_lsi_045.txt.gz
Lid_Strength_Index
-0 0 0 0 0 0 0 0 1 1 1 0 0 0 1 1 0 1 2 1 5 7 7 6 5 8 7 8 10 11 11 11 12 13 13 14 15 13 14 13 14 15 16 16 15 17 19 15 14 13 14 16 17 16
-1 -0 0 0 0 0 0 1 1 1 1 0 0 0 0 0 -0 -0 3 1 1 6 6 4 4 4 4 5 7 10 11 14 10 11 11 12 14 13 14 16 14 15 13 14 14 14 15 15 15 15 16 18 17 17
-1 -1 -0 -0 0 0 0 1 1 1 0 0 -0 -0 -0 -0 -0 0 3 2 2 6 6 7 7 5 4 4 4 8 8 9 10 11 13 12 14 12 14 14 15 15 14 12 12 14 16 15 14 14 16 16 16 16
-1 -1 -0 0 0 0 1 1 1 1 0 -0 -1 -1 -1 -0 -1 -0 4 3 2 5 9 9 6 6 4 4 4 4 6 7 7 8 10 11 12 12 14 12 13 13 12 13 13 17 15 15 15 13 14 13 14 15
-1 -1 -1 -0 0 1 1 1 1 0 -0 -1 -1 -1 -1 -1 -1 1 3 3 1 5 9 13 10 8 6 5 5 5 5 7 8 10 11 11 12 13 15 14 15 13 13 13 13 13 13 14 12 12 13 12 13 15
-1 -1 -1 -0 0 1 1 0 0 -0 -0 -1 -1 -1 -1 -0 -0 4 10 4 1 1 7 11 9 10 7 6 5 6 5 7 8 9 9 10 12 12 14 15 13 13 13 12 12 12 13 13 11 11 11 12 14 16
-1 -1 -1 0 1 1 0 0 0 -0 -1 -1 -1 -1 -1 -1 3 6 10 6 1 1 7 10 15 9 8 7 8 8 8 8 8 9 11 11 13 11 12 15 16 15 15 14 14 12 14 15 12 11 12 13 15 17
-0 -1 -0 1 1 1 1 0 -0 -1 -1 -1 -1 -1 -1 -1 0 4 3 1 -0 4 5 11 15 14 8 10 11 9 10 10 10 10 11 12 12 12 14 15 17 17 15 16 16 15 14 15 15 15 15 15 16 17
-0 -1 -0 1 1 1 0 -0 -0 -0 -0 -0 -0 -1 2 3 7 7 0 -0 1 5 10 12 16 16 8 10 10 11 9 13 11 12 12 11 13 14 15 16 18 20 19 19 16 16 16 17 17 17 17 17 17 18
-0 -1 0 1 1 0 0 0 0 0 -0 -0 2 5 8 7 1 1 5 11 10 6 8 11 11 13 10 11 12 13 14 15 15 13 12 14 15 20 22 22 22 22 22 22 18 19 19 19 19 21 22 21 21 21
-0 0 0 1 1 1 0 0 0 -0 0 3 6 9 8 1 5 6 9 10 13 15 8 13 10 12 9 15 15 12 15 18 19 19 16 19 22 20 23 25 24 24 23 24 22 21 21 20 20 21 23 24 23 24
0 0 1 1 1 1 1 0 -0 1 4 4 6 4 5 8 10 10 16 17 16 16 10 15 12 11 10 10 13 15 16 20 21 24 23 22 20 25 25 26 27 27 27 26 25 25 25 24 24 25 26 27 27 27
1 1 1 1 1 0 0 -0 -1 0 1 5 9 12 9 15 14 13 18 20 18 15 16 13 12 11 11 10 13 14 17 18 20 21 21 22 26 28 30 29 29 29 28 28 28 28 28 28 29 29 29 29 29 29
1 1 1 1 1 0 -0 -1 -1 0 5 11 12 16 14 15 11 13 15 19 16 13 11 9 13 12 10 12 12 16 17 16 20 21 23 30 31 32 31 33 35 33 31 30 30 29 29 30 31 31 32 32 31 31
0 0 1 1 1 1 0 -0 -1 2 7 11 13 14 18 20 16 16 17 18 19 19 12 10 11 10 13 14 13 17 19 20 22 22 31 31 31 31 32 33 34 33 32 33 33 32 32 32 32 33 34 33 32 31
0 3 4 2 2 1 0 4 6 7 14 15 20 18 26 22 21 22 24 23 21 23 19 11 12 13 15 15 18 22 19 21 26 39 34 32 33 33 33 33 33 33 33 33 33 33 32 33 34 36 34 34 33 32
3 10 3 1 2 3 4 10 11 15 17 20 25 26 29 28 27 27 27 25 23 23 16 14 14 17 15 20 24 32 33 35 36 36 33 32 33 33 33 33 33 33 33 33 34 34 36 38 35 31 33 36 35 35
9 7 2 2 5 8 12 12 15 18 25 25 28 30 28 30 31 30 29 25 26 25 22 25 24 28 29 25 32 34 33 33 32 32 32 32 32 32 31 32 31 31 32 33 33 33 33 31 31 34 35 38 33 33
6 4 2 3 6 11 14 16 15 22 25 24 22 23 26 30 27 27 28 25 25 27 27 30 34 38 37 34 36 34 33 32 33 31 31 30 30 30 30 29 30 30 31 32 32 32 33 34 34 33 33 32 33 34
5 5 5 6 8 13 17 17 14 19 22 23 23 25 26 28 27 30 28 28 28 31 35 36 37 36 35 33 32 31 30 28 29 31 31 29 29 29 29 29 29 30 30 30 31 30 30 31 32 32 34 34 32 34
11 11 10 13 17 17 18 18 18 19 21 23 21 23 25 26 30 31 31 29 32 34 35 34 34 33 31 32 31 31 30 28 29 29 30 31 29 29 30 30 30 30 31 32 32 33 33 34 37 38 36 37 38 38
17 12 19 17 19 21 22 20 19 19 23 25 25 25 28 30 31 32 30 33 34 34 33 33 33 32 32 33 32 30 30 28 28 28 28 28 29 30 31 30 31 32 33 34 34 35 36 36 37 37 35 38 36 35
17 18 24 25 25 27 27 21 22 22 24 26 26 28 29 30 29 27 35 35 35 32 32 32 31 32 32 31 30 30 29 29 30 30 30 31 31 31 31 31 31 32 33 33 33 34 35 32 33 34 35 35 37 36
21 29 33 34 33 37 32 30 25 25 25 28 29 32 31 30 27 32 36 37 34 31 32 31 30 31 30 31 33 33 32 29 30 31 30 31 32 33 33 33 33 33 33 34 34 35 34 36 33 35 35 38 38 38
32 38 36 42 36 37 37 36 32 29 31 30 31 33 32 30 34 35 36 37 34 33 32 30 31 31 32 32 32 32 32 31 31 32 32 31 33 33 35 36 36 37 38 35 37 38 40 39 39 40 39 41 41 41
41 38 40 42 39 41 40 40 37 35 33 33 34 32 32 32 34 38 37 37 34 32 33 33 32 32 33 33 33 33 34 34 30 32 34 34 32 33 38 39 39 37 40 43 41 42 42 42 44 43 41 41 38 41
40 39 35 34 37 37 38 37 34 35 37 38 37 34 34 37 38 35 31 30 31 32 31 32 31 32 33 33 32 34 33 34 33 33 36 36 38 39 38 38 40 38 42 44 45 44 43 43 43 43 41 42 43 41
34 33 38 35 38 42 43 41 38 38 37 35 35 38 39 40 38 33 31 30 32 32 33 34 34 33 34 34 36 35 34 33 34 34 34 35 43 43 44 45 43 32 40 41 40 40 43 42 41 39 38 37 37 39
31 31 33 36 36 35 36 37 39 35 33 35 36 37 38 35 36 33 31 31 31 31 32 33 34 35 34 35 37 38 38 36 37 40 42 42 42 39 43 44 44 43 43 46 35 29 31 32 31 32 34 37 35 37
32 31 34 36 37 36 34 34 35 33 31 32 32 32 34 34 33 31 32 33 34 35 36 37 39 37 38 38 40 40 47 48 43 39 41 42 40 42 46 44 43 43 44 47 39 38 33 35 36 40 38 37 37 35
31 32 33 34 35 35 35 35 33 30 33 33 34 34 36 36 32 33 34 38 39 42 40 40 41 47 45 44 46 44 41 45 46 44 45 46 46 45 43 41 40 43 45 45 43 43 38 37 38 37 37 37 36 35
34 39 35 34 34 36 38 39 39 36 37 34 36 37 36 36 36 35 35 38 38 38 38 44 45 41 42 43 45 46 37 41 42 39 41 39 41 40 39 38 38 41 41 37 37 36 36 37 36 36 35 35 35 35
45 43 45 42 39 39 43 44 42 42 43 43 43 49 48 42 37 36 37 41 38 38 40 40 39 43 42 42 41 41 38 40 40 32 28 29 29 29 29 30 34 34 35 34 33 33 35 35 35 34 34 34 34 34

GFSWCAN_con_lsi_048.txt.gz
Lid_Strength_Index
0 -1 -1 -1 -1 -1 -0 -0 -0 -0 -0 -0 -0 -0 -0 -0 0 2 4 2 5 9 10 8 7 9 8 9 12 13 10 9 10 13 13 13 14 13 14 13 14 15 16 16 15 17 19 13 14 13 12 16 16 15
-0 -0 -1 -1 -1 -1 -1 -1 -0 -0 -1 -0 -0 -0 -0 -0 0 1 5 3 3 7 8 6 6 6 5 5 7 9 10 14 8 11 11 11 13 12 13 16 12 15 13 15 14 14 11 14 12 13 14 15 15 15
-0 -0 -0 -1 -1 -1 -1 -1 -0 -0 -0 -0 -0 -0 -0 -0 -0 1 6 4 4 7 8 8 9 6 4 4 3 8 7 7 9 8 11 12 14 13 15 14 13 13 12 12 12 12 13 12 14 14 14 15 15 15
-1 -0 -1 -1 -1 -1 -1 -1 -1 -0 -0 0 0 0 -0 -0 -0 0 5 5 4 6 10 10 8 7 4 4 3 3 4 4 6 7 9 10 12 12 15 13 14 14 12 12 13 14 15 14 14 13 14 14 14 14
-0 -1 -1 -1 -1 -1 -1 -1 -1 -0 0 0 0 0 -0 -0 -0 1 4 4 2 6 11 10 8 7 5 4 4 3 4 5 7 8 9 11 11 11 16 14 14 13 13 12 12 12 11 11 12 12 12 12 13 15
-0 -0 -1 -1 -1 -1 -1 -1 -0 0 0 0 0 -0 -0 -1 -1 2 7 4 2 2 7 12 9 11 9 7 5 5 4 5 6 8 9 8 9 10 12 13 12 12 12 12 11 11 12 12 12 12 12 12 14 15
-0 -0 -0 -0 -0 -1 -1 -1 -0 0 0 0 -0 -0 -1 -1 1 5 10 6 1 1 11 14 14 11 8 7 6 7 6 6 7 7 9 10 11 9 12 13 12 13 12 14 13 12 13 12 12 11 11 14 15 17
-0 -0 -0 -0 -1 -1 -1 -1 -0 0 0 -0 -0 -1 -1 -1 0 3 3 0 -0 4 7 13 17 12 8 9 10 7 9 7 7 8 10 11 11 10 12 11 14 14 14 14 14 14 14 14 12 13 14 14 16 17
-0 -0 -0 -0 -1 -1 -0 -0 -0 -0 -0 -1 -1 -1 0 3 5 7 -1 -1 1 6 10 10 16 19 8 10 10 9 9 12 9 10 11 11 13 13 13 13 15 16 15 15 15 14 15 15 15 15 15 15 17 18
-0 -0 -0 -1 -1 -0 -0 -0 -0 -1 -1 -1 1 4 7 8 1 1 4 8 8 6 7 15 16 14 9 10 11 13 13 12 15 12 10 12 14 17 19 20 20 20 20 19 16 17 17 17 17 17 18 18 18 19
-0 -0 -0 -0 -0 -0 -0 -1 -1 -1 -1 3 6 7 6 1 6 9 10 12 18 15 11 12 11 12 8 12 12 9 14 14 15 13 14 15 16 16 20 22 22 22 21 22 20 20 19 18 19 20 21 21 21 21
-0 -0 -0 -0 -0 -0 -1 -1 -1 1 4 5 6 4 6 9 11 12 17 15 15 18 17 13 14 9 9 9 12 12 13 15 16 17 16 17 18 22 23 24 25 25 24 24 23 23 23 24 23 23 24 25 26 25
-0 -0 -0 -0 -0 -0 -1 -1 -1 -0 1 5 7 10 9 12 15 18 17 22 25 22 15 14 12 9 10 9 10 12 15 16 16 16 17 19 25 28 28 28 29 28 26 26 26 26 26 27 27 27 28 29 29 29
-0 -0 -0 0 0 -0 -0 -1 -1 -0 4 8 10 14 15 17 18 21 22 23 19 17 16 18 16 11 8 11 11 14 14 15 18 19 20 29 31 32 31 31 33 31 30 29 29 28 28 29 30 31 31 30 30 31
-0 -0 -0 0 -0 -0 -0 -1 -1 3 7 11 15 18 21 23 19 19 22 21 22 21 19 11 14 10 14 11 12 15 17 18 17 19 30 31 31 31 31 31 31 31 31 31 30 29 29 30 30 32 32 31 31 31
0 2 3 0 -0 -0 1 5 7 9 16 17 23 22 28 24 27 24 24 22 22 24 22 20 11 11 12 12 15 17 17 17 23 35 32 31 32 33 33 32 31 31 32 31 31 30 30 31 32 34 33 33 33 32
2 10 2 0 2 3 3 10 12 16 18 25 32 32 31 30 27 28 29 26 23 25 18 17 14 16 15 19 23 31 29 35 35 34 33 32 33 33 32 32 32 32 32 32 32 32 33 33 32 32 34 37 35 35
8 7 1 2 7 9 13 13 15 19 25 23 29 31 30 29 32 32 30 27 26 26 23 25 23 28 32 26 31 33 33 32 31 31 32 32 32 31 31 32 31 31 31 32 32 32 32 32 32 34 35 37 32 34
4 3 2 3 6 13 15 16 16 22 24 26 25 25 29 31 28 27 28 26 26 27 27 29 33 35 36 34 34 32 32 32 33 31 31 31 30 30 30 29 30 30 30 31 31 32 32 32 32 31 31 30 31 33
5 5 5 6 7 13 16 17 16 21 25 24 25 27 27 29 31 34 30 29 28 31 35 36 37 36 34 33 32 32 30 29 30 31 31 30 29 29 30 30 30 30 30 30 30 29 30 31 31 31 31 30 30 33
11 11 10 13 16 17 19 19 19 20 21 23 23 23 26 27 31 32 31 29 33 35 37 33 33 33 32 31 30 31 29 28 29 29 30 31 29 29 30 30 30 30 31 31 31 32 32 33 33 32 32 34 34 35
16 12 20 18 19 22 22 22 21 19 23 25 25 26 28 29 31 32 28 32 34 35 35 33 31 31 31 31 31 30 29 28 28 28 28 29 30 31 32 31 31 33 33 33 33 33 33 33 33 33 33 38 35 33
17 18 23 25 25 27 28 24 27 27 28 26 26 28 30 30 29 27 33 34 35 31 33 33 31 30 31 30 30 30 29 30 31 31 31 32 32 31 32 32 31 32 33 33 32 33 33 31 32 34 34 34 34 34
21 29 33 34 33 38 34 33 29 28 27 28 29 31 32 32 28 32 36 35 33 31 32 33 34 33 31 31 33 34 33 30 31 31 30 31 33 34 34 34 34 34 33 33 33 33 34 35 34 34 35 36 39 41
32 38 36 42 37 38 39 39 37 32 32 30 31 32 32 30 34 36 37 35 34 35 33 32 32 32 34 33 32 33 33 31 31 33 32 32 33 34 34 34 35 36 35 33 35 37 38 39 38 38 41 43 42 42
42 39 41 45 41 42 42 43 42 40 36 34 34 31 31 32 36 39 38 36 36 35 35 35 34 33 33 33 33 33 34 33 29 32 33 33 31 31 33 33 34 35 37 39 41 41 39 39 43 43 41 41 39 43
41 42 38 37 39 38 39 39 38 39 41 41 39 34 34 37 40 38 32 31 33 35 32 33 32 31 32 32 33 33 33 33 33 33 34 34 35 34 33 34 35 36 39 38 41 43 41 42 42 43 43 44 45 43
37 36 39 38 40 44 46 44 43 42 40 36 35 38 39 41 39 35 31 30 31 32 33 34 33 32 33 33 34 32 33 33 33 33 33 34 35 35 36 37 36 31 35 37 37 39 46 44 44 42 41 38 37 42
34 32 35 39 40 38 38 41 44 42 36 37 36 37 39 36 37 35 32 30 31 31 34 35 34 33 33 34 34 35 34 32 32 32 33 33 34 34 37 40 42 42 43 46 36 30 33 35 35 34 35 36 36 40
33 34 37 38 39 38 37 37 38 34 32 32 32 32 34 34 33 31 32 33 33 33 35 36 37 34 34 34 34 34 36 36 35 34 36 35 36 40 45 45 43 44 45 49 40 40 35 37 37 41 39 38 38 36
31 32 33 34 36 36 35 35 34 31 32 33 33 34 35 35 32 32 33 35 35 37 38 37 38 42 39 38 39 37 34 37 40 40 42 43 44 45 44 42 42 46 47 46 44 45 41 40 42 40 38 37 36 35
35 38 35 33 34 35 37 36 35 34 34 33 35 35 36 36 35 33 33 36 37 36 35 41 43 39 40 40 43 44 36 41 41 39 40 39 41 42 41 41 41 43 43 39 39 39 39 39 37 36 36 36 35 35
43 42 44 42 39 39 40 40 37 36 36 37 38 41 43 41 36 34 36 39 37 36 37 37 37 41 40 39 39 40 38 40 41 32 29 30 31 31 32 34 36 37 37 36 35 35 36 36 36 35 35 35 35 34

GFSWCAN_con_lsi_051.txt.gz
Lid_Strength_Index
2 2 1 0 -0 -1 -1 -1 -1 -1 -1 -1 -1 -1 -1 -1 -1 1 4 2 5 8 10 8 8 11 11 12 15 16 14 13 14 14 13 14 14 16 13 13 14 14 15 15 15 17 19 13 13 13 11 14 15 14
0 1 0 0 -0 -0 1 -1 -1 -1 -1 -1 -1 -1 -1 -1 -1 0 5 2 3 7 11 6 6 6 7 7 9 9 13 13 10 16 15 14 13 12 14 16 10 15 12 14 13 14 11 10 10 9 11 13 14 13
-1 -0 -0 -0 -0 -0 1 -0 -1 -1 -1 -1 -1 -1 -1 -1 -1 -0 4 3 4 7 8 8 9 6 5 5 4 9 11 8 9 7 12 10 13 11 14 13 14 11 10 14 13 12 11 10 9 9 13 14 14 13
-1 -1 -1 -0 -0 0 0 0 -1 -1 -1 -1 -1 -1 -1 -1 -1 -1 4 3 5 8 14 13 8 8 6 5 5 5 6 6 6 7 8 10 12 10 11 12 13 11 13 12 12 12 12 11 12 11 14 13 14 13
-1 -1 -1 -0 -0 0 1 1 -1 -1 -1 -1 -1 -1 -1 -1 -1 -0 2 3 3 7 15 16 11 8 7 6 6 6 6 7 8 9 9 10 9 9 10 12 12 11 11 12 13 13 12 12 13 12 13 13 13 14
-1 -1 -1 -0 -1 0 0 -1 -0 -1 -0 -1 -1 -1 -1 -1 -1 3 7 3 2 4 10 17 11 12 9 8 6 6 6 6 6 8 8 7 6 9 12 13 10 8 10 10 9 12 12 13 12 12 12 12 14 13
-0 -0 0 -0 -1 -1 -0 -0 -0 -0 -0 -1 -1 -1 -1 -1 1 5 7 6 1 2 8 13 18 13 10 8 8 8 6 6 6 7 8 8 9 8 10 13 9 7 8 10 11 13 13 12 12 11 11 14 15 16
-0 -0 0 -0 -0 -0 -0 -0 -0 -0 -1 -1 -1 -1 -1 -1 1 4 2 0 1 4 8 18 19 16 8 9 10 8 8 6 6 7 8 10 11 8 12 9 9 10 12 12 13 12 12 13 11 12 13 14 16 17
-0 -0 0 -0 -0 -0 -0 -0 -0 -1 -1 -1 -1 -1 2 3 6 5 -0 -0 2 6 11 11 17 20 9 9 8 8 7 10 7 9 9 10 12 13 10 9 9 10 13 14 14 15 15 12 11 13 14 15 17 18
0 0 -0 -0 -0 -0 -0 -0 -1 -1 -1 -1 2 5 8 5 1 1 4 7 7 6 7 16 20 18 10 9 12 14 12 13 14 12 9 11 12 9 10 15 16 16 18 18 17 14 14 13 13 14 15 15 16 18
-0 -0 -0 -0 -0 -0 -0 -0 -1 -1 -0 4 6 8 5 1 5 8 11 12 14 14 13 16 13 15 11 16 16 9 15 14 15 16 12 17 19 13 18 20 20 19 19 20 18 18 17 15 16 17 19 19 20 20
-0 -0 -0 -0 -0 -0 -0 -1 -1 2 3 4 5 4 6 8 10 12 16 15 18 18 21 13 15 11 15 11 13 13 15 16 17 14 15 21 16 22 22 22 24 24 23 21 20 21 21 22 21 22 23 23 23 23
-0 -0 -0 -0 -0 -0 -0 -1 -1 -0 1 4 7 9 10 12 15 17 20 21 23 25 16 12 13 12 9 8 11 13 16 17 14 15 18 19 24 26 27 26 25 26 24 23 24 24 25 27 26 25 26 26 27 27
-0 -0 -0 -0 -0 -0 -0 -1 -0 1 5 9 11 14 15 17 20 23 22 22 23 21 25 20 16 10 13 10 12 15 14 16 16 18 20 29 29 29 28 28 28 28 28 27 27 27 27 28 29 29 29 28 28 29
-0 -0 -0 0 -0 -0 -0 -1 2 7 9 11 13 18 20 24 24 27 29 24 26 26 24 21 17 10 11 12 10 14 17 17 16 19 32 31 30 30 30 29 29 29 29 29 28 28 29 29 30 30 30 29 29 30
-1 1 1 -0 -0 -0 0 3 7 10 18 18 26 24 26 24 28 30 32 28 25 24 22 22 19 12 16 16 16 16 17 22 28 33 32 31 31 31 31 30 30 30 30 30 30 30 29 30 30 31 30 30 30 30
1 8 0 1 2 3 3 10 12 17 19 21 26 29 32 30 32 34 31 27 24 25 18 19 18 16 16 17 25 34 30 33 35 33 31 31 32 32 31 31 30 30 30 30 30 31 31 29 28 29 32 32 32 32
6 3 1 2 7 8 12 12 16 19 24 24 26 32 30 32 34 36 32 26 26 26 23 22 23 24 25 22 28 33 32 34 31 31 30 30 31 31 30 31 30 30 31 30 30 29 29 29 30 31 31 30 30 31
4 4 3 3 8 16 17 17 17 23 24 25 24 26 29 32 29 28 30 26 25 26 26 27 30 31 32 32 33 32 31 31 32 30 29 29 29 30 30 30 30 30 30 30 30 31 31 30 30 29 29 28 30 30
6 5 5 6 8 16 20 21 19 23 27 24 26 29 28 29 30 33 31 29 29 33 35 36 37 36 33 31 31 31 31 28 29 30 30 30 29 29 30 30 30 29 30 29 29 29 29 30 30 30 29 29 30 32
11 11 10 13 17 18 21 22 22 22 24 26 26 26 27 29 34 36 35 29 34 36 36 37 38 37 32 31 30 30 29 28 28 29 30 31 30 29 30 30 30 30 30 31 32 32 32 33 32 31 31 32 32 31
16 12 20 18 19 21 23 23 22 21 25 28 27 27 30 32 31 33 30 33 34 36 36 36 36 37 36 34 32 32 30 29 29 29 29 29 31 31 32 31 31 33 33 32 32 33 33 32 31 31 32 32 31 32
17 18 24 25 25 26 28 25 28 29 31 30 29 30 31 33 31 26 33 35 35 31 34 35 34 32 33 32 31 31 29 29 31 31 31 32 32 31 32 32 31 32 33 33 32 32 32 31 31 32 31 32 32 33
21 29 33 34 33 37 34 34 31 32 32 32 32 33 34 33 28 32 38 37 34 32 32 32 32 33 32 31 34 33 33 30 31 31 31 32 33 35 33 33 33 33 33 32 32 33 33 33 32 33 33 34 35 36
30 38 36 42 37 38 39 40 38 34 37 35 33 33 33 31 34 39 39 38 34 33 32 32 33 33 35 34 32 32 31 31 32 33 33 33 34 33 34 34 35 35 34 32 33 33 34 34 34 34 35 35 36 37
42 40 42 46 41 42 42 43 43 42 41 39 38 34 32 32 34 38 41 36 34 34 34 35 36 34 34 33 32 32 33 33 30 33 33 32 31 31 32 32 32 34 35 35 34 34 35 35 36 37 37 37 36 39
41 42 40 40 41 39 40 39 41 42 45 44 42 37 32 35 37 37 34 32 35 36 33 33 34 32 33 33 32 33 33 33 32 33 33 33 33 33 31 31 32 33 35 36 36 35 35 35 35 36 37 38 42 42
39 39 41 40 41 46 48 47 47 46 44 39 40 40 39 39 39 35 33 31 35 34 35 35 34 34 35 33 32 31 32 32 32 33 33 33 33 33 34 34 34 31 34 35 35 35 37 38 40 42 42 40 38 41
36 36 38 41 42 41 42 44 45 44 38 43 42 40 41 38 38 38 35 33 32 32 33 34 37 37 36 34 33 33 32 31 31 31 31 31 31 32 34 35 36 36 37 39 34 29 33 37 37 36 36 37 37 42
35 35 37 40 41 41 38 38 41 37 35 33 33 32 34 35 36 34 34 35 34 33 35 40 41 40 37 34 32 32 33 33 32 32 31 31 32 34 35 36 37 41 44 48 40 40 36 37 39 43 42 41 40 38
32 35 36 37 36 36 37 36 35 34 32 35 34 36 35 35 32 32 33 37 37 36 38 39 40 40 40 36 36 34 32 35 36 36 37 38 41 44 43 41 41 45 48 46 43 45 42 42 44 43 41 39 38 36
34 38 35 33 34 35 36 35 34 34 34 34 34 34 34 34 33 33 33 37 39 37 34 36 39 35 36 37 39 38 34 39 39 37 40 39 40 40 41 41 42 44 44 41 40 41 41 41 39 38 37 38 37 37
43 41 39 36 36 35 37 39 34 34 35 35 36 39 38 37 34 33 33 35 34 33 33 34 34 39 40 39 39 40 37 40 40 32 29 30 32 33 36 36 36 37 37 36 36 36 37 37 37 37 37 36 36 35

GFSWCAN_con_lsi_054.txt.gz
Lid_Strength_Index
2 2 2 3 3 2 2 1 0 -0 -1 -1 -1 -1 -1 -1 -2 1 3 1 4 8 8 7 7 9 9 9 11 11 10 10 10 12 13 13 13 12 12 11 12 13 15 15 15 17 18 9 9 12 9 9 9 9
-1 -0 0 1 1 2 1 1 0 0 -1 -1 -1 -1 -1 -1 -1 -1 4 1 1 5 7 5 5 5 5 6 7 9 9 11 8 10 10 10 12 11 12 15 9 14 11 13 13 13 9 8 8 7 8 9 8 8
-1 -1 -1 -1 -0 0 1 0 -0 0 -0 -1 -1 -1 -1 -1 -1 -1 3 2 3 7 7 8 8 5 4 4 3 9 8 7 7 6 8 9 12 10 13 13 12 9 9 11 11 10 9 8 8 8 7 7 7 8
-1 -1 -1 -1 -1 -0 0 -0 0 -0 0 -1 -1 -1 -1 -1 -1 -1 3 2 3 6 10 9 6 6 4 4 4 4 5 5 5 6 8 9 11 8 11 10 11 9 9 10 10 9 8 8 7 7 7 7 7 7
-1 -1 -1 -1 -1 -1 -0 -1 0 -0 1 1 -1 -1 -1 -1 -1 -0 2 1 1 5 10 11 9 6 4 5 5 4 5 6 7 9 9 10 8 9 8 9 11 8 10 11 12 8 8 8 7 9 9 8 8 9
-1 -1 -1 -1 -1 -1 -1 -1 -0 -0 1 0 -0 -1 -1 -1 -1 1 7 2 1 2 8 12 8 9 7 5 5 6 6 6 7 8 9 8 6 8 11 12 9 7 6 7 9 6 6 6 7 8 9 9 9 11
-1 -1 -1 -1 -1 -1 -1 -0 1 1 1 -0 -0 -0 -1 -1 0 5 6 3 0 2 7 11 11 10 8 8 7 7 6 7 7 8 9 9 8 7 10 12 9 7 6 6 5 7 8 8 9 8 9 9 11 13
-0 -1 -1 -0 -0 -1 0 1 1 1 1 -0 -0 -0 -1 -1 1 5 2 0 1 5 6 13 13 12 8 10 10 7 8 8 8 8 8 9 8 8 12 10 8 7 7 7 7 7 7 8 10 9 11 12 12 14
-0 -0 -0 0 -0 -0 1 1 -0 -0 -0 -0 -0 -0 1 3 6 5 0 -1 2 5 10 12 14 14 8 9 8 8 6 10 7 10 10 8 10 12 10 9 8 6 7 7 10 11 11 12 10 9 11 12 13 15
-0 -0 0 0 -0 -0 0 -0 -0 -0 -0 -0 1 6 8 5 0 1 4 7 7 7 10 12 13 13 9 10 10 9 8 9 12 10 7 10 11 8 8 8 12 13 13 14 13 13 13 12 11 10 11 12 12 15
-0 -0 -0 0 -0 -0 -0 -0 -0 -0 0 5 7 8 4 1 5 7 10 10 11 11 10 12 12 12 9 11 11 9 11 10 14 11 11 12 13 10 18 18 19 19 17 17 17 15 15 15 12 12 14 14 15 16
-0 1 -0 -0 -0 -0 -0 -0 -0 4 5 5 5 4 5 7 9 11 13 13 13 15 14 12 11 9 10 9 10 11 11 13 16 12 13 15 12 22 24 23 23 23 22 21 20 19 19 18 18 17 18 18 19 19
-0 -0 0 -0 -0 -0 -0 -0 -0 1 3 5 7 8 9 12 14 15 17 17 16 17 14 12 12 10 9 8 10 12 14 14 14 15 16 14 24 26 27 26 25 23 23 21 21 21 22 23 22 21 23 23 23 24
-0 -0 -0 -0 -0 -0 -1 -0 -0 1 5 8 11 14 14 15 16 17 16 16 19 17 17 13 13 10 11 11 10 12 11 14 16 19 17 26 28 29 28 26 27 26 25 24 23 23 25 26 27 27 26 24 25 27
-0 -0 -0 0 -0 -0 -0 0 3 8 9 11 11 15 18 22 23 24 24 23 24 22 20 17 15 10 11 11 10 11 15 18 17 16 25 28 29 28 28 28 28 27 27 26 26 26 27 27 28 29 28 27 27 27
-0 -0 1 -1 -1 -0 2 6 9 13 19 19 24 20 22 21 22 26 27 26 24 22 22 19 18 15 13 12 14 15 16 17 18 29 30 29 29 29 29 29 28 28 28 28 28 28 28 29 29 30 29 28 28 27
0 3 1 1 2 3 4 11 14 19 22 23 27 28 28 28 29 29 28 26 23 23 18 16 18 15 15 15 19 27 21 30 30 30 29 28 29 29 29 29 29 29 29 29 29 29 28 28 27 28 30 30 29 29
6 3 1 2 6 8 12 13 17 21 28 26 28 30 29 29 29 29 29 26 25 23 21 19 19 19 18 21 23 29 29 28 29 29 28 28 28 28 29 29 29 29 29 29 28 28 28 28 29 30 29 28 29 29
5 5 3 4 7 13 15 17 17 24 26 26 26 26 27 29 27 27 28 25 25 25 24 24 23 23 26 29 30 30 29 29 29 29 28 28 27 28 29 28 29 29 29 29 29 29 29 29 28 27 27 27 28 28
6 6 5 6 9 16 20 20 18 22 24 25 24 27 27 27 28 30 28 28 27 29 31 32 32 34 32 30 29 30 30 28 28 29 28 28 28 28 29 28 28 28 29 29 28 28 28 29 28 28 28 28 29 29
11 11 10 14 18 20 23 23 22 23 23 24 24 24 27 28 31 31 31 28 31 34 34 34 34 32 33 33 31 30 30 28 28 27 28 29 28 28 29 29 28 29 29 29 30 30 30 31 30 29 30 30 30 29
16 12 19 17 19 24 24 24 22 22 24 26 25 26 30 32 33 31 30 33 33 34 33 33 35 34 34 36 34 33 31 31 29 27 28 28 30 30 30 30 30 31 31 31 31 31 31 30 30 30 30 31 30 30
17 18 24 25 24 25 28 26 28 29 28 27 27 29 31 32 31 26 34 35 34 31 33 35 36 36 34 34 35 34 34 33 31 30 30 31 31 31 31 31 30 31 32 32 30 31 31 30 30 30 30 30 30 31
21 29 33 33 31 35 34 33 30 32 32 33 33 36 36 35 29 33 37 39 34 32 34 35 34 32 31 32 32 33 33 30 30 30 30 30 32 33 32 32 32 32 31 31 31 31 31 32 31 31 31 32 32 32
28 38 35 40 36 36 38 39 38 34 38 39 36 35 34 33 35 39 37 35 34 34 33 33 34 32 33 33 32 31 31 29 30 31 31 31 32 32 32 33 33 33 32 31 32 32 32 32 32 32 32 33 33 33
42 41 41 46 40 40 41 42 42 42 43 41 41 37 36 33 33 37 38 35 36 37 35 33 33 36 36 34 32 32 33 31 29 30 31 30 30 30 31 31 31 32 33 33 32 33 33 33 33 34 33 34 34 35
41 43 40 42 41 39 40 40 42 42 45 43 44 41 38 37 38 38 33 32 34 35 33 33 34 33 34 35 32 32 32 31 31 31 31 31 32 32 31 30 31 32 33 33 34 34 34 34 34 34 34 34 34 35
40 41 41 42 42 47 48 49 48 46 44 41 42 43 42 39 39 36 32 31 35 35 36 35 34 35 35 34 33 32 31 31 31 31 31 31 32 32 32 32 32 29 32 33 33 33 34 35 35 35 36 37 36 35
39 40 41 43 44 43 44 45 46 45 40 46 43 42 42 40 42 40 35 34 34 35 38 37 36 37 36 35 35 34 32 30 30 30 30 29 30 31 32 32 33 33 33 34 33 29 30 33 33 34 35 35 35 36
36 39 40 43 42 42 40 40 44 42 43 39 38 36 37 39 39 39 39 39 38 38 38 38 37 35 35 38 36 33 32 31 30 29 29 29 29 31 32 32 33 33 35 37 36 35 34 34 36 38 37 37 36 36
34 40 39 39 37 37 38 37 37 37 35 36 37 39 37 36 33 36 35 36 36 42 41 41 41 43 42 40 39 37 33 32 32 31 32 33 33 34 34 34 34 36 39 39 39 39 39 39 40 40 39 39 38 36
35 39 36 36 35 37 39 39 37 37 36 35 36 35 34 34 34 33 32 35 35 37 36 36 38 34 35 35 38 39 33 37 34 33 33 33 34 34 34 35 38 41 41 39 40 40 40 41 40 38 37 36 36 36
42 40 39 37 36 36 38 40 35 35 35 35 36 38 37 35 32 32 32 32 32 31 32 32 33 37 38 37 35 35 34 37 38 31 29 29 31 32 36 38 39 39 38 37 36 36 37 37 36 36 36 36 36 35

GFSWCAN_con_lsi_057.txt.gz
Lid_Strength_Index
2 2 3 3 3 3 2 3 3 3 2 2 1 0 -0 -1 -1 -0 3 1 4 7 6 6 6 7 7 7 10 10 9 10 10 12 13 13 13 12 13 12 12 13 14 15 14 16 18 8 8 12 9 8 8 8
2 2 2 2 2 2 2 2 2 3 2 1 1 -0 0 -1 -1 -1 3 1 1 4 6 4 4 4 4 5 6 8 8 8 8 10 10 9 12 10 12 15 10 13 11 12 12 13 8 7 8 6 7 8 8 8
-0 -0 -1 -1 -0 1 2 2 2 2 2 2 1 -0 -0 -1 -1 -0 3 2 2 6 7 6 7 4 3 3 3 8 7 6 7 5 8 9 12 9 13 12 11 9 8 11 10 9 8 7 6 6 6 7 6 6
-1 -1 -1 -1 -1 -1 -0 -0 1 2 2 1 0 -0 0 -1 -1 -1 3 1 3 5 9 8 5 5 3 3 3 3 5 4 5 5 8 10 11 8 11 10 11 9 9 10 10 9 8 7 6 5 5 5 5 5
-1 -1 -1 -1 -1 -1 -1 -1 -1 0 1 1 0 0 1 -1 -1 -0 2 1 1 4 8 8 7 4 4 4 4 4 4 5 7 9 10 11 8 9 9 9 11 9 10 11 11 8 8 8 6 5 5 6 5 5
-1 -1 -1 -1 -1 -1 -1 -1 -1 -0 0 0 -0 0 1 -1 -1 3 7 2 1 2 7 10 6 7 5 5 5 5 5 6 7 8 9 8 6 8 11 12 9 8 6 6 8 6 6 6 5 4 5 5 5 6
-1 -1 -1 -1 -1 -1 -1 -1 -1 -1 -0 -0 1 0 1 -0 1 4 6 3 0 2 7 10 9 8 6 5 5 6 5 6 7 8 9 8 8 7 10 13 10 8 7 7 6 6 7 6 7 5 6 6 7 8
-1 -1 -1 -1 -1 -1 -1 -1 -1 -1 -1 -1 -0 0 1 -0 0 4 2 0 1 5 6 10 11 10 6 8 9 6 8 7 7 8 8 9 8 8 12 10 9 8 7 7 7 6 6 6 6 7 7 8 9 9
-0 -0 -0 -0 -0 -0 -0 -1 -1 -1 -1 -1 0 1 1 3 7 6 1 -0 2 5 10 10 12 12 7 8 7 8 7 11 7 10 10 9 11 13 11 10 9 8 9 9 10 10 9 9 8 8 8 8 9 8
-0 -0 -0 0 -0 -0 -0 -0 -1 -1 -0 0 3 5 8 6 1 1 5 7 7 8 8 10 8 12 8 8 9 9 8 10 12 10 8 10 12 9 9 9 16 16 16 16 15 12 12 12 11 10 10 9 8 9
-0 0 0 1 0 -0 -0 -0 -0 -0 1 5 8 8 5 1 5 7 10 10 10 11 9 10 8 11 7 10 10 8 10 9 13 11 11 12 13 10 18 18 19 19 18 18 18 18 17 16 16 15 14 10 10 11
0 0 0 1 0 0 0 0 0 2 5 5 6 5 6 8 9 12 14 12 12 13 11 10 10 7 8 7 8 10 11 11 15 10 12 15 12 21 23 23 22 22 22 22 20 20 19 19 19 19 17 14 14 14
0 0 0 0 -0 1 1 1 1 1 2 5 7 9 10 12 14 15 17 16 15 13 11 10 11 9 9 8 9 11 13 14 11 14 15 13 22 24 26 25 25 24 23 23 22 21 21 22 23 22 20 20 18 19
0 1 0 0 -0 0 1 2 2 3 5 9 11 15 13 15 14 14 12 13 16 12 11 9 11 10 9 10 10 13 11 12 15 16 16 17 26 27 26 25 26 26 26 25 24 23 23 24 24 24 23 21 21 22
-0 -0 0 0 0 1 2 4 6 11 12 14 11 16 17 21 22 22 20 18 21 17 12 12 11 9 10 11 10 11 15 16 14 14 19 24 27 27 27 27 27 26 26 26 25 25 25 25 26 26 25 24 24 25
1 1 2 1 1 2 4 7 11 12 20 20 24 19 20 18 21 20 20 22 21 18 16 12 12 12 12 11 12 13 14 15 14 24 25 25 27 27 27 27 27 26 26 26 26 26 26 27 27 28 28 28 26 26
2 4 2 2 4 5 6 12 14 20 22 22 26 26 24 23 24 26 23 23 21 18 14 13 16 15 13 14 14 16 14 24 27 26 26 26 27 28 28 27 27 27 27 27 26 26 26 26 26 28 30 29 28 28
7 5 3 3 5 8 13 13 18 21 25 25 25 27 26 25 25 25 25 23 22 19 17 15 15 15 15 16 14 23 25 25 25 26 26 26 26 27 27 28 27 27 27 27 27 26 26 27 28 29 28 27 28 28
5 5 5 5 7 12 15 17 16 24 25 24 24 24 25 26 26 25 25 23 23 22 19 19 17 16 18 24 25 26 26 27 27 26 25 25 26 28 27 27 27 27 28 28 27 28 28 28 27 26 26 26 27 27
6 6 6 7 8 13 18 19 16 21 23 24 23 25 26 26 26 26 26 25 24 23 23 23 24 28 27 28 27 28 28 27 27 27 25 25 26 26 27 27 27 26 27 27 27 26 27 28 28 28 27 27 28 29
10 10 10 12 16 17 20 20 21 21 22 24 23 23 26 25 28 28 27 26 26 29 28 30 29 29 29 29 28 28 28 27 27 26 26 27 26 27 27 27 27 27 27 28 29 29 29 30 29 28 29 29 28 28
15 12 16 15 17 19 22 22 21 20 22 24 24 24 26 26 28 28 26 27 30 31 30 30 30 30 29 30 30 29 29 30 27 26 26 26 27 28 29 28 28 29 29 29 29 30 30 29 28 28 29 29 29 29
16 17 21 22 21 22 26 22 23 24 24 25 25 27 29 28 28 25 30 31 30 29 29 30 30 32 31 31 32 31 31 30 28 28 28 28 28 28 29 29 28 29 30 30 29 29 30 29 29 29 28 29 29 29
20 28 30 30 27 29 27 29 26 26 25 26 27 28 30 29 26 28 30 31 30 29 30 31 30 29 29 32 30 31 30 28 28 28 28 28 30 30 29 30 30 30 30 29 29 30 30 30 29 29 29 30 30 30
24 36 31 35 31 31 32 32 32 28 31 32 30 30 30 28 29 31 31 31 30 30 30 30 30 29 30 30 29 30 31 28 28 30 29 29 30 30 30 30 31 31 30 29 30 30 30 30 30 30 30 31 31 31
38 37 35 36 35 34 35 34 36 35 34 33 34 32 30 29 30 29 32 31 31 31 31 31 31 30 30 30 30 29 30 30 27 29 29 28 28 27 28 29 29 31 31 30 30 31 31 31 31 32 31 32 32 33
38 38 35 34 34 34 35 35 35 34 36 36 36 34 32 33 31 32 31 30 30 31 30 30 31 30 30 30 30 31 30 30 30 29 29 29 29 29 28 28 28 30 31 31 31 32 32 32 32 32 32 32 32 33
35 34 38 37 37 38 40 39 39 39 37 36 37 36 35 33 33 32 30 29 30 31 32 32 31 31 30 30 30 30 30 30 30 29 29 29 29 29 30 30 29 28 31 31 31 32 33 33 33 33 33 33 34 33
35 34 34 41 39 36 38 38 38 36 35 36 36 35 35 33 32 32 30 30 30 31 32 32 32 32 31 31 31 31 30 30 30 32 30 28 28 29 30 30 30 30 31 32 31 28 29 30 31 31 32 33 33 33
35 34 36 40 40 37 34 35 36 36 36 34 34 33 33 33 32 32 32 33 32 32 32 32 32 33 32 32 32 31 31 30 30 29 29 28 28 29 29 30 30 30 31 33 33 33 31 31 33 35 34 35 35 35
32 35 35 34 35 33 33 34 35 35 35 34 34 35 34 33 31 31 32 32 33 35 35 35 35 35 35 33 33 33 32 31 33 32 30 30 30 30 30 30 30 31 33 34 35 35 35 36 36 37 37 37 37 36
34 36 35 36 34 34 35 35 34 35 34 35 35 35 35 34 33 29 30 32 34 34 33 32 35 33 33 32 33 33 32 34 33 32 33 31 31 31 31 32 34 36 36 36 36 37 37 38 37 37 36 36 36 36
38 37 38 37 36 35 37 39 35 36 35 35 35 37 35 34 32 29 30 30 30 30 30 30 30 31 32 34 33 32 32 33 33 29 27 28 29 30 32 34 35 36 37 36 35 35 36 36 36 36 35 35 35 34

GFSWCAN_con_lsi_060.txt.gz
Lid_Strength_Index
2 2 2 2 3 3 3 3 3 3 2 2 2 2 1 1 1 0 3 2 5 9 9 7 7 9 10 9 13 12 12 13 13 16 17 17 19 16 17 15 16 16 18 17 17 17 18 10 10 12 10 10 11 10
2 2 2 2 2 2 3 3 3 3 3 3 2 2 2 1 1 1 3 2 2 6 9 5 5 5 5 6 8 12 12 13 11 14 15 16 19 16 18 22 12 17 13 15 13 14 9 9 10 7 8 9 9 9
1 1 1 2 2 2 2 2 2 3 3 3 3 3 2 1 0 1 3 2 3 7 8 9 9 6 4 5 3 10 10 8 10 8 12 14 18 14 19 17 17 14 13 15 16 13 11 10 8 8 7 8 8 8
-0 -0 -1 -0 1 1 1 1 2 2 3 2 2 2 2 2 1 0 5 2 3 6 9 10 6 7 4 4 4 5 6 6 7 9 13 15 17 11 15 13 15 13 13 16 15 13 12 11 9 8 8 7 7 7
-1 -1 -1 -1 -1 -1 -1 -1 -0 1 2 2 2 2 2 2 1 2 3 2 2 5 10 10 9 6 4 4 5 5 5 7 10 11 15 16 13 13 14 12 14 12 12 14 14 11 10 10 9 8 9 9 8 7
-1 -1 -1 -1 -1 -1 -1 -1 -1 -1 -0 1 2 2 2 1 0 3 7 3 2 3 8 12 8 9 7 5 5 6 6 8 9 10 13 12 9 12 18 19 11 10 9 8 10 8 8 8 7 8 8 7 7 8
-1 -1 -1 -1 -1 -1 -1 -1 -1 -1 -1 -1 0 1 2 1 1 5 7 5 1 3 7 11 12 9 7 7 8 8 7 7 7 9 12 12 11 10 15 15 12 10 9 8 8 9 10 9 9 8 8 8 9 9
-1 -1 -1 -1 -1 -1 -1 -1 -1 -1 -1 -1 -1 -0 1 0 0 5 2 1 1 6 7 11 13 11 6 8 9 6 8 7 8 11 13 12 12 13 17 12 10 10 9 9 8 9 10 10 9 10 10 10 11 10
-0 -0 -0 -0 -0 -0 -1 -1 -1 -1 -1 -1 -1 -1 1 2 5 5 1 0 3 6 11 12 14 15 8 9 9 9 8 11 9 13 12 12 16 17 12 11 10 12 13 15 15 15 14 13 12 12 12 13 13 11
-0 -0 -0 -0 -0 -0 -0 -0 -1 -1 -1 -1 1 4 7 5 2 1 4 7 8 9 8 11 13 14 9 10 13 13 13 14 15 13 10 16 17 10 10 16 17 18 19 19 20 18 20 19 18 17 17 16 15 14
0 -0 0 0 0 -0 -0 -0 -0 -0 -0 2 5 6 4 1 5 7 10 11 11 13 10 11 13 13 9 12 14 10 16 15 20 17 15 20 19 12 19 21 20 20 21 22 23 22 21 21 21 20 20 19 19 17
0 1 1 0 0 0 -0 -0 -0 1 3 3 4 3 5 8 10 13 14 13 12 14 13 12 11 10 11 10 14 15 17 16 21 17 18 23 15 23 25 24 24 24 25 26 25 25 23 22 23 23 24 23 21 20
0 1 0 0 0 -0 -0 -0 -0 0 1 3 6 9 11 12 15 16 18 16 17 14 14 12 13 11 11 10 14 14 18 19 18 21 21 17 23 26 28 27 27 27 29 29 28 27 26 26 26 27 26 25 23 21
1 1 1 0 -0 -0 -0 -0 -0 1 5 9 11 16 14 16 15 17 19 18 16 13 11 11 14 12 12 14 13 17 16 16 21 24 21 24 30 31 29 28 31 28 28 28 29 28 26 27 27 27 27 25 24 24
2 1 2 2 2 2 3 4 6 11 13 14 14 19 22 23 24 23 21 22 21 17 13 13 12 11 14 13 12 15 19 23 20 20 25 29 30 30 30 30 31 30 28 28 27 27 28 29 29 30 28 26 25 25
2 2 3 3 3 4 6 9 13 14 20 22 27 21 20 21 23 23 22 25 23 20 17 14 16 17 18 16 20 22 21 22 19 32 32 30 32 32 32 32 31 30 30 29 29 29 29 30 30 29 28 27 27 26
4 7 2 2 4 7 8 15 17 22 24 24 27 27 26 26 28 28 25 25 22 20 19 18 21 22 19 22 22 21 19 28 34 34 32 32 32 32 32 29 31 32 31 31 30 29 28 27 27 28 29 28 27 28
9 7 4 4 7 11 16 16 21 23 27 27 28 29 28 28 26 27 26 25 24 23 22 22 19 23 23 23 22 30 32 33 32 31 30 31 32 33 33 32 31 33 32 31 28 26 26 26 27 27 27 27 28 28
8 7 6 5 9 16 20 21 21 28 27 26 25 26 27 28 27 26 27 25 26 27 25 24 23 25 27 32 34 34 34 33 33 30 30 32 30 33 32 31 31 31 31 31 30 28 27 27 27 26 27 27 28 28
7 7 7 8 9 18 23 23 20 25 28 26 25 28 28 29 28 29 30 27 26 28 28 30 35 36 34 33 33 34 33 32 33 34 31 29 29 31 30 28 29 28 28 28 28 26 27 28 28 28 28 28 29 29
11 12 10 14 19 21 24 24 25 24 25 27 25 26 27 28 31 31 32 28 30 32 34 36 37 38 38 38 36 35 33 31 33 33 32 32 31 31 30 27 28 28 28 28 29 29 29 30 29 29 29 30 30 29
16 12 19 16 20 24 25 25 24 23 26 27 26 27 30 32 33 34 30 31 33 35 36 36 37 37 37 37 38 38 38 38 35 32 30 30 33 34 33 30 28 30 30 30 29 30 30 29 29 29 29 30 29 29
16 17 21 23 24 26 30 24 28 29 30 29 29 31 31 33 31 27 33 36 35 33 35 37 38 39 38 38 39 38 38 38 36 35 35 35 34 34 34 32 29 29 31 30 29 29 30 29 29 29 29 29 29 29
20 28 29 30 29 32 30 30 27 29 30 31 29 33 34 33 29 29 35 38 36 34 37 38 38 37 37 38 38 39 38 37 36 36 35 35 37 37 35 34 33 30 29 29 29 30 30 30 29 29 30 30 30 30
24 36 33 36 32 33 33 34 34 32 35 33 31 31 32 33 33 35 35 38 36 38 37 38 38 36 38 38 37 38 37 36 35 37 36 37 36 36 35 35 34 33 31 29 30 30 30 30 30 30 30 31 32 32
39 40 39 40 38 37 38 38 39 40 37 36 38 36 36 35 36 35 38 39 39 39 39 39 39 38 38 37 37 36 37 37 35 34 35 36 35 35 35 34 33 32 32 32 31 31 31 31 31 32 32 32 31 33
41 42 38 37 38 37 39 39 40 39 41 41 42 40 38 37 37 38 38 36 36 38 37 38 38 37 37 37 36 37 35 35 34 34 36 36 35 35 34 34 32 31 31 31 31 31 32 32 32 32 33 33 34 33
40 39 42 42 42 42 45 44 44 44 41 40 41 40 39 37 37 38 36 34 37 37 38 38 38 37 36 34 34 33 35 35 33 35 36 36 35 34 33 32 30 26 29 29 30 30 31 32 32 32 32 33 33 32
41 40 40 44 44 41 43 44 44 42 40 43 42 40 41 38 40 41 37 36 38 38 39 39 37 40 39 38 38 38 38 37 36 37 37 36 35 34 32 31 30 30 30 31 29 27 28 29 30 30 31 32 33 35
40 41 42 45 42 42 41 41 43 44 43 41 42 38 39 40 39 39 39 41 40 40 40 39 36 38 39 39 37 37 38 37 36 35 35 35 34 35 34 33 32 31 31 33 32 33 30 31 33 36 36 37 38 38
38 42 41 40 41 41 40 41 42 42 43 44 44 43 42 41 37 40 37 39 40 42 41 41 42 43 41 40 40 39 36 34 32 33 36 37 37 37 36 34 33 33 33 33 34 36 35 36 38 39 39 38 38 37
42 44 40 39 39 41 43 44 43 43 44 44 43 44 42 42 40 37 35 37 41 41 37 38 39 35 35 34 38 38 32 37 38 35 36 35 36 36 36 36 37 39 39 37 37 38 38 39 39 38 38 38 37 37
45 45 45 42 41 41 44 44 42 42 43 43 43 45 45 42 38 34 35 35 34 32 34 33 33 37 36 35 35 35 33 35 36 29 27 27 30 31 36 37 38 38 39 38 37 37 37 37 37 37 37 36 36 35

GFSWCAN_con_lsi_063.txt.gz
Lid_Strength_Index
2 2 2 2 2 2 2 2 2 3 3 3 3 2 2 1 1 2 4 3 6 9 12 9 8 11 12 11 15 13 11 11 12 15 15 18 22 17 18 16 14 14 15 15 14 16 18 11 11 12 11 11 10 10
2 2 2 2 2 2 2 2 2 2 3 3 3 3 3 2 2 1 7 3 2 7 10 7 7 7 7 8 12 14 14 15 12 16 18 18 20 20 21 22 14 18 14 17 14 14 11 10 10 8 7 8 9 9
2 2 2 2 2 2 1 2 2 2 2 2 2 2 2 2 2 2 5 4 3 8 9 10 10 8 6 6 6 12 14 10 11 11 16 18 19 16 20 20 18 15 14 16 15 14 14 11 9 7 6 7 9 9
0 1 1 1 2 2 1 1 1 2 2 2 2 2 2 2 2 1 4 4 4 7 9 11 8 8 6 6 6 7 8 8 8 11 16 19 20 12 17 14 16 14 14 17 17 14 13 12 11 10 9 8 9 9
-1 -1 -1 -1 -0 0 0 0 1 1 1 2 2 2 2 2 2 3 3 4 3 6 10 13 11 8 6 6 7 7 8 9 13 14 16 18 15 15 16 13 17 13 13 15 17 12 12 11 10 9 10 10 9 10
-1 -1 -1 -1 -1 -1 -1 -1 -1 -0 1 1 2 2 2 2 2 5 8 4 3 3 9 12 10 10 9 6 6 7 7 8 10 12 16 15 10 13 21 23 12 11 11 10 11 9 9 9 9 9 9 9 9 9
-0 -1 -1 -1 -1 -1 -1 -1 -1 -1 -1 -0 0 1 2 1 3 7 8 8 2 2 8 12 12 11 8 8 9 7 8 8 9 11 14 13 11 11 19 19 12 11 11 10 9 10 11 10 10 10 9 9 10 11
-1 -1 -1 -1 -1 -1 -1 -1 -1 -1 -1 -1 -1 -1 0 0 1 5 4 1 1 5 7 12 14 10 6 10 10 8 8 8 9 12 14 13 12 14 17 13 11 10 10 10 10 11 12 12 12 11 11 12 13 13
-0 -0 -0 -0 -0 -0 -1 -1 -1 -1 -1 -1 -1 -1 1 2 5 7 2 1 1 5 10 13 14 15 8 10 9 10 8 12 10 13 12 12 18 17 13 11 11 15 14 16 17 16 16 16 16 16 17 17 17 16
-0 -0 -0 -0 -0 -0 -0 -0 -1 -1 -1 -1 1 4 6 4 0 1 4 5 6 7 8 12 12 15 9 12 13 13 12 15 15 15 10 14 18 11 11 17 19 19 20 20 21 18 22 22 21 21 21 20 19 18
-0 -0 0 -0 -0 0 -0 -0 -0 -0 -1 2 5 6 5 -0 3 5 8 9 10 12 10 11 11 13 11 15 16 11 14 13 16 17 15 21 21 11 20 21 21 21 22 23 24 23 23 23 23 23 23 23 23 23
0 0 0 0 0 0 0 -0 -0 1 4 2 3 2 4 5 7 10 11 10 11 14 11 11 11 11 10 9 12 12 14 15 18 19 18 24 16 24 25 24 25 25 27 28 28 27 26 25 25 26 26 26 26 25
0 0 0 0 0 0 -0 -0 -0 -0 0 2 5 7 9 10 14 15 16 16 16 13 12 11 13 12 11 10 13 14 17 17 15 17 20 18 24 27 29 28 28 29 32 32 31 29 29 29 29 30 28 27 28 27
1 0 1 -0 -0 -0 -0 -0 -0 0 4 7 9 13 13 13 14 16 14 14 15 12 10 11 17 14 13 16 15 18 17 16 23 27 22 24 29 32 31 31 33 31 32 30 30 30 30 30 30 30 31 30 29 27
2 2 1 1 0 1 1 2 4 11 12 14 13 18 20 22 22 22 21 21 19 10 11 14 15 13 17 15 15 18 21 22 22 21 22 30 31 31 32 33 34 34 32 33 33 33 31 31 32 32 32 31 30 28
3 4 4 2 4 3 5 10 13 14 19 22 26 20 21 20 22 25 24 22 22 18 16 13 15 15 16 15 20 23 22 23 20 28 33 31 34 35 35 35 34 34 34 34 34 34 32 33 32 31 32 31 29 28
5 10 4 3 5 7 8 14 17 21 23 24 27 27 28 26 28 27 26 25 23 19 17 17 18 18 17 21 23 23 22 27 34 37 36 34 34 35 36 36 35 35 35 35 35 34 33 34 34 33 33 29 27 27
11 9 5 5 9 12 17 17 21 23 27 27 28 29 29 29 28 28 27 25 24 22 19 19 18 22 23 24 25 29 32 35 38 36 34 35 36 37 37 36 35 36 35 35 35 34 33 32 31 30 29 27 27 27
10 8 6 7 11 18 20 21 21 27 27 26 25 25 27 28 27 27 27 26 25 24 20 20 19 22 25 32 33 36 36 35 34 32 33 35 34 36 36 36 34 35 34 33 33 32 31 30 30 27 26 27 28 28
7 8 8 9 13 20 24 25 22 26 28 27 27 29 29 29 28 28 29 28 26 27 30 32 36 36 34 35 36 36 37 36 35 36 32 32 33 36 34 35 33 33 33 33 31 28 30 29 28 28 28 28 29 29
13 13 12 17 22 24 26 26 25 25 27 28 27 28 28 28 31 32 33 30 31 35 35 38 39 39 42 42 41 39 36 34 36 35 35 35 33 34 34 34 34 33 32 30 31 30 29 30 28 28 29 29 29 29
18 12 22 19 23 27 27 27 27 25 27 29 29 30 32 32 33 33 31 33 36 38 40 40 42 43 42 40 41 42 41 42 41 37 33 34 35 35 36 36 35 36 34 30 29 29 29 28 28 28 29 29 29 29
17 18 23 25 26 28 32 28 31 31 30 30 30 31 33 35 33 28 35 39 39 36 42 42 42 44 41 43 43 42 42 40 40 40 39 39 40 40 38 38 37 36 34 31 28 28 29 28 28 28 28 28 28 29
21 30 31 32 31 36 34 33 31 32 31 31 31 35 36 37 31 32 38 43 39 39 39 40 42 40 39 39 41 41 40 41 40 40 40 38 39 39 40 39 38 37 34 31 29 28 28 29 28 29 29 29 29 30
25 37 35 38 36 36 37 38 37 34 38 39 37 37 36 39 35 37 36 41 41 42 40 43 42 40 40 43 41 40 40 38 37 38 39 40 41 40 38 39 38 37 36 34 33 31 30 29 29 29 30 30 31 31
40 42 40 46 40 39 42 41 43 42 42 41 41 40 42 38 35 34 39 41 42 42 41 41 40 40 40 41 39 39 38 41 39 38 38 38 37 37 39 37 36 34 36 36 34 34 34 31 31 31 31 31 31 32
40 43 40 41 41 41 41 42 43 41 43 42 44 42 41 36 37 38 41 40 39 41 41 41 41 40 40 40 40 41 41 41 37 36 36 37 34 34 35 35 34 33 36 35 35 35 35 33 32 31 31 31 32 32
42 43 41 43 42 46 46 46 46 44 43 42 43 40 38 38 37 39 37 36 41 41 41 43 42 41 40 39 39 38 38 39 38 37 38 37 38 37 37 37 35 26 32 31 31 31 31 31 31 31 31 31 31 31
41 44 42 43 44 42 45 44 45 45 42 47 42 41 41 40 42 43 39 38 43 41 42 42 40 43 41 40 40 41 39 37 36 36 37 37 37 33 36 36 35 34 34 34 28 25 28 29 29 29 29 30 30 31
41 45 43 46 42 42 42 43 45 47 47 43 43 40 40 40 40 43 42 43 40 41 41 42 43 41 40 39 39 39 41 40 36 35 36 36 34 37 38 37 36 37 35 35 32 32 29 30 31 34 33 34 34 34
43 46 43 44 41 44 44 46 48 47 47 48 49 45 44 43 39 43 38 41 43 46 42 41 42 44 41 41 41 41 36 37 35 35 35 36 39 39 38 36 35 38 39 38 37 38 34 34 36 36 36 36 37 36
46 45 42 39 40 44 47 47 48 46 48 46 45 49 44 43 41 38 38 40 43 43 37 38 40 35 36 34 38 37 33 38 38 34 34 35 36 36 36 37 39 41 40 37 38 38 39 39 38 37 37 37 37 36
47 48 48 45 41 41 45 45 45 44 46 46 45 48 48 43 38 35 36 36 35 33 34 34 34 37 36 35 35 34 33 35 36 29 27 28 30 31 37 38 39 39 39 38 37 37 38 38 37 37 37 36 36 35

GFSWCAN_con_lsi_066.txt.gz
Lid_Strength_Index
2 2 2 2 2 2 2 1 2 2 2 2 2 2 2 1 1 2 5 3 6 12 12 9 8 11 12 12 14 15 11 12 14 13 14 18 23 18 20 17 15 15 16 17 14 16 20 13 12 13 12 12 11 11
2 2 2 2 2 2 2 2 1 2 2 2 2 2 2 2 1 1 6 3 3 8 10 8 7 6 6 7 11 14 13 15 12 16 18 18 21 21 22 22 14 17 14 17 15 15 11 11 11 10 9 10 10 10
2 1 1 1 2 2 2 2 2 1 2 2 2 2 2 2 2 2 6 4 5 9 9 11 10 8 6 7 6 12 14 11 12 11 15 17 18 16 21 20 19 15 15 16 17 16 13 10 9 8 8 9 9 10
1 1 1 1 2 2 2 2 2 1 1 1 2 2 2 2 2 2 5 4 5 8 10 12 9 9 7 7 7 8 9 9 10 12 16 19 19 13 18 15 16 14 14 17 17 15 15 14 11 9 8 9 10 10
-0 -0 -0 -0 0 1 1 2 1 1 1 1 1 2 2 2 1 3 4 4 3 7 12 13 12 9 7 7 8 7 8 10 14 16 19 19 17 16 17 15 17 13 14 14 16 12 12 12 10 10 10 10 11 11
-1 -1 -1 -1 -1 -1 -1 0 1 1 1 1 1 1 1 2 1 5 8 4 3 4 10 14 10 14 10 7 8 8 9 11 13 14 18 17 12 15 22 24 14 13 12 12 13 11 11 10 10 10 11 11 10 10
-1 -0 -0 -1 -1 -1 -1 -1 -1 0 -0 -0 0 0 1 1 3 7 9 9 3 3 9 13 14 11 9 8 8 9 10 12 12 16 17 14 13 14 20 22 13 13 12 11 10 11 12 11 12 12 11 12 13 13
-1 -1 -1 -1 -1 -1 -1 -1 -1 -1 -1 -1 -1 -1 -0 0 1 5 4 2 2 6 7 12 14 12 7 9 9 8 8 8 11 14 15 14 12 15 19 14 11 12 12 11 11 12 12 13 13 13 14 15 17 15
-1 -1 -1 -1 -0 -0 -0 -1 -1 -1 -1 -1 -1 -1 0 2 6 7 1 1 2 5 9 12 13 14 7 9 9 9 8 12 10 12 12 11 15 16 13 12 12 13 13 13 16 17 17 16 16 17 18 19 19 18
-1 -1 -1 -1 -1 -1 -1 -0 -1 -1 -1 -1 1 4 6 5 -0 -0 3 6 7 6 7 11 10 12 8 10 12 11 11 12 15 15 10 13 18 11 12 17 17 18 19 19 19 18 22 23 20 21 22 21 20 20
-1 -0 -0 -0 -0 -0 -0 -0 -0 -0 -1 2 5 7 6 -0 4 5 8 9 12 10 8 10 10 11 9 16 16 11 14 13 16 15 16 22 22 12 19 20 20 20 20 23 24 24 24 25 25 24 24 26 26 25
0 0 0 0 0 -0 -0 -0 -0 1 2 2 4 3 3 5 7 9 11 13 11 13 10 10 9 9 11 8 12 12 14 14 18 18 18 23 17 22 21 22 24 24 26 27 28 28 27 25 26 27 28 28 29 27
1 1 1 -0 0 0 -0 0 -0 -0 0 4 5 7 8 8 12 13 18 17 13 11 10 10 11 10 10 10 11 13 15 16 16 19 21 19 23 27 28 28 28 30 33 33 32 31 31 31 31 32 29 29 30 30
1 1 1 1 -0 0 -0 0 -0 0 3 7 8 12 11 14 13 18 13 12 14 10 9 9 13 11 11 13 13 16 16 15 18 20 22 21 26 29 30 31 32 32 34 33 34 33 32 32 32 32 32 32 33 32
2 2 2 2 1 -0 -0 -0 3 12 12 14 12 15 17 23 23 23 23 20 17 8 8 12 16 12 15 15 14 17 19 19 20 21 21 29 30 31 31 33 35 35 34 35 36 36 34 33 34 32 32 34 34 33
4 5 5 2 3 3 5 7 13 15 18 22 25 20 23 23 25 23 20 18 19 7 8 11 13 14 15 15 17 19 20 22 20 24 31 30 33 33 34 35 35 36 37 37 37 36 35 36 35 33 34 35 33 34
6 10 4 3 6 7 7 15 16 20 21 24 29 27 30 28 25 24 25 22 21 14 14 13 15 16 14 18 24 25 21 25 32 33 34 35 34 34 37 38 38 38 38 38 38 38 37 36 38 37 34 34 34 33
14 9 5 6 10 12 16 17 20 21 26 25 27 27 26 27 26 26 26 24 23 17 16 16 16 21 21 22 24 28 34 35 32 30 33 38 39 40 38 37 38 38 38 38 39 38 38 37 35 33 34 33 32 31
10 8 7 8 11 16 18 20 19 26 26 25 24 25 26 27 26 25 26 25 23 22 18 17 19 22 27 31 30 31 29 29 31 32 35 38 36 37 38 39 38 38 37 37 37 35 36 35 34 34 33 31 31 28
8 8 9 11 13 18 22 23 19 23 26 26 25 27 27 27 27 27 27 27 24 24 29 28 30 33 32 32 32 30 32 32 29 31 34 34 35 39 37 37 35 37 37 37 37 33 35 34 33 31 30 31 29 29
13 13 13 18 23 24 25 25 24 24 25 26 27 26 26 27 29 30 30 29 30 35 33 35 35 36 37 37 37 35 35 32 34 36 36 36 35 36 37 38 38 38 36 37 36 35 34 34 31 30 28 28 28 28
18 13 22 19 23 26 27 27 26 25 26 29 28 29 32 30 32 31 30 32 35 36 36 35 36 38 38 38 39 42 43 43 43 37 34 33 36 36 37 39 37 38 39 38 37 36 34 32 29 28 28 28 27 27
17 18 24 26 25 27 31 27 29 31 29 31 31 30 33 34 33 29 36 37 37 35 38 39 41 45 42 45 44 43 45 42 41 42 42 41 44 43 41 41 41 38 38 37 36 35 34 29 28 29 28 27 27 28
22 31 32 33 32 36 35 34 32 32 31 33 34 35 36 38 34 33 39 43 39 39 41 44 45 41 40 40 42 44 43 45 44 43 45 39 39 39 42 40 41 41 38 37 35 35 34 34 30 30 28 29 29 29
25 37 35 39 37 34 35 37 37 34 38 40 37 35 35 39 33 37 39 41 43 44 43 46 44 42 42 45 43 43 44 42 39 39 40 42 43 40 39 40 39 39 39 36 36 36 35 34 32 32 30 30 30 30
39 42 40 46 40 38 41 35 39 41 43 40 40 39 40 35 31 35 39 42 44 43 43 42 41 41 40 43 41 39 39 43 41 38 38 41 39 37 39 37 37 35 38 37 36 36 34 32 32 32 31 31 30 30
39 42 40 42 42 42 41 43 44 41 41 41 44 41 39 34 35 36 41 40 40 41 42 42 42 40 39 41 41 43 44 44 38 37 39 40 38 38 35 35 36 33 38 37 37 36 35 34 34 32 31 31 31 31
42 43 40 42 42 46 46 46 45 44 44 42 44 40 37 36 35 38 37 37 42 43 43 45 44 43 42 41 42 41 40 42 40 40 39 37 39 38 39 39 37 27 35 35 34 33 33 32 31 31 31 31 30 30
42 45 43 43 45 42 44 44 44 44 41 46 42 41 40 39 42 43 39 39 46 42 42 42 40 46 43 43 43 42 41 38 35 36 37 36 35 32 37 38 38 36 35 36 28 25 29 29 29 29 30 31 31 32
42 47 43 47 42 41 42 43 45 48 48 44 45 40 40 40 40 45 44 44 41 40 42 43 45 42 41 40 39 38 40 40 36 35 36 36 34 37 40 38 38 38 37 38 33 33 29 31 32 36 34 33 34 33
46 48 43 45 42 45 47 49 51 49 50 50 52 46 44 44 40 45 40 42 44 48 44 43 44 47 42 43 41 39 33 36 36 35 36 39 40 39 38 37 37 40 40 39 38 39 37 36 38 38 38 36 35 35
46 47 42 39 40 45 50 50 51 48 51 48 46 52 46 45 41 38 39 42 44 44 38 40 41 36 36 35 38 38 33 38 39 35 35 34 35 35 35 36 39 42 41 37 38 38 39 39 38 38 37 38 37 37
49 50 50 45 42 41 46 46 45 44 47 47 46 50 50 44 38 35 37 38 37 36 36 35 35 38 37 36 35 35 33 35 35 29 27 27 30 31 37 39 40 40 39 37 37 37 38 38 37 37 37 36 36 35

GFSWCAN_con_lsi_069.txt.gz
Lid_Strength_Index
2 3 2 2 2 2 2 2 1 1 2 2 2 1 1 1 1 2 4 3 6 11 12 9 9 11 12 13 14 14 12 12 14 14 17 19 22 18 21 19 16 14 15 16 15 17 19 15 13 14 13 12 12 12
2 2 2 2 2 2 2 2 1 1 1 2 2 2 1 2 1 1 6 3 2 8 9 8 8 7 7 8 11 15 13 14 11 14 17 17 21 22 23 22 14 17 14 17 14 14 12 12 12 10 10 11 11 11
2 2 2 2 2 2 1 1 2 2 1 1 2 2 1 1 2 2 5 4 4 9 9 10 11 8 6 7 6 11 13 11 12 11 16 18 18 16 21 20 19 16 15 17 16 16 13 11 9 9 9 10 10 10
2 2 2 2 1 1 1 2 2 1 1 1 1 1 1 1 1 1 6 4 5 8 11 12 9 9 7 7 7 7 9 9 10 12 16 19 19 13 18 16 16 15 14 18 18 16 14 13 12 10 11 11 11 11
1 1 0 1 1 1 1 2 2 2 1 1 1 1 1 1 1 2 3 4 4 7 12 13 13 10 8 7 8 8 8 10 13 15 18 18 16 15 17 15 17 14 14 15 17 13 12 12 10 10 11 11 10 11
-0 -1 -1 -1 -1 -0 -0 1 1 1 1 1 1 1 1 1 1 4 8 5 3 4 10 15 12 14 11 8 8 9 9 12 13 14 17 17 13 15 21 22 14 13 12 12 12 11 11 11 11 11 11 11 12 12
-1 -0 -1 -1 -1 -1 -1 -1 0 1 1 1 1 0 -0 0 3 6 9 8 3 4 9 13 15 12 11 10 10 9 10 11 12 16 18 14 14 16 22 21 14 13 12 12 12 12 13 12 12 12 12 13 15 16
-1 -0 -1 -1 -1 -1 -1 -1 -1 -1 -0 1 1 -0 -1 -0 1 4 3 2 2 6 8 13 14 13 9 10 10 8 9 9 11 13 17 16 14 18 20 14 12 13 13 13 12 12 12 14 14 14 16 17 19 18
-1 -1 -1 -1 -1 -0 -1 -1 -1 -1 -1 -1 -0 -1 0 2 5 8 1 1 2 8 11 12 15 16 8 9 9 9 9 12 11 13 13 12 16 16 15 12 12 14 13 13 15 18 18 17 16 17 19 21 21 19
-1 -1 -1 -1 -1 -1 -1 -0 -1 -1 -1 -1 1 4 6 4 -0 -0 3 6 6 7 8 13 17 14 9 12 12 12 10 13 15 13 11 13 18 12 13 14 15 13 13 16 19 20 24 22 20 21 23 22 22 21
-1 -1 -1 -1 -0 -1 -1 -1 -1 -1 -1 2 5 7 4 -0 3 6 9 9 9 11 12 13 12 13 11 13 15 11 13 12 16 14 14 17 21 13 13 19 17 17 18 22 22 23 23 24 23 25 26 27 27 27
-0 -0 -0 0 0 -0 -0 -0 -0 1 4 2 4 3 4 6 8 10 11 11 12 13 13 13 13 9 11 11 11 12 13 13 16 14 16 19 16 15 17 19 22 22 22 26 27 26 27 25 27 29 31 31 31 30
0 0 1 1 1 -0 -0 -0 -0 -0 0 3 6 8 9 9 13 14 15 16 14 18 13 13 13 9 9 9 13 12 15 16 15 16 18 19 19 24 23 25 29 30 31 30 32 31 31 32 33 33 33 33 34 35
1 1 2 1 2 -0 0 -0 -0 0 4 9 10 13 13 13 13 16 16 16 14 12 14 10 12 9 9 11 12 15 14 15 17 18 21 20 21 26 28 29 29 31 31 31 33 34 34 35 35 36 36 36 36 35
2 3 3 2 2 1 0 0 -0 11 12 13 12 15 16 19 25 28 26 21 20 18 8 11 15 9 12 13 13 16 19 18 16 20 21 23 29 28 30 32 32 32 32 34 37 36 36 36 37 36 36 37 38 37
4 6 5 3 3 4 5 9 13 15 20 20 23 19 23 24 28 29 27 25 22 18 9 9 12 13 13 14 16 17 18 21 19 22 30 30 30 29 31 31 32 34 35 37 38 38 36 37 37 36 38 38 37 37
6 10 4 3 4 7 8 17 17 22 26 29 33 37 35 31 28 28 27 22 19 14 10 11 13 13 14 15 17 17 21 22 35 36 33 30 29 31 31 32 35 36 36 40 40 40 39 40 41 38 35 36 38 36
12 8 5 5 8 11 16 18 23 24 28 28 29 32 31 31 29 27 26 22 21 18 12 12 13 15 16 21 24 20 32 31 30 31 31 32 32 32 31 34 37 36 39 40 40 40 41 39 37 36 38 36 36 35
8 8 7 7 10 15 18 20 22 28 31 29 25 24 25 26 24 23 24 23 22 20 21 14 14 17 24 32 33 33 32 33 31 30 33 33 31 33 35 35 35 38 38 39 40 38 38 39 37 37 37 35 34 34
8 8 9 10 12 17 21 23 20 24 30 26 25 25 24 25 25 26 25 25 22 22 26 25 27 33 33 31 30 27 28 27 29 30 30 31 32 37 37 36 35 38 38 40 40 36 38 37 37 36 36 34 34 33
14 14 13 17 21 21 24 24 25 25 24 26 26 24 25 25 27 28 29 27 29 33 31 33 33 33 33 33 32 29 29 27 29 29 29 31 33 32 37 41 40 40 38 40 38 38 38 37 37 36 35 35 33 31
19 14 23 19 22 24 26 26 25 24 25 27 26 27 28 27 29 30 30 31 34 35 35 33 34 34 32 35 36 37 37 33 32 32 32 32 34 36 38 41 38 40 41 40 40 38 38 37 36 35 35 34 31 31
19 19 24 26 25 27 31 27 27 28 25 27 27 27 29 30 30 28 34 34 34 34 36 35 37 38 36 37 36 37 39 35 36 38 38 40 45 45 41 43 42 39 39 38 40 39 36 31 32 33 33 32 30 29
23 32 33 34 32 35 33 34 31 31 30 31 29 30 32 34 33 28 34 35 34 34 34 36 37 36 34 35 37 39 42 46 45 45 47 39 39 41 45 43 44 43 40 39 37 37 36 35 32 33 33 32 31 29
26 37 36 39 37 35 36 35 35 33 35 38 35 34 36 39 32 32 32 35 36 36 37 40 39 38 39 43 42 44 45 44 40 40 42 45 45 43 41 42 41 40 40 37 36 37 37 36 34 33 32 32 31 30
39 43 41 48 41 38 43 40 41 42 41 37 40 40 43 37 31 35 37 39 41 42 42 41 40 41 41 43 41 40 40 47 44 40 41 43 40 38 40 37 37 34 38 38 37 38 37 34 33 32 30 30 29 29
38 42 42 44 44 44 43 44 44 41 41 37 40 38 34 32 36 37 41 41 40 40 42 44 43 42 41 42 43 45 46 47 40 38 41 41 40 40 36 36 36 33 38 38 38 37 36 36 34 32 30 29 29 29
42 43 40 42 44 48 47 47 45 45 45 42 43 35 34 34 34 38 37 36 41 44 45 48 47 45 44 43 44 42 42 44 41 41 40 39 41 40 40 40 38 28 36 36 35 35 37 35 34 33 31 30 29 29
41 44 43 41 43 40 45 44 44 45 43 47 42 41 40 40 42 44 40 41 47 44 43 43 41 47 44 45 45 45 44 40 36 36 37 37 36 33 38 39 38 36 36 36 29 27 31 32 31 30 29 30 29 32
42 48 42 45 40 40 41 44 45 48 49 45 46 41 41 41 41 46 46 46 42 42 44 46 47 43 41 41 40 39 42 41 37 33 31 34 34 37 41 39 38 38 38 39 34 35 29 33 33 37 36 35 35 36
48 49 43 43 41 45 48 52 53 51 51 51 54 46 44 45 40 45 42 44 46 49 45 43 45 49 44 44 42 40 35 37 35 34 33 37 40 40 40 37 36 39 39 39 38 39 37 38 39 39 38 38 37 36
46 48 42 38 40 46 50 50 52 49 50 48 46 53 45 44 40 37 40 44 45 44 40 42 43 36 38 36 39 38 33 38 39 35 36 35 35 35 35 35 38 41 41 37 37 38 39 39 38 37 36 37 37 36
50 51 51 45 41 41 46 46 44 43 47 47 46 51 51 45 38 35 38 40 38 37 36 36 35 37 37 36 36 36 33 35 35 28 26 27 29 30 36 38 40 40 39 37 37 37 37 38 37 37 37 36 36 35

GFSWCAN_con_lsi_072.txt.gz
Lid_Strength_Index
3 3 3 3 3 3 3 2 2 2 1 1 1 1 1 1 1 2 4 3 6 12 12 10 9 11 12 13 15 15 13 14 16 17 17 21 22 20 20 19 17 15 15 16 17 19 20 15 16 16 15 15 15 14
3 2 3 3 3 3 3 3 2 2 2 1 1 1 1 1 1 1 5 3 3 8 9 8 8 8 7 8 10 14 13 14 11 15 18 19 23 24 25 23 18 18 16 18 16 16 15 16 15 14 14 14 14 14
2 2 2 2 2 2 2 2 2 2 2 1 1 1 1 1 1 1 5 3 4 9 9 8 10 8 7 7 6 11 13 11 12 11 15 17 18 19 24 24 22 18 18 18 17 18 16 13 13 12 12 11 12 12
2 2 2 2 2 2 2 2 2 2 1 2 1 1 1 1 1 1 4 3 5 8 11 12 9 9 7 7 7 7 9 10 11 12 16 19 18 14 19 17 18 16 15 20 20 17 15 14 13 11 11 11 11 11
2 1 2 2 2 2 2 1 1 1 1 2 1 1 1 0 1 2 3 3 3 7 13 17 13 10 9 8 8 8 9 11 14 14 15 17 16 15 17 15 17 15 15 16 16 12 11 11 10 11 12 11 11 11
0 -0 0 1 1 1 1 1 1 1 1 2 2 1 1 0 -0 3 8 4 2 3 10 15 12 13 11 9 9 9 9 12 13 14 16 15 13 14 21 21 14 13 12 12 13 11 11 10 10 11 11 12 12 12
-1 -1 -1 -1 -1 -1 -1 -0 -0 1 1 2 1 1 0 -0 1 5 7 7 2 3 9 15 16 13 11 11 13 12 12 14 13 15 16 14 14 15 21 20 14 13 12 12 11 12 13 13 12 11 11 12 15 16
-1 -1 -1 -1 -1 -1 -1 -1 -1 -1 -0 1 1 1 0 -1 -0 4 2 2 2 6 7 13 17 15 10 10 11 11 12 11 12 14 17 14 15 17 19 13 13 13 13 13 12 12 12 13 13 14 15 17 19 18
-1 -1 -1 -0 -0 -1 -1 -1 -1 -1 -1 -1 -0 -0 2 2 4 4 -0 -0 3 7 11 13 19 16 9 10 10 10 10 12 11 12 14 13 17 16 14 13 14 14 14 13 15 17 18 16 15 16 18 21 20 20
-1 -0 -0 -0 -0 -1 -0 -0 -0 -1 -1 -1 1 5 7 4 -0 -0 3 6 6 7 11 14 16 16 10 13 12 14 12 13 15 13 12 13 16 12 13 14 14 14 13 15 18 18 22 22 18 19 21 23 22 22
-0 -0 -0 -0 -0 -1 -0 -1 -1 -1 -0 2 5 7 6 -0 4 6 9 9 9 11 13 17 15 14 10 15 16 12 13 12 16 16 13 15 18 13 12 18 15 14 14 17 16 18 20 19 19 23 26 28 28 28
-0 -0 0 -0 -0 -0 -0 -1 -1 1 2 3 5 3 3 6 8 11 11 13 14 14 13 15 16 14 14 11 12 12 15 14 16 12 14 18 14 12 15 16 19 19 18 23 25 24 26 25 26 27 28 30 32 31
0 -0 0 0 1 0 1 0 -0 -0 -0 4 8 7 8 10 14 14 16 16 14 16 11 18 17 14 11 9 11 15 14 15 14 15 18 17 20 22 21 24 27 28 28 29 29 29 29 31 32 32 32 34 35 36
1 0 1 1 2 1 1 1 -0 0 3 8 11 12 13 14 14 15 15 17 15 15 15 12 16 14 13 13 12 14 13 14 16 17 20 20 18 19 23 27 25 27 28 28 30 30 31 31 33 37 36 36 36 37
1 2 3 3 2 2 2 -0 -0 6 10 12 11 14 14 19 27 32 31 19 21 16 10 14 15 12 16 13 11 15 19 18 16 18 18 18 26 28 28 29 29 28 29 31 33 32 33 33 34 36 39 40 38 40
2 6 7 3 2 4 2 4 11 15 21 20 23 19 23 21 23 28 31 27 26 20 15 15 19 18 19 13 15 16 17 18 18 21 27 31 32 32 32 31 31 30 31 33 34 35 34 35 35 36 41 41 40 39
6 14 5 4 4 7 8 14 16 22 22 26 32 36 32 31 29 32 33 27 22 17 16 17 16 18 16 17 15 14 19 20 32 34 35 34 33 34 33 32 34 33 32 34 37 38 38 41 42 39 35 37 40 40
13 9 5 5 7 11 17 18 20 22 29 31 29 31 31 29 30 30 27 24 23 20 17 16 14 14 18 18 20 17 24 31 34 34 33 35 33 33 32 34 35 32 33 37 36 38 40 37 33 36 40 40 39 38
8 8 7 6 10 16 19 20 20 26 29 31 28 27 30 31 25 23 27 26 24 22 20 16 15 14 15 26 28 34 33 30 28 30 33 30 29 30 31 31 32 32 32 36 36 34 34 37 37 38 38 38 36 37
8 8 8 10 10 16 21 24 21 25 30 27 28 29 29 28 27 27 26 24 21 21 19 24 30 36 35 35 32 29 29 28 28 29 30 30 30 29 30 30 30 32 34 38 38 37 39 38 39 39 39 37 36 36
14 14 13 17 20 22 25 25 25 24 24 26 26 24 25 24 27 27 26 25 28 33 32 35 35 32 33 33 32 31 30 28 30 31 31 32 31 29 32 33 32 33 35 40 37 38 38 38 38 39 38 38 38 37
19 14 22 18 22 24 26 26 26 24 24 25 24 25 27 26 27 29 27 30 34 35 36 34 34 33 31 34 34 33 32 30 30 29 28 29 31 30 30 32 31 32 33 35 39 39 40 40 40 39 38 37 35 35
19 19 24 25 25 27 29 25 26 28 26 27 26 25 28 27 29 28 33 34 36 34 35 35 35 35 34 33 33 33 35 30 31 31 31 33 34 34 33 35 35 34 36 39 42 41 38 35 35 36 37 36 36 35
24 33 34 34 32 33 32 30 27 27 28 29 26 27 30 32 32 27 33 35 34 33 34 35 34 31 31 31 33 34 35 35 35 36 37 33 33 37 40 44 45 44 41 41 40 39 39 38 34 36 36 37 37 36
25 37 36 40 37 35 35 36 32 29 31 32 27 28 32 36 26 29 30 32 33 33 33 34 33 33 32 34 34 34 37 36 34 34 38 38 43 43 41 43 42 42 43 39 39 39 39 39 37 36 36 37 36 36
39 43 39 44 41 40 42 36 38 38 37 32 35 35 36 30 26 29 31 32 33 33 33 34 35 35 36 38 36 37 36 44 44 38 40 44 42 40 41 39 38 35 40 41 39 39 38 36 37 36 36 36 32 35
38 42 43 45 43 41 41 42 42 39 41 39 40 39 33 31 32 31 33 33 33 34 36 37 39 38 39 41 42 44 46 48 42 40 43 43 41 42 38 37 37 34 39 39 39 38 37 37 37 37 37 37 37 36
43 44 40 42 43 48 47 44 43 44 43 40 43 38 36 36 34 37 36 35 40 40 41 47 47 46 45 44 45 44 43 46 44 44 43 41 42 41 41 40 39 28 37 37 35 36 38 37 37 37 37 36 34 35
42 46 45 42 44 41 45 44 45 45 42 48 43 40 40 39 42 43 40 42 48 43 43 43 41 49 46 47 48 48 46 42 37 37 37 36 37 33 39 40 39 37 37 36 29 29 34 35 35 35 33 33 33 37
42 49 42 45 40 40 42 45 46 50 51 47 48 42 42 42 43 47 48 48 43 42 42 44 47 44 42 42 40 39 41 40 37 35 36 36 34 37 41 40 38 39 39 40 34 35 29 32 33 37 37 37 37 37
49 50 43 43 41 45 48 54 56 54 54 53 56 48 44 46 42 46 44 46 48 51 46 44 46 49 45 44 43 41 35 39 38 36 37 38 38 40 39 38 37 41 41 39 38 38 36 36 40 39 38 37 37 36
45 49 42 38 39 46 52 52 52 49 52 48 46 55 46 44 40 38 40 45 46 45 39 43 43 37 39 37 41 40 34 39 39 35 36 35 35 35 35 36 39 41 41 38 39 39 40 39 38 38 37 37 37 36
50 51 51 45 39 39 44 45 42 41 45 45 45 52 52 45 37 35 39 40 39 38 39 38 37 40 38 38 37 37 34 36 36 28 26 27 29 31 36 39 41 41 40 38 37 37 38 38 37 37 36 36 35 35

GFSWCAN_con_lsi_075.txt.gz
Lid_Strength_Index
3 3 3 3 3 3 3 2 2 2 2 2 2 1 1 1 1 1 4 3 6 11 12 10 10 12 14 14 16 16 14 14 15 15 16 19 19 18 20 19 15 15 15 17 17 18 18 15 16 15 15 15 15 15
3 3 3 3 3 3 2 3 3 2 2 2 2 1 1 1 1 1 5 2 3 8 8 8 9 9 9 9 12 17 14 16 13 16 17 20 21 25 26 23 18 17 14 15 14 15 15 16 16 15 14 14 14 14
3 3 3 3 3 2 3 3 3 3 2 2 2 1 1 1 1 2 4 3 4 8 8 8 10 8 8 8 7 12 14 12 14 14 17 19 21 19 24 24 22 18 18 16 15 17 17 15 14 14 14 14 14 14
3 3 3 2 2 2 2 2 3 3 3 2 2 2 1 1 1 1 4 3 5 8 10 12 9 9 7 7 8 8 10 11 12 13 17 19 21 17 22 19 20 18 17 21 21 19 18 16 15 14 14 15 15 15
3 2 2 2 2 2 2 2 2 3 2 2 2 2 1 1 1 1 2 2 3 6 11 15 12 9 8 7 8 8 9 11 14 14 16 15 16 17 20 18 21 18 17 17 17 15 13 13 13 14 14 14 14 14
2 2 1 1 2 2 2 2 2 2 2 1 1 2 1 1 1 3 7 3 2 3 9 13 11 13 10 9 9 9 9 12 12 13 16 16 13 15 21 22 16 15 14 13 14 12 12 10 10 12 12 12 12 12
2 1 1 0 1 1 1 2 2 1 1 1 1 1 2 1 3 5 7 5 1 3 9 12 13 12 10 10 11 10 12 14 13 16 17 14 14 14 20 22 15 13 12 12 11 12 13 12 11 11 11 12 15 16
1 0 -1 -1 -1 -1 -1 -0 0 0 0 1 1 1 1 1 1 4 3 2 1 5 7 12 14 12 9 13 13 11 12 11 12 13 17 15 15 16 16 14 13 13 13 13 12 13 11 12 13 13 15 16 17 17
1 -0 -1 -1 -0 -0 -1 -1 -1 -1 -1 -1 -0 0 3 4 6 5 0 -1 2 5 10 11 14 16 9 10 10 10 9 12 10 12 15 13 17 15 14 13 13 13 13 13 15 17 17 14 14 16 17 20 18 19
0 0 -1 -0 -0 -0 -0 -0 0 -1 -1 -1 2 7 8 6 0 0 3 5 6 6 11 13 13 14 9 12 12 14 12 12 15 13 12 13 15 12 12 13 13 13 13 14 17 18 20 20 16 17 18 20 19 20
1 0 -0 -0 -0 -0 0 0 -0 0 -1 4 5 6 8 -0 3 5 8 9 9 11 12 18 15 12 9 12 15 12 16 12 15 15 14 15 17 12 11 16 14 13 14 13 12 12 12 15 16 19 23 24 24 25
1 0 -0 0 0 0 0 0 -0 1 3 4 4 3 3 7 7 10 11 12 12 16 17 14 14 13 10 9 13 13 18 15 17 12 14 17 15 11 14 14 14 15 15 16 20 16 20 20 20 19 24 27 29 30
1 0 0 0 0 0 1 0 -0 -0 -0 3 7 8 9 10 12 14 15 16 15 15 16 17 17 13 13 12 12 12 14 16 14 14 15 16 15 20 21 23 22 25 18 22 27 26 27 29 29 29 30 33 32 33
1 0 1 1 1 1 0 0 0 0 2 7 10 12 12 16 12 13 18 16 16 15 13 9 13 14 18 16 13 14 14 14 16 17 19 20 20 19 21 21 19 22 23 22 26 28 29 29 32 33 32 32 32 32
1 1 2 3 2 1 1 1 1 4 6 9 10 14 15 19 24 25 24 19 19 14 12 15 12 11 12 14 14 16 18 20 20 19 17 19 25 26 26 28 29 27 28 29 31 30 30 31 31 35 38 37 36 35
1 4 7 3 2 2 4 3 6 14 19 17 19 18 25 23 21 21 20 22 23 18 15 15 17 19 21 19 22 21 19 19 18 19 26 31 31 32 33 32 32 30 30 32 32 32 32 33 32 34 39 40 39 37
5 14 5 4 3 5 7 13 15 20 21 23 31 34 33 29 29 32 31 27 22 20 20 20 19 18 17 22 24 23 19 18 20 30 33 35 35 36 36 36 35 33 33 33 34 32 35 37 36 35 34 39 42 40
13 10 5 5 7 11 16 18 21 23 27 28 29 33 30 28 28 28 28 25 21 19 18 18 17 22 21 21 23 18 27 36 36 35 32 31 30 32 35 35 35 33 33 34 32 35 35 34 33 34 35 40 41 41
9 8 7 7 10 16 18 20 21 28 31 32 28 26 28 29 27 26 26 23 22 21 20 19 19 22 20 28 30 36 36 33 33 30 31 34 31 33 34 33 31 33 33 32 33 31 33 34 35 33 36 37 35 38
8 8 8 10 11 16 20 23 22 25 31 28 28 27 27 27 27 27 26 25 24 25 18 20 27 35 35 35 34 33 30 30 29 30 29 29 29 31 31 28 29 31 33 34 32 32 34 34 34 32 33 33 31 34
14 13 12 16 20 22 26 25 24 25 27 26 27 25 25 26 30 31 31 26 29 34 34 37 38 36 35 36 34 32 30 28 25 26 29 31 30 29 30 31 30 29 29 29 30 31 31 31 30 31 32 36 39 39
18 13 20 18 22 25 27 27 27 24 24 25 23 23 26 27 29 32 29 31 36 36 35 35 34 34 33 33 34 33 33 32 31 30 28 28 30 29 31 31 32 31 30 29 29 30 30 32 34 35 38 38 37 37
18 19 24 25 24 26 29 25 27 26 25 26 24 25 28 30 30 27 32 33 34 32 33 33 33 33 33 32 31 31 32 28 29 29 31 32 32 30 30 30 28 29 30 32 32 31 31 31 33 36 38 37 37 37
24 32 33 33 30 34 31 29 25 26 26 26 24 27 29 30 30 27 33 34 33 32 33 33 33 31 30 30 31 32 34 32 32 33 32 29 30 33 33 33 33 33 32 32 33 34 35 38 35 37 37 38 40 38
27 38 36 39 37 34 33 31 29 26 29 30 27 28 31 34 26 29 31 34 33 33 32 33 32 31 31 32 31 32 34 33 30 31 34 33 34 34 33 34 34 35 37 35 38 39 40 41 40 39 38 39 38 38
38 44 41 47 41 38 40 34 35 35 33 29 33 33 33 30 25 29 30 31 31 32 32 32 32 32 32 34 32 32 33 37 35 31 34 35 34 33 35 35 36 34 39 41 40 40 40 39 40 39 38 38 35 37
36 40 44 45 45 45 42 42 40 36 35 35 36 36 32 30 31 30 30 31 31 32 34 37 39 38 38 40 40 42 43 43 40 37 39 40 39 42 39 37 37 36 41 41 41 40 39 39 39 38 38 39 39 37
44 44 39 42 44 48 45 44 42 43 41 38 40 34 32 32 31 32 32 33 36 37 38 40 40 41 41 40 42 41 42 45 44 43 44 42 44 41 42 42 41 30 39 39 38 38 40 38 37 37 38 36 35 37
43 48 46 42 44 42 44 43 43 45 42 46 42 40 39 39 41 42 40 42 48 42 42 42 41 48 46 46 47 48 47 42 37 37 38 38 37 34 41 42 41 39 38 38 30 29 35 35 35 35 34 34 34 38
42 50 42 44 39 40 42 46 47 50 48 45 46 41 40 41 42 46 47 47 43 42 44 47 49 46 44 43 42 38 45 45 41 37 38 37 36 39 42 41 40 40 39 41 35 35 29 32 33 37 37 37 36 36
49 50 43 42 40 44 48 55 58 56 55 55 58 50 44 45 41 44 45 47 49 51 45 43 44 51 46 45 44 41 35 40 41 39 40 41 40 40 40 38 38 41 42 40 39 40 37 37 39 39 38 37 37 35
47 48 41 37 39 47 52 52 53 50 52 49 46 56 46 44 39 36 42 47 46 45 41 44 45 37 40 38 42 41 35 40 40 37 37 35 35 34 35 36 39 41 41 37 38 39 39 38 38 38 37 37 37 36
50 53 52 45 41 40 46 47 44 42 46 45 44 51 52 45 35 34 38 42 40 39 38 39 38 40 40 39 38 37 35 37 37 29 27 27 29 30 35 37 39 39 38 37 37 37 37 38 37 37 37 36 35 35

GFSWCAN_con_lsi_078.txt.gz
Lid_Strength_Index
3 3 3 3 3 3 3 3 2 2 2 2 2 2 2 2 1 2 4 3 6 9 9 10 10 12 13 12 13 13 12 13 14 13 14 15 16 16 15 14 14 14 15 16 15 17 18 13 13 12 11 13 12 11
3 3 3 4 3 3 3 2 2 2 2 2 2 2 2 2 1 2 6 2 3 7 8 7 8 9 9 10 12 14 13 13 11 13 14 16 17 18 17 16 16 15 12 14 13 13 14 13 13 12 12 12 12 11
3 4 3 3 3 3 2 2 2 2 2 2 2 2 2 2 1 2 4 3 5 8 8 8 8 6 7 8 7 11 13 12 12 12 13 15 15 16 17 16 16 15 15 13 13 13 14 13 12 12 11 11 12 11
4 3 3 3 3 3 2 2 2 2 2 2 2 2 2 2 1 1 4 3 5 7 10 9 7 7 6 6 7 7 10 11 12 12 13 14 13 15 16 16 15 14 15 16 16 17 15 13 13 12 12 12 12 12
3 3 3 3 3 2 2 2 2 2 2 2 2 2 2 1 1 1 2 3 3 6 10 10 9 8 7 7 7 7 8 10 11 11 12 13 15 15 17 16 16 15 15 14 13 13 12 12 12 12 12 12 12 13
3 3 3 2 2 2 2 2 2 2 2 2 2 2 2 1 1 3 7 3 2 3 8 12 9 10 8 7 7 7 8 8 9 10 12 12 13 14 15 16 14 14 13 12 13 12 12 11 10 11 12 13 13 13
3 3 3 2 2 2 2 2 2 2 2 2 2 2 1 1 2 6 7 5 2 2 8 11 11 10 9 9 9 9 9 9 8 10 11 11 12 12 15 16 14 14 13 13 12 12 13 12 12 12 12 12 14 15
3 3 2 1 1 1 1 1 1 1 2 2 1 1 1 1 2 5 3 2 1 5 7 11 12 11 9 10 10 9 10 9 10 10 12 11 12 12 14 14 12 13 13 14 13 14 12 11 12 13 13 14 15 15
3 2 1 0 -0 -0 0 0 0 1 1 1 0 -0 2 4 6 6 1 1 1 4 9 10 13 14 8 9 9 9 8 11 9 11 11 11 13 13 13 13 11 12 12 11 13 14 14 11 12 13 14 15 14 15
2 1 0 0 -0 -1 -1 -1 -1 -1 -1 -1 1 4 8 6 1 1 4 6 6 7 8 10 10 11 8 9 10 10 9 11 13 11 11 12 12 10 10 11 10 11 11 12 14 14 15 14 13 14 13 13 12 14
2 1 0 1 -0 -0 -1 -1 -0 -1 -1 2 4 7 5 0 3 5 9 9 9 10 10 11 10 11 7 10 10 10 11 11 14 12 12 13 13 11 9 13 11 11 11 11 9 9 10 11 12 13 17 16 16 17
2 1 1 1 0 0 0 -0 -1 1 3 3 3 3 2 5 6 10 10 10 10 12 12 11 11 9 9 7 9 10 12 12 14 11 12 15 12 10 11 12 12 12 12 11 12 10 10 11 12 12 14 17 19 21
1 1 1 0 0 1 0 1 0 -0 0 2 5 6 7 9 11 12 15 14 13 13 12 11 11 9 9 8 10 10 13 13 11 12 14 13 13 15 15 19 16 17 13 11 14 19 17 19 21 17 20 23 25 27
1 1 0 0 1 1 1 1 0 1 2 6 9 12 12 13 14 11 13 13 11 11 13 9 12 9 11 11 11 13 12 12 14 16 15 12 15 22 22 20 19 15 13 13 14 19 21 22 26 27 26 26 27 29
2 1 1 2 2 2 1 1 1 5 6 8 9 13 15 15 19 20 19 16 15 15 10 11 10 10 13 13 12 15 16 16 15 14 12 12 23 27 25 25 25 24 24 24 26 26 28 28 28 31 30 29 29 31
1 4 5 3 3 2 2 4 8 11 16 13 15 16 19 16 19 21 19 16 19 14 11 11 13 14 13 14 16 16 16 17 14 13 14 23 25 27 28 29 29 28 26 27 27 27 28 29 28 30 33 31 31 30
4 10 5 3 2 3 4 11 13 19 18 17 24 29 27 24 20 24 24 20 19 13 12 14 16 16 15 19 19 18 15 11 12 20 27 29 29 29 31 31 30 29 29 29 30 29 30 31 31 30 30 32 32 31
10 8 4 4 5 9 15 15 18 20 25 25 25 27 26 26 25 25 26 21 19 15 14 13 14 17 17 18 17 16 20 28 29 28 28 29 30 31 31 30 31 30 30 29 29 32 31 30 28 27 29 31 32 33
7 7 5 6 8 13 16 19 18 24 26 26 25 24 24 25 23 23 23 21 20 19 16 14 14 16 17 26 26 28 29 28 26 27 28 30 30 31 32 31 30 30 31 31 29 28 27 26 25 27 28 29 26 28
7 7 8 9 9 14 19 22 19 22 24 24 23 24 24 24 24 25 23 23 21 20 18 18 24 31 31 31 31 31 30 28 27 27 26 26 26 28 28 27 28 30 30 30 29 30 29 29 28 28 28 27 27 28
13 12 12 15 18 21 23 23 23 23 24 25 26 24 24 24 25 26 26 26 26 32 29 33 34 32 31 32 32 32 30 29 26 26 26 26 26 25 27 27 27 26 27 27 28 28 27 27 28 28 27 27 27 27
18 13 19 17 19 22 24 25 24 24 25 28 26 28 29 30 30 30 29 32 35 34 34 34 33 34 33 32 32 32 32 32 30 27 26 25 26 26 27 27 26 26 26 26 26 27 27 28 28 28 27 28 28 28
18 18 23 23 23 25 28 24 25 27 26 27 25 26 28 29 29 26 31 33 33 32 33 33 33 33 32 30 29 29 30 28 28 27 27 28 27 27 27 27 26 27 28 28 27 27 28 28 28 28 28 29 28 28
24 32 31 31 29 32 30 28 26 27 29 28 25 29 32 34 30 27 30 32 31 29 30 31 31 29 29 29 29 30 31 29 29 29 29 27 28 29 29 29 29 29 28 29 29 29 29 29 29 29 29 30 30 30
27 37 35 36 33 32 33 31 31 29 31 31 28 27 29 31 25 27 29 30 30 30 31 31 30 29 29 29 29 30 32 32 29 29 31 30 30 30 30 30 31 31 31 30 31 30 31 32 31 30 31 32 32 32
39 44 39 42 38 36 39 35 35 36 33 30 32 31 30 28 25 27 29 30 30 31 31 31 31 30 29 31 30 30 32 35 33 30 31 31 31 30 29 29 29 29 32 32 31 32 32 32 33 33 32 33 33 32
37 41 43 44 43 42 40 40 40 37 38 35 36 35 31 28 28 29 29 30 30 31 31 32 33 32 32 32 32 34 36 37 36 35 37 36 35 35 33 31 31 31 34 35 33 32 32 32 32 32 32 33 34 33
44 45 41 43 44 47 45 44 42 42 42 40 42 37 33 32 30 30 30 32 34 34 34 37 38 37 37 37 38 38 36 39 39 39 38 36 38 37 39 37 36 30 35 35 34 34 34 32 32 33 33 32 31 32
43 48 48 42 44 42 45 44 44 45 42 46 41 38 36 36 38 36 34 37 42 38 37 36 36 42 41 42 44 44 44 40 35 36 36 35 34 32 37 38 37 35 35 34 31 30 34 33 33 32 32 31 30 32
42 51 42 44 38 39 42 47 48 52 51 49 49 44 42 40 40 45 47 47 43 42 43 46 48 45 41 42 38 37 43 42 39 35 35 35 33 36 39 38 36 35 35 36 31 31 28 29 28 31 31 32 32 32
49 50 43 42 40 44 49 56 59 57 56 55 58 50 45 46 43 45 45 48 49 52 47 44 46 48 46 44 43 41 35 40 41 38 38 38 38 37 36 35 34 37 37 35 34 35 33 33 34 34 34 34 34 33
46 49 42 37 38 47 53 52 53 50 52 48 46 56 45 44 37 36 41 47 46 43 39 43 44 38 39 39 41 40 35 38 38 36 36 35 35 35 34 34 36 38 37 35 35 35 36 36 36 35 35 35 35 34
50 52 51 44 39 39 44 46 43 41 45 44 44 51 52 45 34 32 38 41 37 38 39 39 39 39 38 38 37 37 35 36 36 29 26 27 28 29 33 36 37 38 37 36 35 35 36 37 36 35 35 35 34 34

GFSWCAN_con_lsi_084.txt.gz
Lid_Strength_Index
2 3 3 3 3 3 2 3 3 3 3 3 3 2 2 2 1 3 5 5 7 11 11 11 10 12 11 10 12 13 12 13 13 13 13 14 14 13 15 14 14 14 16 17 18 20 19 13 13 13 12 14 13 12
3 2 3 3 3 3 2 3 3 3 3 3 3 3 2 2 1 2 5 4 5 10 11 9 9 9 10 10 11 12 12 12 11 13 13 13 15 16 15 17 14 14 13 14 13 14 13 13 14 13 12 12 13 12
4 4 3 3 3 3 3 3 3 3 3 3 3 3 3 2 1 2 4 4 6 10 10 11 11 9 8 9 8 11 12 10 11 11 12 13 14 13 15 15 15 14 15 14 12 14 15 14 13 13 13 12 12 12
4 4 4 3 3 3 3 3 3 3 3 3 3 3 3 3 2 2 4 4 5 8 12 12 9 10 9 8 9 9 10 11 11 11 12 13 13 14 14 15 15 14 14 14 15 16 16 15 14 13 13 12 12 12
4 4 4 4 3 3 3 3 3 3 2 2 2 2 3 3 2 3 3 3 3 7 11 11 11 10 10 9 9 9 10 11 12 12 14 14 15 16 16 15 16 15 14 13 13 12 12 12 13 12 13 13 13 13
4 4 4 4 4 4 3 3 3 3 2 2 2 2 2 2 2 4 8 4 3 4 9 15 10 12 10 9 10 10 10 11 12 12 13 12 14 14 17 19 14 13 12 11 12 11 11 12 12 12 13 12 13 14
5 5 5 4 4 4 3 3 3 2 2 2 2 2 2 2 4 8 9 6 3 4 10 14 14 11 10 10 11 11 11 12 12 13 14 14 14 13 17 22 15 14 13 14 13 13 13 13 13 13 13 14 15 17
5 5 4 4 4 4 3 3 2 2 2 2 2 2 1 1 2 5 4 2 3 7 8 12 13 12 9 10 11 10 12 12 13 13 15 15 15 14 18 14 15 15 15 15 14 15 14 14 14 14 15 15 16 16
5 5 4 4 3 3 3 2 2 2 2 1 1 1 3 5 7 7 1 1 3 7 11 11 16 18 10 9 9 10 10 13 10 13 14 13 17 18 16 14 13 14 14 14 15 16 16 15 15 16 16 17 16 16
4 4 4 4 3 4 3 2 1 1 1 1 3 6 9 7 2 2 5 7 7 7 11 11 13 15 11 12 11 11 10 14 15 12 11 14 17 13 13 13 13 14 14 15 17 16 18 17 17 17 16 15 15 16
3 3 3 3 2 3 3 2 1 1 1 5 7 8 6 1 5 7 10 11 11 13 11 14 14 16 11 15 15 11 13 15 18 15 14 14 18 12 12 14 12 11 12 13 13 13 12 13 14 16 17 17 18 18
2 3 2 2 2 2 2 0 -0 2 4 4 6 4 5 7 9 11 13 14 17 18 16 16 14 12 13 11 14 14 14 15 19 16 15 18 15 13 14 14 14 14 14 13 13 11 13 13 13 13 13 15 16 16
2 2 2 1 1 1 0 -1 -1 -0 1 3 5 7 8 9 13 15 19 21 20 18 15 12 14 11 12 11 15 15 18 17 15 14 19 17 16 22 23 22 20 19 17 16 15 15 16 16 16 17 16 19 18 19
2 2 2 1 1 1 1 -0 -1 -0 3 7 9 13 12 14 16 17 17 15 14 13 12 14 12 14 10 12 11 16 13 14 16 20 18 17 22 26 25 25 24 24 23 22 21 21 22 21 24 24 24 24 21 22
2 2 2 2 1 1 1 1 2 5 7 11 12 15 16 16 19 19 19 16 17 15 10 12 11 10 12 13 11 15 17 19 15 18 18 22 24 26 26 26 27 26 26 26 25 26 25 25 26 28 28 27 26 26
3 3 5 2 1 1 3 5 8 8 11 10 16 17 19 17 20 19 18 19 17 13 10 10 10 11 13 12 14 16 17 20 18 21 24 22 24 27 30 30 29 29 30 29 27 27 28 28 29 31 31 30 29 27
3 9 3 2 2 4 4 11 12 17 15 17 24 24 24 19 21 23 23 20 17 15 13 12 14 15 13 14 15 16 18 22 27 28 29 32 32 32 31 30 30 31 30 30 31 29 29 30 29 29 30 31 31 30
9 6 2 3 6 8 14 14 17 19 25 23 23 26 24 24 22 22 22 18 18 17 14 13 12 16 16 17 20 24 26 26 28 28 29 32 33 34 35 35 34 34 33 34 34 33 31 30 26 27 28 29 30 30
6 5 3 3 7 13 17 19 18 25 27 26 24 23 24 24 22 21 21 19 19 18 18 15 16 15 19 28 29 25 28 30 30 27 28 32 32 35 34 33 33 33 34 34 31 31 32 32 31 30 29 27 27 26
4 4 4 5 7 15 21 22 18 22 27 24 23 24 24 25 23 22 23 22 19 16 18 20 26 30 30 30 30 30 30 28 28 27 28 28 29 31 32 32 31 32 32 33 32 29 31 31 29 30 29 28 29 28
9 9 7 11 15 18 20 21 22 21 21 23 22 21 23 23 26 26 25 22 24 30 27 31 32 31 29 31 31 32 30 29 32 32 32 31 28 30 31 30 30 31 30 31 31 30 29 32 31 29 26 27 26 25
13 10 13 12 16 18 20 21 20 20 21 22 21 22 24 24 26 27 25 26 29 30 30 30 31 32 30 29 29 30 31 33 33 33 29 29 31 30 31 31 30 30 29 29 29 30 30 30 29 26 26 26 24 25
14 14 18 19 18 19 24 20 23 23 23 24 23 24 26 26 26 23 28 29 30 29 30 31 31 30 31 29 28 31 33 35 34 34 33 32 32 31 31 30 28 30 29 29 27 26 25 24 24 25 25 25 25 26
20 27 27 26 26 27 24 25 23 24 24 24 24 27 28 28 27 24 30 33 34 32 33 34 36 33 34 35 35 36 37 36 33 34 34 34 32 33 32 30 30 30 28 26 25 25 24 25 24 25 25 25 26 26
24 35 31 32 29 29 30 32 33 30 32 29 25 26 28 28 26 31 32 34 32 32 31 32 31 30 32 31 31 33 35 36 36 34 32 32 32 30 29 27 27 27 27 25 26 26 26 26 26 26 26 27 27 28
35 37 35 37 35 32 33 31 35 37 36 34 32 30 28 27 27 32 32 31 30 30 30 31 31 30 29 29 30 30 31 32 33 31 31 30 30 30 28 26 25 27 27 27 26 27 27 28 29 31 31 31 29 31
33 35 35 35 35 34 33 34 36 35 38 38 36 33 28 26 29 29 27 28 29 30 29 29 31 31 30 30 29 30 31 32 34 33 34 35 34 34 33 32 29 30 30 29 29 30 31 31 31 31 31 31 30 30
41 41 36 35 34 35 36 35 35 37 37 37 38 34 33 30 29 28 28 29 31 32 32 30 31 33 34 33 34 35 34 34 33 34 35 34 34 33 34 34 33 26 31 32 32 32 34 34 34 35 35 35 35 35
41 43 43 40 39 36 39 37 39 41 41 43 40 35 33 31 32 32 31 33 36 36 35 34 33 37 34 34 34 35 36 37 35 34 34 34 34 33 36 36 37 36 36 37 30 27 32 35 35 35 35 35 34 37
41 46 40 39 38 39 42 46 46 50 47 47 47 41 37 35 33 33 35 37 36 36 37 41 42 44 41 42 39 36 40 40 38 36 37 36 35 38 39 38 38 38 38 40 35 35 29 32 31 34 34 36 36 35
42 46 41 39 40 43 47 51 53 53 51 51 53 50 44 43 39 38 39 40 43 45 45 42 42 41 41 41 42 41 35 39 41 38 38 37 37 36 36 35 34 38 39 38 38 38 36 36 37 38 36 35 35 33
44 46 42 37 38 46 50 48 48 48 48 47 45 51 44 43 37 33 37 43 43 41 38 40 42 37 37 38 39 38 33 34 35 34 35 35 35 34 34 34 37 39 39 36 37 37 37 37 36 36 35 35 35 34
45 48 46 43 40 40 44 45 42 41 44 43 42 46 46 42 33 30 36 37 34 34 34 35 35 36 37 37 36 35 33 35 36 28 27 26 27 28 32 34 35 36 37 36 35 35 35 36 35 35 35 34 33 33

GFSWCAN_con_lsi_087.txt.gz
Lid_Strength_Index
2 2 2 2 2 2 2 2 2 2 2 2 2 2 1 1 2 4 6 6 9 12 12 11 10 11 11 11 13 13 12 12 12 13 13 14 16 15 15 15 14 14 16 16 17 19 18 13 13 14 12 14 13 12
2 2 2 2 2 2 2 3 3 2 2 2 2 2 2 1 2 3 7 5 6 10 11 10 10 9 10 10 11 12 12 12 11 12 12 13 15 16 17 17 14 15 14 15 13 14 13 14 14 13 12 12 13 12
4 3 2 2 2 2 2 3 3 3 3 3 3 2 2 2 1 3 5 6 7 11 12 12 12 10 8 9 8 11 12 10 12 11 12 13 15 14 16 18 16 15 16 14 13 15 15 14 13 13 13 13 12 12
4 4 3 2 2 2 3 3 3 4 4 3 3 3 3 2 1 2 6 5 8 11 14 13 10 11 10 9 9 9 10 10 10 11 13 13 14 13 14 15 15 13 14 15 15 15 16 14 14 13 13 12 13 13
4 4 3 3 3 3 3 3 3 3 4 3 3 3 3 2 1 3 3 4 4 10 15 15 13 12 10 10 9 9 10 11 12 13 14 14 15 15 17 16 17 14 13 12 15 13 13 13 13 13 13 13 13 13
3 4 3 3 3 3 3 3 3 3 3 3 3 3 3 2 2 5 9 4 3 5 13 16 13 14 12 11 11 11 10 11 12 12 12 14 14 15 20 23 15 13 11 9 10 10 9 9 11 12 13 13 13 14
4 4 4 4 3 3 3 3 3 3 3 2 2 2 2 2 6 10 12 7 3 5 12 14 14 12 12 12 14 14 13 14 13 14 14 15 15 15 20 21 14 14 12 13 13 12 13 12 12 12 13 13 15 17
4 4 4 4 4 4 4 4 3 2 2 2 2 2 2 2 4 8 6 3 4 7 10 17 15 12 10 14 16 14 15 15 15 16 16 15 15 17 17 15 14 15 14 14 14 14 14 14 14 15 15 16 16 16
5 5 5 4 4 4 4 3 3 2 2 2 1 1 4 6 8 9 2 3 4 8 12 16 18 16 9 10 10 12 13 18 13 18 16 16 21 21 16 14 13 14 15 15 16 17 17 15 16 16 17 18 17 17
4 4 4 4 4 4 4 3 3 2 2 1 4 7 10 7 2 3 6 8 9 9 13 16 18 16 10 11 12 13 13 15 15 16 14 20 22 15 14 13 13 14 14 16 17 17 18 17 17 17 17 18 17 17
4 4 4 4 3 3 3 3 2 1 1 5 8 9 6 2 8 9 12 12 15 16 17 19 16 14 12 17 15 12 14 16 19 17 16 21 19 15 13 14 13 13 13 14 15 15 15 15 16 17 19 18 20 19
3 3 3 3 3 3 3 2 1 3 6 6 6 4 6 11 11 13 17 19 22 21 14 17 16 14 13 12 15 14 18 17 22 20 16 23 18 20 21 19 19 19 17 16 17 16 17 16 18 19 20 20 19 20
2 2 2 2 2 2 2 1 -0 0 2 5 7 9 12 13 17 17 19 22 19 23 21 15 13 15 14 12 15 15 18 17 16 14 18 19 21 24 25 24 22 23 22 21 21 22 21 20 20 24 22 23 22 22
2 2 2 1 1 1 1 1 -1 0 4 8 13 15 13 18 18 22 21 19 18 18 18 17 13 12 16 13 13 16 14 16 20 22 21 21 26 29 27 27 25 26 26 25 25 25 24 24 24 27 27 26 26 24
2 2 2 2 1 1 1 1 0 6 7 9 13 18 19 18 22 21 23 22 20 21 16 17 17 14 15 15 11 16 16 19 18 21 21 27 29 28 27 27 28 29 29 29 29 29 29 28 28 29 29 29 28 27
2 4 5 1 1 1 3 5 8 11 14 15 19 15 21 19 20 20 23 24 19 15 17 16 19 18 20 13 18 17 19 23 20 24 30 27 28 30 32 33 32 32 31 31 31 31 31 30 31 32 32 31 30 30
4 13 2 2 3 4 5 11 12 18 21 22 25 28 27 25 25 28 28 25 18 15 19 17 19 18 12 19 17 19 22 27 30 31 33 31 29 31 34 35 35 34 33 33 34 32 33 33 33 31 29 31 31 31
13 8 2 3 7 9 14 15 18 22 27 26 25 27 27 28 27 28 27 23 20 21 19 16 14 17 16 15 15 24 26 25 27 25 26 28 31 36 37 36 34 36 36 35 36 35 35 33 33 33 35 33 32 30
10 7 3 4 8 15 18 19 20 26 28 29 28 26 28 27 25 23 27 24 23 23 21 18 17 19 22 29 29 29 30 28 28 27 25 28 30 34 34 34 35 34 34 35 34 34 35 36 34 34 34 33 33 33
3 4 5 7 10 18 20 21 21 23 27 24 27 28 30 27 26 27 27 24 22 23 26 28 32 32 32 32 31 32 30 29 29 27 26 27 28 30 33 35 33 35 34 34 34 31 33 32 31 32 32 32 32 32
9 8 8 14 18 20 24 26 24 25 27 27 27 26 26 27 29 29 28 23 26 32 30 32 32 29 31 32 31 32 30 29 30 30 29 29 27 29 32 32 33 35 33 34 33 33 33 33 32 32 32 32 31 30
14 9 15 13 18 22 23 22 23 23 24 27 26 27 30 29 29 29 26 29 31 32 32 31 30 31 31 32 30 29 29 31 31 30 28 28 30 33 33 33 33 33 34 33 34 34 34 33 33 32 31 29 25 26
14 14 19 20 21 23 25 23 26 25 27 25 25 26 26 27 27 24 29 30 31 29 30 30 30 29 30 30 31 32 33 32 30 31 33 35 35 36 36 35 35 34 34 33 31 31 31 26 26 27 25 25 24 24
20 28 27 27 25 26 25 27 25 27 26 26 25 28 28 28 25 26 31 32 31 29 30 30 31 31 32 35 36 37 37 40 39 37 37 37 36 36 36 35 34 33 31 30 29 28 27 26 24 25 25 24 24 24
26 35 31 33 31 29 29 29 30 29 29 28 27 28 27 26 25 29 32 33 36 36 33 33 37 36 37 38 36 36 37 38 38 38 36 37 36 35 34 34 32 31 28 28 27 26 25 25 25 25 25 25 25 26
37 39 36 41 38 36 39 37 38 36 37 33 34 32 30 28 32 35 34 34 34 33 32 34 36 34 34 31 31 30 31 32 32 33 31 34 33 34 33 29 27 29 29 29 28 27 26 26 27 28 27 27 27 28
34 36 37 39 39 39 38 38 38 37 41 41 42 38 32 31 30 29 28 29 30 30 29 29 31 31 31 30 29 29 30 31 32 31 31 32 32 34 34 34 33 33 34 34 33 33 32 31 30 31 30 31 32 31
38 39 36 36 37 38 37 38 37 38 39 40 41 36 32 29 28 27 28 28 32 33 32 32 31 31 32 32 31 32 33 35 32 31 33 33 34 35 37 37 36 27 32 35 35 34 36 36 35 35 34 33 33 35
38 41 41 38 36 35 38 37 40 42 42 46 40 37 33 29 30 32 30 31 35 35 36 35 34 38 34 35 34 36 37 39 37 36 37 36 36 34 38 38 38 37 37 38 31 26 30 32 33 33 32 33 33 37
41 48 40 41 38 38 41 46 46 51 51 48 49 43 41 37 34 35 37 38 37 37 37 40 40 45 41 44 38 36 41 41 37 35 37 36 34 38 41 39 37 37 39 41 35 35 29 32 33 36 35 36 36 36
46 47 42 43 40 44 48 53 56 55 54 54 56 50 44 44 39 40 40 42 45 47 44 40 40 46 44 43 45 43 35 39 40 37 37 36 35 36 36 35 35 37 40 38 37 38 36 37 38 37 36 35 35 33
45 47 42 36 38 47 53 51 50 49 50 48 46 55 46 43 37 32 36 43 43 39 37 41 44 35 38 37 40 38 33 33 36 34 35 34 34 34 33 33 35 39 39 36 37 37 38 37 36 36 35 35 34 34
47 50 49 45 40 39 44 44 43 40 44 43 41 46 47 42 33 29 35 37 32 32 32 34 35 36 36 36 35 34 34 34 34 29 27 27 28 28 29 33 34 36 36 35 35 35 36 36 35 35 34 34 34 33